GFSSGP_prec_cloud_003.txt.gz
Cloud_Cover
21 82 77 98 6 5 5 8 22 85 85 42 100 100 93 99 99 64 95 57 100 81 99 100 91 100 100 86 100 100 100 100 100 100 100 50 90 100 100 43 0 0 0 0 0 2 0 0 0
84 48 63 100 100 5 5 5 5 5 5 5 22 98 85 60 83 82 70 70 95 76 82 78 100 82 100 100 100 98 58 79 88 82 55 100 100 67 0 0 0 0 0 0 2 0 0 0 0
65 28 95 100 100 83 15 2 19 21 42 81 28 50 9 52 57 21 23 19 65 38 54 82 5 17 40 96 100 94 30 35 70 100 100 94 7 0 1 3 0 0 1 0 2 0 0 0 0
5 98 5 6 10 5 5 5 7 41 26 68 100 48 66 47 74 99 100 100 100 100 92 65 8 41 53 100 87 34 100 100 100 100 8 0 3 5 0 0 2 0 0 0 5 0 0 0 0
57 30 93 98 80 24 10 5 31 45 35 78 100 92 83 97 97 95 93 64 83 16 73 40 50 99 100 100 99 94 90 31 1 4 5 5 5 4 5 5 5 3 0 5 31 3 0 0 0
5 5 99 96 100 26 5 2 2 36 4 13 57 85 80 70 31 32 25 40 15 2 36 27 0 8 54 10 68 100 34 0 0 0 2 3 4 4 5 5 5 4 3 5 46 72 36 6 5
15 5 49 39 99 100 97 62 14 5 1 2 0 6 49 10 73 10 54 35 11 17 23 47 39 7 75 72 1 0 0 0 0 0 1 5 5 5 5 8 5 30 52 100 98 24 32 60 19
7 74 51 5 96 100 99 100 56 15 2 0 0 0 14 0 0 0 6 46 35 30 33 36 28 39 25 4 0 0 0 0 0 0 0 5 0 0 0 69 36 15 44 75 97 22 32 100 5
3 5 5 5 5 19 25 19 3 0 0 0 0 0 0 0 2 1 27 47 47 37 36 29 17 20 10 1 0 0 0 0 0 0 0 0 0 0 0 5 4 5 8 40 100 8 53 57 77
8 5 5 4 5 5 95 40 1 0 0 0 0 0 0 0 0 0 10 20 34 26 20 23 22 11 17 0 0 0 0 0 0 0 0 0 0 0 0 0 0 1 8 40 18 22 41 14 85
60 99 6 5 0 6 46 83 2 0 0 0 0 0 0 0 0 0 0 0 0 3 11 23 31 6 6 26 1 2 0 0 0 0 0 0 0 0 0 0 0 0 0 0 0 0 2 22 100
5 48 28 1 6 2 0 3 28 0 85 21 0 0 0 1 0 4 0 0 0 1 6 5 6 21 34 6 0 0 0 0 0 0 0 0 0 0 0 0 0 0 0 0 0 0 0 0 2
5 1 5 2 2 0 3 0 0 1 4 94 10 76 10 3 0 6 2 0 0 0 6 15 8 8 18 0 0 0 0 0 0 0 0 0 0 0 0 0 0 0 0 0 0 0 0 0 0
5 3 5 2 0 0 2 6 0 0 0 2 5 8 5 17 6 4 6 5 3 0 0 19 30 30 34 11 11 0 0 0 0 0 0 0 0 0 3 1 0 0 0 0 0 0 0 0 0
4 4 2 5 0 0 0 0 0 0 0 0 0 0 0 0 0 0 0 0 2 1 0 0 0 14 30 19 4 0 0 0 0 0 0 0 0 3 0 0 0 0 0 0 0 1 0 0 0
0 1 0 0 0 0 0 0 0 0 0 0 0 0 0 0 0 0 0 0 0 9 0 0 0 0 1 1 0 0 0 0 0 0 0 3 4 2 0 2 0 0 0 0 0 0 0 0 0
0 0 1 0 5 0 0 0 0 0 0 0 0 0 0 0 0 0 0 0 0 0 0 0 0 0 7 10 0 5 0 0 0 0 0 0 0 0 0 0 5 0 0 2 0 1 0 0 0
0 0 0 0 0 0 4 0 0 0 0 0 0 0 0 0 0 0 0 0 0 0 0 0 0 2 3 4 0 0 0 0 0 0 0 0 4 0 0 0 0 2 1 0 2 27 22 3 0
0 0 0 5 5 5 5 5 0 0 0 0 0 0 0 0 0 0 0 0 0 0 0 0 0 0 0 0 0 0 0 0 0 0 0 0 0 0 0 0 0 0 0 0 20 16 11 1 5
0 0 0 5 5 4 5 11 5 5 5 5 5 1 0 0 0 0 0 0 0 0 0 0 0 0 0 0 0 0 0 0 0 0 0 0 0 0 0 0 0 0 0 2 5 2 0 0 13
0 0 0 0 5 5 5 5 5 3 5 5 3 4 4 0 0 2 5 0 0 0 0 0 0 0 0 0 22 11 0 0 0 0 3 0 0 0 0 0 0 0 0 0 5 3 2 2 19
0 0 0 0 2 0 8 0 5 5 5 5 5 2 5 5 0 0 0 0 0 0 0 0 0 0 0 21 3 0 0 0 2 17 12 14 0 0 0 0 0 0 0 0 5 5 3 10 5
0 0 0 3 2 0 2 0 0 5 0 3 5 0 4 50 5 0 0 3 0 0 0 0 0 0 0 3 3 0 0 3 26 22 0 10 21 0 0 0 0 0 0 5 5 5 5 5 6
0 0 0 0 0 2 0 0 0 0 0 3 4 5 5 5 5 0 0 0 4 1 0 0 0 0 0 0 1 0 0 0 17 1 0 0 0 0 0 0 0 0 2 0 3 5 52 43 13
0 0 0 0 0 0 0 0 0 0 0 3 5 5 5 5 4 0 0 0 0 0 0 0 0 0 0 0 0 0 0 0 0 0 0 0 0 0 0 0 0 4 0 13 5 4 27 5 6
0 0 0 0 0 0 0 0 0 0 0 0 0 1 4 0 0 4 0 0 0 0 0 0 0 0 0 0 0 0 0 0 0 0 0 0 0 0 0 5 5 5 5 5 30 5 10 55 6
0 0 0 0 0 0 0 0 0 0 0 0 0 0 0 0 5 1 0 0 0 0 0 0 0 0 0 0 0 0 0 0 0 0 0 5 0 0 0 1 5 5 9 5 10 26 46 80 39
0 0 0 0 0 1 0 0 0 0 0 0 0 0 0 3 3 5 0 0 0 0 0 0 0 0 0 0 0 0 0 0 2 88 8 45 22 5 5 5 5 3 3 28 48 82 11 39 88
0 0 0 0 0 0 0 0 0 0 0 0 0 0 0 0 1 2 0 0 0 0 0 0 0 0 0 0 0 0 2 18 100 74 65 82 31 100 94 100 75 5 15 28 5 5 10 27 24
0 0 0 0 0 0 0 0 0 0 0 0 0 0 0 0 0 0 0 0 0 0 0 0 0 0 0 0 0 0 0 0 67 98 39 50 99 100 100 96 73 54 90 30 5 9 16 55 77

GFSSGP_prec_cloud_006.txt.gz
Cloud_Cover
98 47 59 97 51 100 100 100 100 100 100 100 100 96 96 97 97 61 96 100 91 99 79 100 97 100 100 100 100 100 100 100 98 90 54 49 94 100 97 0 5 0 0 0 2 5 4 3 5
19 15 83 95 98 100 75 100 100 86 70 72 52 24 80 58 78 74 69 71 98 92 98 73 61 57 28 42 63 48 100 100 100 98 100 100 98 4 3 5 2 0 0 0 5 5 3 0 4
0 2 25 60 100 87 63 98 9 6 5 24 44 44 39 92 19 58 13 48 92 80 93 100 74 83 9 41 74 62 100 56 59 99 100 19 0 2 5 5 0 0 0 0 5 3 5 5 1
5 92 100 100 58 5 5 8 5 5 5 70 98 18 13 76 28 28 33 84 91 100 100 100 43 6 5 8 11 14 39 94 98 6 0 0 0 5 5 0 0 0 0 2 5 2 1 11 1
56 100 94 77 75 0 0 0 4 49 5 30 53 8 5 21 51 27 47 97 97 99 93 85 72 92 5 5 5 6 100 91 8 0 0 0 3 5 5 5 5 0 0 8 5 5 5 15 5
72 95 85 5 4 4 2 0 0 2 0 1 21 51 79 10 13 26 42 85 100 68 99 14 2 0 5 5 7 49 0 0 0 0 0 0 0 0 15 81 92 6 100 100 100 88 5 89 7
12 66 85 43 5 5 2 1 0 0 0 2 0 1 18 91 59 48 57 97 100 75 92 44 4 2 5 5 2 0 0 0 0 0 0 0 0 0 46 92 47 34 30 98 100 91 46 16 5
5 41 45 76 86 5 5 12 32 6 39 0 0 0 0 0 12 36 63 71 99 69 36 91 46 44 21 0 3 1 0 0 0 0 0 0 0 0 5 4 5 5 33 100 100 100 100 84 5
5 78 100 84 93 22 9 5 5 1 0 0 0 0 0 0 4 22 77 79 62 72 50 39 43 26 46 0 0 0 0 0 0 0 0 0 52 46 28 9 0 0 1 1 5 77 29 75 34
6 93 86 27 71 5 29 6 1 0 0 0 0 0 0 0 0 2 10 26 45 54 40 72 90 100 48 39 16 21 0 0 0 0 0 0 5 16 0 0 0 0 0 0 0 0 0 26 72
20 83 36 5 23 7 12 37 26 0 0 0 0 0 0 0 0 0 2 13 13 32 36 98 26 85 66 56 22 24 13 4 0 1 0 4 0 1 47 35 12 0 2 62 53 33 52 2 0
6 99 17 5 4 0 0 0 43 0 0 0 0 0 0 0 0 0 0 0 7 26 33 31 33 38 40 15 15 18 15 6 0 0 0 0 0 6 2 56 45 5 50 16 16 43 2 0 0
0 4 5 5 0 0 0 0 0 0 0 1 1 0 0 0 0 0 0 5 2 6 16 28 34 76 62 36 22 27 18 1 0 0 0 0 6 29 10 0 4 6 45 66 33 16 8 10 25
2 0 5 0 0 0 2 2 0 0 0 1 6 3 5 5 5 4 5 0 0 0 0 4 4 18 26 22 12 10 5 6 0 0 0 1 5 14 15 43 12 14 53 59 25 14 7 40 54
3 0 2 0 0 0 1 0 0 0 0 0 0 0 0 0 0 0 0 0 0 0 0 0 11 18 74 58 53 17 15 5 16 3 5 50 16 0 0 41 16 21 36 1 24 38 86 39 9
4 1 5 0 0 0 0 4 0 0 0 0 0 0 0 0 0 0 0 0 0 0 0 0 0 9 22 26 12 6 15 22 16 26 58 1 12 2 11 37 20 42 0 36 92 38 34 7 2
0 4 6 0 0 0 0 25 0 0 0 0 0 0 0 0 0 0 0 0 0 0 0 0 0 0 1 7 10 6 21 7 10 19 2 10 16 0 4 18 26 15 1 8 21 67 3 0 0
5 4 5 3 0 0 0 9 0 0 0 0 0 0 0 0 0 0 0 0 0 0 0 0 0 12 5 9 5 6 2 2 6 5 6 2 3 22 16 33 13 3 20 38 44 13 4 0 0
5 5 5 5 6 3 0 0 0 0 0 0 0 0 0 0 0 0 0 0 0 0 5 16 3 11 12 0 6 12 1 12 0 4 9 6 7 14 8 21 16 9 4 10 1 0 0 0 5
3 5 5 56 5 5 14 2 0 0 0 0 0 0 0 0 0 0 0 0 0 0 4 15 24 13 4 12 5 9 36 21 34 64 42 23 39 20 16 15 7 5 0 24 0 2 1 0 4
0 0 5 83 2 5 43 5 0 0 5 0 0 3 0 0 0 0 0 0 0 0 0 0 0 14 10 0 6 18 0 1 18 24 16 38 55 48 21 23 0 8 0 0 8 17 5 0 26
0 0 5 6 21 5 2 37 6 3 0 0 0 0 2 4 0 0 0 0 0 0 0 0 0 0 8 5 7 0 0 1 0 0 0 2 19 4 22 6 16 0 0 0 0 0 4 0 0
0 0 0 4 5 82 96 21 7 2 0 0 0 0 0 4 5 0 0 0 0 0 0 0 0 0 0 2 4 0 1 0 0 0 0 0 0 0 0 0 0 0 0 2 2 0 5 4 5
0 1 4 3 5 8 37 46 2 5 0 0 2 0 0 0 1 2 0 0 0 1 4 0 0 0 0 0 15 5 0 0 0 0 0 0 0 0 0 1 0 0 0 0 5 5 3 1 3
0 0 0 2 5 26 46 42 0 5 3 0 3 0 3 8 1 0 0 0 0 0 0 0 0 0 0 0 0 6 8 0 0 0 0 0 0 0 0 8 0 11 3 2 5 3 1 5 5
0 0 0 5 5 13 6 11 0 0 2 0 0 0 22 5 0 0 0 0 0 0 0 0 0 0 0 0 0 0 0 0 0 0 0 2 1 0 0 1 0 75 73 5 4 0 18 97 22
0 0 0 5 33 36 3 1 0 0 0 0 0 0 3 5 0 0 0 0 0 0 0 0 0 0 0 0 0 0 0 0 0 0 0 4 2 4 5 9 99 37 100 98 19 28 2 51 20
0 0 0 1 33 98 5 15 3 0 0 0 0 0 0 0 0 0 0 0 0 0 0 0 0 0 0 0 0 0 0 0 0 0 8 25 40 35 74 81 70 91 64 100 50 46 96 100 86
0 0 0 1 4 14 43 5 4 0 0 0 0 0 3 1 0 0 0 0 0 0 0 0 0 0 0 0 0 0 0 2 15 34 100 48 45 15 96 92 20 99 70 86 5 84 97 47 73
0 0 0 0 0 4 3 1 5 2 0 0 0 5 1 0 0 2 0 0 0 0 0 0 0 0 0 0 0 0 0 0 0 69 12 41 6 29 91 100 100 100 100 80 100 98 100 100 100

GFSSGP_prec_cloud_009.txt.gz
Cloud_Cover
6 3 95 74 100 100 100 100 100 100 100 88 100 100 100 97 99 70 66 58 96 97 90 99 86 5 98 56 99 100 91 100 92 5 60 10 90 12 5 4 4 4 0 0 5 5 5 0 5
5 44 92 64 100 100 100 100 100 100 100 100 100 49 99 61 88 73 79 98 89 84 86 57 37 16 73 52 31 38 73 5 5 5 68 92 0 0 0 0 0 0 0 0 34 5 5 5 5
2 68 99 48 54 100 53 98 56 54 100 98 100 100 83 73 28 21 24 69 100 97 79 62 100 100 100 99 45 19 17 8 5 95 96 1 0 0 0 3 0 0 0 0 5 33 22 52 5
6 41 2 100 51 88 100 99 22 26 41 72 65 79 42 50 62 6 38 95 97 100 63 100 97 100 84 100 99 5 5 5 87 3 0 0 0 0 0 5 4 2 5 5 5 5 36 9 5
2 42 86 98 24 62 100 87 95 100 85 82 62 92 39 98 60 93 89 100 100 100 100 100 99 100 94 87 8 19 5 10 0 0 0 0 0 2 58 77 47 79 98 92 16 5 11 6 5
73 100 100 100 100 72 11 75 100 98 97 62 36 14 93 57 43 61 97 90 92 66 86 26 86 12 4 3 5 5 0 0 0 0 0 0 0 12 74 15 44 10 62 100 59 44 13 5 5
100 67 96 100 94 5 5 5 94 26 8 96 15 47 28 45 54 68 93 99 100 23 58 58 5 3 5 2 3 0 1 0 0 0 0 0 0 3 2 4 0 1 5 17 12 34 100 86 5
100 92 100 41 100 0 0 5 3 5 48 3 78 32 6 25 35 95 34 99 100 59 90 63 8 26 7 0 0 0 0 0 0 0 0 0 0 0 0 0 0 0 4 5 5 18 5 5 5
12 47 92 88 75 56 1 4 0 2 0 0 61 11 1 0 40 48 100 94 100 68 16 41 39 64 90 20 2 0 0 0 0 0 0 0 60 52 33 23 0 0 0 0 0 0 0 2 23
82 100 100 59 100 80 5 5 0 1 0 0 0 25 0 0 27 40 24 53 29 96 75 96 68 10 50 13 1 0 0 0 1 4 1 1 96 54 2 30 0 0 0 0 0 0 0 61 70
80 100 75 100 41 100 5 47 5 5 0 0 0 0 0 0 17 36 30 42 34 28 79 50 61 54 46 69 0 9 12 14 8 8 19 52 96 63 93 25 93 46 8 94 5 83 30 44 13
5 98 97 98 3 81 8 45 4 3 20 0 0 0 0 0 0 1 26 19 34 42 10 7 36 92 98 100 22 90 66 39 48 4 5 16 14 92 12 99 100 67 93 51 97 95 54 88 24
1 14 25 25 5 6 62 59 5 4 1 0 0 0 0 0 0 0 5 7 14 6 29 4 64 1 54 77 44 64 66 19 81 52 16 44 94 93 21 73 0 70 7 87 100 100 52 91 98
33 6 4 5 5 3 70 27 5 5 0 0 2 0 0 4 2 0 1 0 0 0 0 1 4 0 86 23 40 81 98 100 17 80 81 76 15 93 18 73 100 98 100 86 94 100 14 26 64
2 3 3 4 5 4 5 14 5 4 0 0 2 1 1 2 2 0 0 0 0 0 0 0 1 8 4 6 46 12 93 46 100 51 69 1 2 5 1 22 97 97 100 15 71 100 82 5 7
4 0 5 31 4 3 0 22 0 0 1 3 0 0 0 0 0 0 0 0 0 0 0 0 0 0 4 70 35 40 87 100 88 79 100 17 3 11 34 25 100 100 87 100 81 9 100 66 0
4 4 9 100 2 3 2 96 10 0 0 1 0 0 0 0 0 0 0 0 0 0 0 0 0 1 3 3 19 17 95 75 100 100 38 100 60 100 56 70 76 21 84 76 1 4 87 37 0
5 5 86 80 11 2 0 87 9 0 0 0 0 0 0 0 0 0 0 0 0 0 0 0 10 5 3 64 12 40 73 96 89 95 26 16 21 9 26 41 55 30 95 1 62 89 4 0 2
5 100 77 100 53 2 5 33 1 0 0 2 0 0 0 0 0 0 0 0 0 0 0 0 0 1 5 1 2 20 39 85 20 28 100 0 0 39 1 4 70 16 19 100 71 0 0 0 48
4 50 89 100 9 57 66 84 99 8 0 0 1 0 0 0 0 0 0 0 0 0 0 0 0 0 0 5 0 14 47 83 35 82 79 7 100 100 14 21 1 5 52 0 0 0 0 0 25
0 5 84 100 40 100 77 100 88 73 1 0 0 0 0 0 0 0 0 0 0 0 0 0 0 0 0 0 30 19 48 2 78 64 81 16 14 58 22 12 5 11 0 0 0 7 0 6 39
0 4 62 95 96 100 12 94 97 57 50 0 0 0 0 0 0 0 0 0 0 0 0 0 0 0 0 0 30 36 0 2 0 0 3 0 50 6 33 73 14 0 0 0 0 0 2 1 2
0 4 5 76 100 100 94 76 100 99 26 4 0 0 0 0 0 0 0 0 0 0 0 0 0 0 0 0 0 0 0 0 0 0 3 0 31 1 0 0 0 0 0 0 3 2 2 14 0
0 2 5 14 100 100 100 71 15 99 100 69 46 1 0 0 0 0 0 0 0 0 0 0 0 0 0 0 0 0 8 0 0 0 0 0 0 0 0 0 0 0 0 29 5 8 0 0 0
0 0 9 62 100 47 100 93 100 88 40 30 54 100 19 1 0 0 0 0 0 0 0 0 0 0 0 0 0 0 0 0 0 4 0 0 0 1 0 0 0 1 5 87 42 3 10 4 3
0 0 0 5 58 95 18 93 50 100 15 100 99 6 69 6 0 2 0 0 0 0 0 0 0 0 0 0 0 0 0 0 0 0 0 0 0 3 0 0 3 100 98 32 5 5 99 14 5
0 0 0 5 73 91 94 50 94 100 97 64 5 5 47 5 0 2 0 0 0 0 0 0 0 0 0 0 0 0 0 0 0 0 0 0 0 0 0 2 2 4 50 95 90 8 92 97 35
0 3 0 0 17 100 98 91 100 47 4 4 5 5 5 5 0 5 0 0 0 0 0 0 0 0 0 0 0 0 0 0 0 0 0 0 0 2 4 4 78 90 22 74 52 86 71 84 87
1 0 0 2 27 11 85 97 100 100 96 2 3 4 25 5 0 0 0 0 0 0 0 0 0 0 0 0 0 0 0 0 0 0 0 0 0 0 0 33 29 64 49 100 100 49 30 100 84
0 0 0 0 0 4 32 100 100 88 3 1 5 5 67 98 1 0 3 0 0 0 0 0 0 0 0 0 0 0 0 0 0 0 0 0 0 0 0 5 8 56 70 94 69 54 36 100 70

GFSSGP_prec_cloud_012.txt.gz
Cloud_Cover
5 6 100 100 100 100 100 100 100 96 97 91 100 78 75 99 100 100 66 93 75 38 96 40 18 38 66 5 5 45 5 20 5 5 5 3 74 0 0 0 0 0 0 0 5 5 10 4 5
5 33 100 100 100 100 100 96 100 99 68 80 100 100 100 100 100 97 99 88 77 13 18 12 19 9 95 100 100 58 44 59 13 5 3 1 0 0 0 0 0 0 0 0 4 5 27 6 5
9 95 94 100 100 100 100 98 100 100 96 100 100 100 100 100 100 76 91 77 63 33 11 47 36 70 84 100 94 17 88 19 5 3 0 0 0 0 0 0 0 0 0 1 0 51 3 2 4
64 100 81 94 100 100 90 72 50 74 100 100 100 71 89 97 53 61 100 100 100 72 66 80 79 100 81 100 100 100 100 4 3 0 0 0 0 0 0 3 3 2 77 3 2 5 5 2 4
76 100 100 71 100 100 100 75 100 62 100 56 47 57 7 51 67 91 87 78 100 94 100 100 100 100 100 100 64 2 2 2 0 0 0 0 1 5 39 21 53 4 5 5 14 6 3 0 2
100 52 100 100 100 88 33 3 100 89 100 19 36 78 97 41 48 13 89 55 7 11 24 41 100 49 11 1 0 0 0 0 0 0 0 0 0 1 0 0 0 4 5 4 2 1 36 5 1
100 96 38 100 100 5 7 92 88 8 66 98 5 97 75 96 29 68 87 100 100 32 0 2 77 100 6 0 0 0 0 0 0 0 0 0 0 1 0 0 0 4 5 3 5 0 0 0 0
100 98 100 100 97 71 9 87 98 9 95 67 32 18 81 54 75 17 50 68 20 53 2 4 0 6 0 1 0 0 0 0 0 0 0 0 0 0 0 0 0 0 0 0 0 2 0 0 4
97 94 100 100 55 70 6 1 37 71 16 36 78 1 8 27 6 64 42 100 40 88 14 0 9 0 0 0 0 0 0 0 0 0 0 0 28 10 94 0 0 0 100 100 2 0 0 0 0
50 69 80 91 6 95 22 2 5 3 0 74 3 24 0 52 0 36 82 29 100 80 20 74 0 0 0 0 0 0 0 0 0 0 0 0 100 14 2 87 46 71 100 100 1 0 27 32 3
76 100 99 47 7 11 98 16 3 1 1 2 65 10 1 87 1 16 20 2 0 26 98 10 0 86 2 7 0 0 0 0 0 0 46 38 100 97 100 68 100 52 100 92 4 41 48 4 29
99 85 87 98 93 97 95 42 0 9 79 2 5 0 0 21 37 0 31 0 43 34 45 3 0 0 92 29 0 0 0 0 2 5 5 7 1 85 56 59 78 19 50 90 10 6 100 2 0
26 48 96 94 37 2 91 73 3 15 68 3 0 0 0 0 13 13 0 22 8 0 55 0 0 18 28 93 11 50 80 84 100 41 17 6 5 85 49 3 24 0 65 7 5 10 81 5 0
60 41 14 5 55 5 16 78 1 4 2 2 0 0 0 0 0 2 2 1 67 0 6 0 0 0 13 42 4 56 4 97 4 63 72 2 2 5 36 3 0 87 94 67 100 61 46 3 5
5 66 37 2 3 97 1 100 4 5 1 2 0 5 1 5 1 5 1 0 31 0 34 5 0 0 0 0 9 0 83 0 52 2 1 30 0 1 0 0 2 14 92 100 10 91 0 100 8
0 1 9 5 34 9 0 100 3 5 0 0 0 0 0 0 0 0 0 0 0 0 0 0 0 0 0 0 0 0 0 30 20 77 55 27 1 0 0 1 21 62 9 55 61 15 1 59 54
0 2 4 93 100 81 0 49 86 18 3 3 0 0 0 0 0 0 0 0 0 0 0 0 0 0 0 0 2 0 0 16 85 53 20 100 34 21 2 10 38 65 10 0 15 32 54 0 0
0 3 5 69 58 96 86 100 100 50 77 6 2 0 0 0 0 0 0 0 0 0 0 0 2 2 15 6 23 3 0 100 92 51 96 19 38 0 13 3 5 11 0 38 3 75 44 3 0
0 48 12 100 99 100 100 100 100 24 58 9 3 0 0 0 0 0 0 0 0 0 0 0 2 0 28 0 0 0 0 71 32 1 18 0 58 4 0 0 0 100 1 70 100 0 0 0 2
0 6 30 100 67 100 100 67 76 8 3 1 0 0 0 0 0 0 0 0 0 0 0 0 0 0 0 0 0 0 4 7 4 68 4 71 3 0 73 0 0 25 4 33 0 0 0 2 30
0 0 5 100 94 99 98 92 100 98 5 0 1 0 0 0 0 0 0 0 0 0 0 0 0 0 0 0 0 0 0 40 40 65 30 53 3 0 78 0 0 8 9 0 0 0 0 3 85
0 0 7 27 100 12 99 74 92 97 2 0 0 0 0 0 0 0 0 0 0 0 0 0 0 0 0 0 0 0 0 0 40 8 80 0 0 0 8 1 0 0 0 0 0 2 1 0 45
0 0 0 5 100 11 21 48 97 100 100 38 2 0 0 0 0 0 0 0 0 0 0 0 0 0 0 0 0 0 0 0 0 0 0 69 0 0 10 4 2 0 0 0 0 0 0 0 1
0 0 0 4 78 98 100 30 99 81 100 66 96 5 0 0 0 0 0 0 0 0 0 0 0 0 0 0 0 0 0 0 0 94 49 0 0 0 0 4 0 0 0 0 0 0 0 0 0
1 0 0 0 5 6 98 49 95 85 98 85 91 100 9 0 1 0 0 0 0 0 0 0 0 0 0 0 0 0 0 0 0 0 0 0 0 0 0 0 0 1 5 5 5 7 5 5 2
1 0 0 0 0 2 0 70 50 94 5 92 100 94 78 0 0 0 0 0 0 0 0 0 0 0 0 0 0 0 0 0 0 0 0 0 0 0 0 0 2 5 38 11 76 99 80 10 82
0 0 0 0 2 5 20 46 5 54 50 100 97 100 100 96 1 0 0 0 0 0 0 0 0 0 0 0 0 0 0 0 0 0 0 0 0 0 0 1 5 5 74 99 100 44 7 37 74
0 0 0 0 0 0 1 32 100 9 33 5 98 100 94 48 0 5 0 0 0 0 0 0 0 0 0 0 0 0 0 0 0 0 0 0 0 0 0 2 1 5 6 65 11 48 5 7 84
0 0 0 0 0 0 0 0 4 100 91 18 1 99 93 22 0 1 0 0 0 0 0 0 0 0 0 0 0 0 0 0 0 0 0 0 0 0 0 0 0 2 4 6 25 8 5 5 5
0 0 0 0 0 0 0 0 68 91 96 31 41 0 0 0 8 97 2 0 0 0 0 0 0 0 0 0 0 0 0 0 0 0 0 0 0 0 0 0 0 2 5 5 6 7 5 5 78

GFSSGP_prec_cloud_015.txt.gz
Cloud_Cover
85 100 100 100 100 100 100 100 100 100 100 100 98 100 100 94 96 75 100 100 79 76 8 5 18 65 93 94 84 81 100 23 31 5 5 4 0 0 0 1 0 0 0 4 5 0 1 5 4
5 100 100 100 100 100 100 83 100 100 84 100 35 96 100 97 88 100 100 100 98 73 43 18 5 31 12 5 100 100 100 14 92 80 0 0 0 0 0 0 0 0 0 5 21 16 7 4 5
16 99 100 100 100 100 100 100 100 100 100 100 100 91 88 88 100 100 56 100 100 68 7 23 5 1 1 3 5 9 100 100 26 0 0 0 0 0 0 0 0 4 59 7 11 22 0 0 3
56 100 100 100 100 100 100 100 100 100 100 100 100 100 67 5 61 62 7 5 9 5 11 5 70 100 100 100 100 100 25 0 0 0 0 0 0 1 5 41 5 4 3 0 4 6 0 0 0
99 100 100 100 100 100 100 100 100 100 100 100 3 54 100 90 37 44 4 6 33 5 5 3 71 84 81 29 58 41 0 0 0 0 0 0 0 0 0 0 0 5 0 0 0 2 5 5 0
45 100 100 100 100 100 100 88 92 22 100 98 5 5 3 2 8 23 3 5 5 2 47 4 1 1 66 62 3 0 0 0 0 0 0 0 1 0 0 0 0 3 1 0 0 0 1 3 0
100 100 100 100 100 100 100 96 100 42 0 0 0 3 32 1 10 56 73 5 84 7 0 0 0 0 2 0 0 0 0 0 0 0 0 0 1 0 0 0 5 14 3 0 0 0 0 0 0
100 100 100 100 100 100 100 44 6 18 2 0 0 0 1 2 0 93 11 6 0 0 0 0 0 0 0 0 0 0 0 0 0 0 0 0 0 0 5 20 40 98 77 32 0 4 0 0 0
98 98 100 86 100 90 98 49 100 1 52 0 48 84 14 0 81 19 50 12 0 0 0 0 0 0 0 0 0 0 0 0 0 0 0 0 59 100 100 100 96 100 100 100 4 0 0 0 0
54 96 100 96 91 100 50 74 0 17 17 9 4 16 0 0 1 0 0 3 99 0 0 0 0 0 0 0 0 0 0 0 0 0 1 15 52 100 100 38 100 96 100 99 0 5 7 0 0
93 58 71 85 44 66 97 5 0 0 3 1 0 0 0 0 0 0 0 0 5 16 0 0 0 0 0 0 0 0 0 0 0 0 0 6 52 32 73 5 4 26 78 79 0 0 94 35 34
86 100 92 83 100 13 86 73 5 3 0 0 0 0 0 0 0 0 0 0 0 0 13 0 0 0 0 0 0 0 0 0 0 0 0 0 12 4 98 30 2 3 0 1 5 0 58 17 0
1 32 100 74 53 43 20 41 56 11 0 0 0 0 0 0 0 0 0 0 0 0 2 0 0 0 0 0 0 0 0 3 5 57 4 0 0 2 69 2 2 4 10 12 54 78 93 7 3
4 37 89 96 100 27 18 99 100 55 2 0 0 0 0 0 0 0 0 0 0 0 0 0 0 0 0 0 1 8 48 34 7 100 60 0 0 0 0 0 5 16 78 100 91 62 41 99 4
0 4 6 87 34 99 6 5 100 98 2 0 0 0 0 47 0 0 0 0 0 0 0 0 0 0 0 0 0 62 94 4 74 38 6 0 10 4 0 4 4 0 2 42 2 45 1 0 20
0 0 4 63 7 67 20 5 17 100 2 0 3 5 0 0 0 1 0 0 0 0 0 0 0 0 0 0 0 0 0 0 0 0 0 8 0 0 0 0 0 17 11 32 0 16 0 0 0
0 0 0 2 84 48 22 4 0 96 5 0 0 0 0 0 0 11 0 2 0 0 0 0 0 0 0 5 5 0 0 0 0 0 0 2 27 84 0 0 0 5 97 0 0 36 54 47 0
0 0 0 2 17 11 20 4 4 84 100 3 0 0 0 0 0 0 0 0 0 0 0 0 2 2 24 1 4 1 0 0 0 33 0 37 18 0 0 0 0 0 1 0 19 24 7 0 0
0 0 0 2 98 98 32 24 6 99 27 0 0 0 0 0 0 0 0 0 0 0 0 0 2 0 2 0 0 0 0 2 4 0 62 0 0 0 0 0 0 0 68 2 20 3 0 0 0
0 0 0 38 100 84 83 58 26 77 1 0 0 0 0 0 0 0 0 0 0 0 0 0 0 0 0 0 0 0 0 0 0 0 0 0 24 0 0 0 0 0 0 0 0 0 0 0 0
0 0 0 40 76 37 82 95 24 81 46 30 0 0 0 0 0 0 0 0 0 0 0 0 0 0 0 0 0 0 0 0 0 5 67 100 2 0 0 0 0 0 0 5 0 0 0 0 0
0 0 0 3 71 77 84 37 88 24 5 2 5 4 0 0 0 0 0 0 0 0 0 0 0 0 0 0 0 0 0 0 0 0 0 32 11 0 0 0 0 0 0 2 0 0 0 0 0
0 0 0 3 86 39 53 100 16 66 100 100 18 5 2 0 0 0 0 0 0 0 0 0 0 0 0 0 0 0 0 0 0 0 16 96 0 0 0 0 0 0 0 1 4 5 5 2 0
0 0 0 5 65 84 4 81 69 21 74 95 6 13 19 60 0 0 0 0 0 0 0 0 0 0 0 0 0 0 0 0 0 0 0 0 0 0 0 0 0 1 5 5 5 9 5 5 5
0 0 0 0 2 0 5 2 2 96 72 37 4 29 13 71 3 0 2 0 0 0 0 0 0 0 0 0 0 0 0 0 0 0 0 0 0 0 0 0 0 5 5 9 87 86 9 5 8
0 0 0 0 0 0 0 0 0 31 80 97 91 69 82 100 99 5 4 0 0 0 0 0 0 0 0 0 0 0 0 0 0 0 0 0 0 0 0 0 0 0 11 5 9 5 5 2 5
0 0 0 0 0 0 0 0 0 5 59 100 100 9 66 100 100 86 5 0 0 0 0 0 0 0 0 0 0 0 0 0 0 0 0 0 0 0 0 0 0 0 0 1 1 5 5 2 0
0 0 0 0 0 0 0 0 0 1 18 5 5 66 5 87 100 45 5 0 0 0 0 0 0 0 0 0 0 0 0 0 0 0 0 0 0 0 0 0 0 0 4 5 5 5 5 5 4
0 0 0 0 0 0 0 0 0 1 70 10 5 17 5 22 87 0 0 0 0 0 0 0 0 0 0 0 0 0 0 0 0 0 0 0 0 0 0 0 0 0 0 0 22 5 5 5 5
0 0 0 0 0 0 0 1 0 5 38 100 14 18 43 8 41 16 3 0 0 0 0 0 0 0 0 0 0 0 0 0 0 0 0 0 0 0 0 0 0 0 0 5 6 4 6 87 77

GFSSGP_prec_cloud_018.txt.gz
Cloud_Cover
100 100 100 100 100 100 100 100 97 97 100 93 94 70 100 73 100 100 100 90 100 97 92 51 84 5 4 4 1 0 34 44 56 100 74 0 0 0 0 0 0 0 3 5 77 21 6 2 5
82 100 100 100 100 100 100 100 100 100 100 84 48 70 82 77 100 100 100 100 100 99 99 54 83 19 0 6 47 55 64 86 95 1 0 0 0 0 0 0 1 8 17 5 5 57 17 5 4
99 100 100 100 100 100 100 100 100 91 62 100 100 100 100 100 100 100 98 83 99 98 89 70 9 4 7 100 100 100 100 99 23 0 0 0 0 3 4 0 0 3 1 4 7 5 8 5 4
100 82 100 100 100 100 100 100 100 100 99 77 100 100 100 100 100 100 100 100 79 81 5 0 1 20 89 5 5 75 1 0 0 0 0 0 0 0 0 0 0 0 0 0 1 5 5 5 0
14 99 100 100 100 100 54 68 29 91 100 100 100 100 100 82 31 0 0 3 0 0 0 3 5 5 3 5 12 2 0 0 0 0 0 0 0 0 0 3 5 4 15 0 0 0 3 5 0
90 100 100 100 100 100 100 100 100 100 100 100 100 29 16 7 2 0 0 0 0 3 75 6 0 0 0 0 0 0 0 0 0 0 0 0 0 0 0 0 6 72 100 3 0 0 0 2 17
98 38 56 100 100 67 100 100 79 68 81 100 94 8 4 5 0 0 0 5 3 1 1 2 1 0 0 0 0 0 0 0 0 0 0 0 0 5 5 90 76 100 100 2 0 0 0 4 5
53 100 10 98 93 88 100 100 100 100 100 97 100 90 18 0 0 0 0 0 0 0 0 0 0 0 0 0 0 0 0 0 0 0 1 14 100 100 83 100 100 100 99 11 0 0 0 0 0
78 68 84 23 51 99 100 100 100 100 100 99 41 6 4 5 1 0 0 0 0 0 0 0 0 0 1 0 0 0 0 0 0 0 5 88 24 10 5 91 69 100 68 4 0 0 0 0 0
98 22 20 8 92 80 98 100 97 50 1 0 1 0 0 0 0 0 0 0 0 0 0 0 0 0 0 0 0 0 0 0 0 0 3 20 38 76 5 4 5 2 3 5 0 0 0 0 0
4 5 81 28 65 1 11 0 2 2 0 0 0 0 0 0 0 0 0 0 0 0 0 0 0 0 0 0 1 7 0 0 0 4 5 10 28 7 5 4 0 1 0 0 45 1 1 2 18
1 5 39 100 100 5 1 0 5 0 0 0 0 0 0 0 0 0 0 0 0 0 0 0 0 0 0 0 0 0 0 0 0 0 0 0 2 5 2 7 0 0 0 0 0 0 84 0 0
5 10 6 98 100 95 13 5 9 68 0 0 0 0 0 0 0 0 0 0 0 0 0 0 0 0 0 0 0 0 0 0 0 0 0 0 0 0 0 2 0 0 0 66 1 19 40 48 0
0 0 6 46 5 97 90 21 5 24 0 0 0 0 0 0 0 0 0 0 0 0 0 0 0 0 0 0 0 0 0 0 0 70 72 69 0 26 0 0 0 0 0 16 2 0 59 58 0
0 0 0 0 2 100 12 58 40 35 26 0 0 0 0 0 0 0 0 3 0 0 0 0 0 0 0 0 0 0 0 4 53 26 66 0 0 0 0 0 0 0 8 33 0 0 29 1 43
0 0 0 3 38 0 5 4 17 95 83 79 0 0 0 0 0 1 3 5 0 0 0 0 0 0 0 0 0 13 99 1 23 13 0 0 0 0 4 0 0 0 3 0 0 0 0 0 74
0 0 0 0 23 44 39 35 5 12 58 0 0 0 0 0 0 0 0 0 0 0 0 0 0 0 0 0 2 0 17 2 11 0 0 0 3 0 0 0 0 0 24 68 0 51 36 68 0
0 0 0 0 37 5 16 43 5 60 95 4 1 0 0 0 0 0 0 0 0 0 0 0 0 4 5 0 0 0 0 0 0 0 0 0 0 0 0 0 0 0 0 0 7 12 0 0 0
0 0 3 0 52 70 10 91 99 5 8 100 0 0 0 0 0 0 0 0 0 0 0 0 2 5 2 0 0 0 0 0 0 0 0 0 0 0 0 0 0 0 0 0 0 0 0 0 0
0 0 0 2 2 5 70 50 90 19 8 6 1 0 0 0 0 0 0 0 0 0 0 3 0 0 0 0 0 0 0 0 0 0 0 0 0 8 0 0 0 0 0 0 0 0 0 0 0
0 0 0 0 4 0 10 100 22 79 5 5 0 0 0 0 0 0 0 0 0 0 0 0 0 0 0 0 0 0 0 0 0 0 0 0 9 10 0 0 0 0 0 0 0 0 0 0 0
0 0 0 5 2 4 90 100 29 6 5 5 1 0 0 0 0 0 0 0 0 0 0 0 0 0 0 0 0 0 0 0 0 0 0 0 18 0 0 0 0 0 0 0 0 0 1 0 0
0 0 0 39 37 6 12 45 74 93 5 4 4 0 0 0 0 0 0 0 0 0 0 0 0 0 0 0 0 0 0 0 0 0 0 0 1 0 0 0 0 0 0 0 0 3 0 0 1
0 0 0 0 61 34 2 2 0 1 14 5 5 10 2 0 0 0 0 0 0 0 0 0 0 0 0 0 0 0 0 0 0 0 0 1 2 0 0 0 0 2 1 0 4 2 0 2 4
0 0 0 0 2 20 0 4 0 1 2 81 87 100 90 5 3 0 0 0 0 0 0 0 0 0 0 0 0 0 0 0 0 0 0 0 0 5 0 0 0 0 0 0 0 0 0 0 0
0 0 0 0 0 0 0 1 0 0 5 5 5 41 12 4 90 60 42 2 2 0 0 0 0 0 0 0 0 0 0 0 0 0 0 0 0 0 0 0 0 0 0 0 0 0 0 0 1
0 0 0 0 0 0 0 0 0 0 5 0 5 5 21 71 79 100 90 100 11 0 0 0 0 0 0 0 0 0 0 0 0 0 0 0 0 0 0 0 0 0 0 0 4 4 0 0 0
0 0 0 0 0 0 0 0 0 0 0 5 3 0 0 4 45 29 100 100 70 10 0 0 0 0 0 0 0 0 0 0 0 0 0 0 0 0 0 0 0 0 0 0 2 5 4 3 4
0 0 0 0 0 0 0 0 0 0 0 0 0 4 5 0 0 21 80 88 100 100 0 0 0 0 0 0 0 0 0 0 0 0 0 0 0 0 0 0 0 0 0 1 5 5 4 5 5
0 0 0 0 0 0 0 1 0 0 0 3 3 0 11 5 5 6 30 94 100 94 1 0 0 0 0 0 0 0 0 0 0 0 0 0 0 0 0 0 0 0 5 5 3 0 5 5 5

GFSSGP_prec_cloud_021.txt.gz
Cloud_Cover
99 100 100 100 98 100 99 93 100 36 50 98 95 65 96 100 100 57 92 100 100 100 67 62 100 95 51 5 5 5 6 100 96 86 0 0 0 0 0 0 0 0 5 3 37 9 5 3 5
70 100 100 98 99 66 97 100 88 89 98 86 100 97 100 100 100 100 100 100 100 100 100 91 5 5 6 5 5 19 8 25 2 0 0 0 0 0 0 0 0 0 0 22 5 25 1 2 5
63 95 100 100 100 95 100 100 100 94 100 100 100 100 100 100 100 100 100 100 100 86 7 3 4 1 0 0 2 5 18 0 0 0 0 0 0 0 0 0 0 14 2 5 5 5 2 15 6
39 93 100 100 98 100 63 100 97 100 92 100 65 52 100 100 100 100 100 96 21 2 0 0 0 0 0 0 0 3 0 0 0 0 0 0 0 4 2 5 6 86 0 5 5 0 2 5 16
80 50 100 100 100 100 78 48 86 99 40 42 38 97 97 100 99 98 100 100 4 0 0 0 1 4 0 0 0 0 0 0 0 0 0 0 1 8 52 50 90 20 0 0 0 0 0 0 3
29 54 100 96 100 100 100 38 59 9 48 20 50 83 100 100 100 100 40 1 0 0 1 0 5 4 0 0 0 0 0 0 0 0 0 4 50 100 93 100 73 3 5 0 0 0 0 2 5
5 26 74 82 72 96 56 86 100 100 99 98 100 100 100 88 100 99 5 0 0 0 0 4 2 0 0 0 0 0 0 0 0 0 4 23 100 100 99 100 32 5 5 0 0 0 0 0 2
5 12 9 99 82 82 41 38 5 10 100 100 100 100 100 100 29 1 0 0 0 1 0 0 0 0 0 0 0 0 0 0 1 13 7 14 55 42 90 6 5 5 3 0 0 0 0 0 0
44 6 9 5 54 100 91 36 14 46 100 98 99 100 40 0 3 0 0 1 17 22 2 0 1 2 2 0 0 0 0 0 0 4 64 5 48 6 5 5 0 0 0 0 0 0 0 0 0
5 9 69 40 12 3 43 100 100 82 75 99 100 100 14 0 0 0 19 25 34 21 27 1 12 15 10 0 0 0 0 0 0 2 2 5 5 2 5 4 5 0 0 0 0 0 0 0 0
5 5 11 42 77 100 97 6 30 40 5 7 0 0 0 0 0 0 0 0 0 0 2 14 5 25 1 0 9 22 11 4 7 0 1 0 3 18 5 32 5 5 0 0 0 0 0 0 0
81 8 9 70 100 77 5 1 0 12 1 0 0 0 0 0 0 0 0 0 0 0 0 0 1 24 3 0 17 12 4 14 14 0 0 0 2 4 5 3 2 3 0 7 0 0 57 0 0
7 80 9 98 100 39 5 1 2 2 6 0 0 0 0 0 0 0 0 0 0 0 0 0 0 2 1 0 9 24 24 10 0 0 0 0 0 0 0 0 0 0 0 51 1 11 0 0 0
5 5 4 16 93 38 73 34 5 4 5 7 0 0 0 0 0 0 0 0 0 0 0 0 0 0 0 0 0 1 1 0 0 8 15 66 0 0 0 0 0 0 0 16 1 10 45 88 54
0 0 0 1 7 7 6 1 3 5 74 95 5 0 0 0 0 0 0 0 1 0 0 0 0 0 0 0 0 0 0 0 0 56 100 11 0 0 2 0 0 0 0 0 0 0 2 97 18
0 0 0 0 1 0 3 0 0 2 51 7 18 5 0 0 0 0 0 0 0 0 0 0 0 0 0 0 0 0 0 0 0 9 13 0 0 1 8 4 0 0 0 1 1 0 0 0 88
0 0 0 0 0 0 0 0 0 5 62 74 64 0 0 0 0 0 0 0 0 0 0 0 0 0 0 0 0 0 0 0 0 0 0 0 0 0 0 0 0 0 0 0 21 0 0 0 0
0 0 0 1 0 0 0 0 0 5 46 100 3 0 0 0 0 0 0 0 0 0 0 0 0 0 0 0 0 0 0 0 0 0 0 0 0 0 0 0 0 0 0 0 0 0 0 0 0
0 0 0 5 4 0 4 0 2 5 100 43 92 4 0 0 0 0 0 0 0 0 0 0 0 5 0 0 0 0 0 0 0 0 0 0 0 0 0 0 0 0 0 0 0 0 0 0 0
0 0 0 44 5 0 1 4 5 5 39 100 5 5 0 0 0 0 0 0 0 0 0 0 4 5 0 0 0 0 0 0 0 0 0 0 0 0 0 0 0 0 0 0 0 0 0 0 0
0 0 0 3 2 5 0 4 1 1 8 97 2 4 0 0 0 0 0 0 0 0 0 0 0 0 0 0 0 0 0 0 0 0 0 0 0 0 7 13 0 0 0 0 0 0 0 0 0
0 0 0 3 12 94 9 0 5 1 7 3 98 0 0 0 0 0 0 0 0 0 0 0 0 0 0 0 0 0 0 0 0 0 0 0 0 5 0 0 0 0 7 0 1 0 0 0 0
0 0 0 2 5 70 2 0 0 0 1 4 98 0 2 0 0 0 0 0 0 0 0 0 0 0 0 0 0 0 0 0 0 0 0 0 0 0 0 0 0 0 0 0 0 0 0 0 2
0 0 0 0 2 4 0 0 0 0 0 4 0 1 16 1 0 0 0 0 0 0 0 0 0 0 0 0 0 0 0 0 0 0 0 0 10 7 0 0 0 0 0 0 0 0 0 0 5
0 0 0 0 0 4 0 0 0 0 0 0 2 8 5 5 5 2 7 3 0 0 0 0 0 0 0 0 0 0 0 0 0 0 0 3 20 11 1 0 2 0 0 0 0 0 0 0 3
0 0 0 0 0 0 0 0 0 0 0 0 2 5 5 97 4 5 7 3 2 0 0 0 0 0 0 0 0 0 0 0 0 0 0 0 0 0 0 0 0 0 0 0 0 0 0 0 0
0 0 0 0 0 0 0 4 0 0 0 16 3 11 99 96 74 5 5 6 98 18 72 0 0 0 0 0 0 0 0 0 0 0 0 0 0 0 0 0 0 0 0 0 0 5 5 4 0
0 0 0 0 0 0 0 0 0 0 0 49 5 1 22 4 5 27 5 21 52 79 7 4 2 0 0 0 0 0 0 0 0 0 0 0 0 0 0 0 0 0 0 0 0 1 5 5 2
0 0 0 0 0 0 0 0 0 0 0 0 4 0 0 1 0 7 5 7 22 84 83 95 95 79 0 0 0 0 0 0 0 0 0 0 0 0 0 0 0 0 0 0 0 0 0 2 4
0 0 0 0 0 0 0 0 0 0 0 0 0 4 0 0 2 3 94 100 31 46 86 99 100 100 1 0 0 0 0 0 0 0 0 0 0 0 0 0 0 0 0 0 0 0 0 5 4

GFSSGP_prec_cloud_024.txt.gz
Cloud_Cover
97 34 51 93 99 89 100 100 100 66 82 43 5 38 94 78 100 100 100 100 100 100 100 100 99 100 9 4 0 3 5 0 1 0 0 0 0 0 0 3 0 0 0 1 4 3 2 38 63
7 48 92 71 86 100 91 21 96 53 100 100 96 95 88 90 100 88 100 100 100 100 100 100 25 2 0 2 0 0 0 0 0 0 0 2 0 0 0 0 0 0 0 0 2 5 76 78 71
65 88 100 99 92 100 96 100 84 100 100 100 87 99 100 84 76 100 100 100 100 100 94 26 0 0 5 2 0 0 0 0 3 2 0 0 3 0 5 4 6 0 0 0 0 9 2 28 71
100 100 100 100 100 100 100 100 100 100 75 55 100 99 100 100 100 100 100 100 100 23 0 1 3 5 5 0 11 2 0 0 1 0 0 0 2 5 5 39 16 10 0 10 4 0 3 5 6
14 28 99 100 100 96 99 82 100 94 97 98 54 44 47 72 13 76 100 100 83 2 0 0 5 3 1 0 4 0 0 0 0 0 0 3 4 48 56 5 3 1 0 0 0 0 0 5 5
80 32 73 98 67 82 53 100 62 6 76 100 82 33 75 25 94 100 90 10 0 0 0 1 0 0 0 0 0 0 0 0 0 1 1 36 24 5 4 4 4 8 0 0 0 0 0 0 2
32 86 6 75 45 11 3 5 4 87 100 99 100 99 100 84 98 11 3 0 0 0 0 0 0 0 0 0 0 0 0 0 2 0 4 54 9 1 0 0 0 0 0 0 0 0 0 0 0
96 7 14 52 47 5 3 12 6 36 20 5 5 61 86 100 100 5 0 0 0 0 0 0 0 0 0 0 0 0 0 3 5 35 5 5 5 4 0 0 1 0 0 0 0 0 0 0 0
38 10 8 2 4 5 10 99 96 96 99 76 83 80 94 78 96 3 15 18 42 38 20 3 0 0 0 0 0 0 0 3 4 1 1 4 3 1 1 5 0 0 0 0 0 0 0 0 0
84 97 26 58 0 2 5 5 43 57 64 67 48 42 10 5 67 48 54 42 48 47 61 15 9 1 8 0 0 0 0 5 5 1 0 0 0 5 5 5 4 0 5 4 1 0 0 0 0
5 100 100 100 24 1 4 5 5 1 1 2 5 1 0 0 0 28 21 5 11 18 47 35 15 10 11 0 4 14 2 0 0 0 4 0 0 0 0 0 0 0 7 4 2 0 0 0 0
5 5 5 2 5 3 0 5 5 50 5 1 0 0 0 0 0 0 0 0 0 9 14 25 27 46 27 12 16 14 14 10 12 1 0 0 0 0 0 0 0 0 0 0 0 0 58 0 0
5 5 12 5 5 5 2 0 3 5 53 36 4 1 0 0 0 0 0 0 0 1 1 9 38 61 41 13 28 26 25 14 0 0 0 0 0 0 0 0 0 0 0 8 0 4 6 32 64
5 5 8 16 81 57 0 0 0 4 5 34 22 5 0 0 0 0 0 0 0 0 0 0 14 34 36 4 22 19 24 7 0 0 0 0 0 0 0 0 0 0 0 35 5 45 44 99 84
5 5 5 39 52 98 5 0 0 5 5 94 63 7 0 0 0 0 0 0 0 0 0 0 0 2 12 0 0 21 4 0 0 0 0 100 0 0 0 0 0 0 0 1 53 5 0 0 54
0 2 6 5 13 2 0 3 5 5 5 79 80 8 0 0 0 0 0 0 0 0 0 0 0 0 0 0 0 0 0 0 0 0 72 98 2 0 0 0 0 0 0 0 0 0 0 0 90
0 0 1 0 0 0 2 1 5 5 5 9 85 0 0 0 0 0 0 0 0 0 0 0 0 0 0 0 0 0 0 0 0 0 0 12 0 0 0 0 0 0 0 0 0 0 0 0 11
0 0 0 0 0 0 0 0 0 5 22 5 87 8 0 0 0 0 0 0 0 0 0 0 0 0 0 0 0 0 0 0 0 0 0 0 0 0 0 0 0 0 0 0 0 0 0 0 0
0 0 0 0 0 0 0 0 3 5 32 5 31 100 2 0 0 0 0 0 0 0 0 0 0 0 0 0 1 3 0 0 0 0 0 0 0 0 0 0 0 0 0 0 0 0 0 0 0
0 0 0 0 0 0 0 1 0 4 52 23 99 99 76 0 0 0 0 0 0 0 0 0 0 0 0 0 0 0 0 0 0 0 0 0 0 0 0 0 0 0 0 0 0 0 0 0 0
0 0 0 0 0 2 0 0 4 7 5 4 5 84 54 1 0 0 0 0 0 0 0 0 0 0 0 0 0 0 0 0 0 0 0 0 0 0 0 0 0 0 0 0 0 0 0 0 1
0 0 0 0 2 2 3 0 0 2 5 63 5 5 4 0 0 0 0 0 0 0 0 0 0 0 0 0 0 0 0 0 0 0 0 0 0 0 0 0 0 0 0 0 0 0 0 0 0
0 0 0 0 0 0 1 0 0 0 5 3 5 5 0 0 0 0 0 0 0 0 0 5 0 0 0 0 0 0 0 0 0 0 0 0 0 0 0 0 0 0 0 0 0 0 0 0 0
0 0 0 0 0 3 0 0 0 0 5 84 5 2 3 0 0 0 0 0 0 0 0 0 0 0 0 0 0 0 0 0 0 0 0 0 0 0 0 0 0 0 0 0 0 0 0 0 1
0 0 0 0 0 15 0 0 0 0 5 65 3 4 5 1 0 0 0 2 0 0 0 0 0 0 0 0 0 0 0 0 0 0 0 0 0 13 0 0 0 0 0 0 0 0 0 0 0
0 0 0 0 0 0 0 74 0 0 43 80 2 16 48 5 4 0 5 5 0 1 3 0 0 2 0 0 0 0 0 0 0 0 0 0 0 0 0 0 0 0 0 0 0 0 0 0 0
0 0 0 0 0 0 0 0 5 1 3 85 37 60 5 5 0 2 5 5 5 5 5 2 0 0 0 0 0 0 0 0 0 0 0 0 0 0 0 0 0 0 0 0 0 0 0 0 0
0 0 0 0 0 0 0 0 0 0 0 0 25 3 4 6 58 72 2 2 3 48 20 0 0 5 0 0 0 0 0 0 0 0 0 0 0 0 0 0 0 0 0 0 0 0 0 0 2
0 0 0 0 0 0 0 0 0 0 0 0 0 5 31 5 5 100 59 26 4 4 4 6 36 28 4 0 5 31 0 0 0 0 0 0 0 0 0 0 0 0 0 0 0 0 0 0 0
0 0 0 0 0 0 0 0 0 0 0 0 0 0 25 89 1 2 4 48 26 1 5 1 11 71 22 42 77 100 99 0 0 0 0 0 0 0 0 0 0 0 0 0 0 0 0 0 0

GFSSGP_prec_cloud_027.txt.gz
Cloud_Cover
88 80 65 75 87 100 100 100 100 100 100 95 10 96 95 100 100 100 100 100 100 100 100 100 100 100 92 29 1 5 1 0 0 0 0 2 3 3 2 2 0 0 4 11 4 5 0 15 55
81 68 86 88 85 100 100 97 100 59 25 33 49 100 82 100 100 99 100 100 100 100 100 26 36 5 11 0 1 0 0 0 0 0 2 8 4 7 0 1 0 0 3 1 5 5 52 92 86
100 83 75 79 48 16 59 98 56 39 13 37 73 93 97 96 80 93 75 100 100 100 73 4 5 3 0 0 0 0 0 0 2 1 0 6 0 1 2 0 0 0 0 2 2 5 3 75 90
100 95 100 100 100 84 25 42 6 71 59 100 70 99 43 58 99 86 100 100 100 10 0 0 0 0 0 0 0 0 0 2 0 0 0 0 0 3 8 2 0 40 0 0 0 0 2 5 10
96 88 98 9 6 5 5 5 5 100 100 46 100 93 100 99 100 100 67 76 63 3 0 0 0 0 0 0 0 0 0 0 4 4 2 1 0 0 0 16 0 0 0 0 0 2 3 0 13
32 17 53 5 5 5 1 4 11 7 6 8 100 79 99 92 88 87 82 100 27 2 12 11 0 0 0 100 2 0 0 0 2 2 2 0 0 0 0 3 5 0 0 0 0 0 0 0 0
6 5 48 23 5 5 5 14 5 5 5 6 5 38 94 100 67 68 43 52 16 6 20 1 0 0 0 4 0 0 0 0 0 0 0 0 0 0 0 0 0 0 0 0 0 0 0 0 0
49 8 5 5 5 3 5 4 5 2 5 5 5 10 88 100 48 41 59 26 32 42 15 0 0 0 0 0 0 0 0 5 0 0 0 0 0 0 0 0 0 0 0 0 0 0 0 0 0
5 6 4 5 5 4 2 0 0 1 0 0 2 3 5 39 77 100 59 63 70 72 12 0 0 0 2 0 0 0 0 0 0 0 0 0 0 0 0 0 0 1 1 1 0 0 0 0 0
13 5 3 0 5 5 5 0 0 0 0 0 0 0 4 66 49 36 31 47 58 54 19 0 0 0 0 0 0 0 0 0 0 0 0 0 0 0 0 0 0 0 0 0 0 0 0 0 0
5 5 2 0 2 5 4 4 0 0 0 0 0 0 0 11 23 1 0 3 0 1 0 0 0 0 0 0 0 0 0 0 0 0 0 0 0 0 0 0 0 0 0 0 0 0 0 0 0
5 5 7 5 2 3 5 4 5 5 4 5 0 0 0 0 0 0 0 0 0 0 0 0 0 0 0 0 0 0 0 0 0 0 0 0 0 0 0 0 0 0 0 0 0 0 4 0 13
5 14 5 1 0 0 5 4 5 5 60 6 3 0 0 0 0 0 0 0 0 0 0 0 0 0 0 6 0 0 0 0 0 0 0 0 0 0 0 0 0 0 0 0 0 6 0 78 86
4 4 5 3 0 2 3 0 0 4 5 34 5 4 0 0 0 0 0 0 0 0 0 0 0 1 0 0 0 0 0 0 0 0 0 0 0 0 0 0 0 0 0 0 42 2 19 95 81
5 0 1 3 3 4 0 0 5 5 5 6 78 52 1 0 0 0 0 0 0 0 0 0 0 3 30 3 0 0 0 0 0 0 0 0 0 0 0 0 0 0 0 0 73 88 11 0 72
4 4 0 8 17 9 2 0 5 5 5 5 66 68 1 0 0 0 0 0 0 0 0 0 0 0 5 3 0 0 0 0 0 0 0 0 2 0 0 0 0 0 0 0 0 0 0 0 73
0 0 0 2 40 20 3 0 5 5 5 5 82 48 0 0 0 0 0 0 0 0 0 0 0 0 0 3 0 0 0 0 0 0 0 0 8 0 0 0 0 0 0 0 0 0 0 0 10
0 0 0 0 1 2 0 0 5 6 5 5 5 85 3 0 0 0 0 0 0 0 0 0 0 0 0 0 2 0 0 0 0 0 0 0 0 0 0 0 0 0 0 0 0 0 0 0 0
0 0 0 5 0 0 2 1 5 10 5 5 81 22 83 4 0 0 0 0 0 0 0 0 0 0 0 0 0 0 0 0 0 0 0 0 0 0 0 0 0 0 0 0 0 0 0 0 0
0 0 0 1 0 0 0 0 0 5 4 4 20 52 91 9 8 0 0 0 0 0 0 0 0 0 0 0 0 0 0 0 0 0 0 0 0 0 0 0 0 0 0 0 0 0 0 0 0
0 0 0 0 0 0 0 0 0 14 60 5 70 1 46 76 1 0 0 0 0 0 0 0 0 0 0 0 0 0 0 0 0 0 0 0 0 0 0 0 0 0 0 0 0 0 0 0 0
0 0 0 0 0 0 0 0 0 4 5 1 26 0 1 0 0 0 0 0 0 0 0 0 0 0 0 0 0 0 0 0 0 0 0 0 0 0 0 0 0 0 0 0 0 0 0 0 0
0 0 0 0 0 0 0 0 0 0 2 5 5 2 0 0 0 0 0 0 0 0 0 0 0 0 0 0 0 0 0 0 0 0 0 0 0 0 0 0 0 0 0 0 0 0 0 0 0
0 0 0 0 0 0 3 0 0 0 6 59 5 27 0 0 0 0 0 0 0 0 0 0 0 0 0 0 0 0 0 0 0 0 0 0 0 0 0 0 0 0 0 0 0 0 0 0 0
0 0 0 0 0 0 0 0 0 0 3 5 2 49 1 0 0 0 0 0 0 0 0 0 0 0 0 0 0 0 0 0 0 0 0 0 0 0 0 0 0 0 0 0 0 0 0 0 0
0 0 0 0 0 0 0 0 0 0 5 5 5 24 4 0 0 0 0 0 0 0 0 0 0 0 0 0 0 0 0 0 0 0 0 0 0 0 0 0 0 0 0 0 0 0 0 0 0
0 0 0 0 0 0 0 0 0 0 0 5 3 4 0 0 0 0 0 0 0 0 0 0 0 0 0 0 0 0 0 0 0 0 0 0 0 0 0 0 0 0 0 0 0 0 0 0 0
0 0 0 0 0 0 0 0 0 0 0 9 5 0 1 0 0 0 0 0 0 0 4 0 0 0 0 0 0 0 0 0 0 0 0 0 0 0 0 0 0 0 0 0 0 0 0 0 0
0 0 0 0 0 0 0 0 0 0 0 3 2 5 12 6 1 6 20 75 46 37 5 5 0 0 0 0 0 0 2 0 0 2 0 0 0 0 0 0 0 0 0 0 0 0 0 0 0
0 0 0 0 0 0 0 0 0 0 0 0 0 5 7 5 56 97 93 97 94 93 19 5 2 2 5 5 5 7 20 6 73 94 80 0 0 0 0 0 0 0 0 0 0 0 0 0 0

GFSSGP_prec_cloud_030.txt.gz
Cloud_Cover
53 47 81 98 100 92 84 100 100 100 100 100 77 90 99 100 100 100 94 100 99 100 100 58 96 25 10 11 1 0 0 0 0 0 0 0 0 0 0 0 1 2 4 0 2 4 5 27 28
98 73 36 98 78 100 97 100 100 98 80 59 40 12 50 46 95 60 89 92 100 94 66 30 19 6 5 3 0 0 0 0 4 9 2 3 0 0 0 0 0 0 1 0 20 10 6 45 98
100 45 100 98 68 100 98 100 100 92 94 55 15 66 87 99 96 76 87 100 87 100 47 18 2 0 0 0 0 0 0 0 4 1 1 0 2 0 0 0 0 0 5 0 3 5 35 89 74
80 84 15 100 100 100 100 97 100 61 29 5 45 100 52 100 78 73 100 97 30 53 98 0 11 2 0 0 0 0 0 0 0 5 0 0 0 0 0 0 0 0 0 4 5 5 5 5 100
68 78 60 99 70 39 21 16 93 98 81 96 67 100 60 99 100 100 96 100 100 100 71 0 0 0 0 0 0 0 0 0 0 2 0 0 3 8 0 0 0 0 0 0 0 1 2 4 96
90 58 95 100 7 5 5 16 73 55 15 49 29 82 95 100 87 100 90 100 100 100 28 0 0 0 0 0 0 0 0 0 0 2 0 0 0 0 0 0 0 0 0 0 0 0 0 0 0
8 13 60 74 28 3 3 6 23 17 5 6 46 30 88 100 97 76 81 100 100 98 10 0 0 0 0 0 0 0 0 0 0 3 0 0 0 0 0 0 0 0 0 0 0 0 0 0 3
56 5 60 100 100 89 82 15 4 0 5 8 0 1 90 100 78 58 62 100 100 54 4 0 0 0 0 0 0 5 0 0 0 0 0 0 0 0 0 0 0 0 0 0 0 0 0 0 0
76 10 72 74 97 70 37 29 0 0 0 0 0 0 2 52 93 66 99 100 100 54 1 0 0 0 0 0 0 0 0 0 0 0 0 2 91 81 87 0 0 0 0 0 0 0 0 0 0
82 74 48 3 4 3 0 0 0 0 0 0 0 0 0 39 100 58 96 100 97 50 1 0 0 0 0 0 0 0 0 0 0 11 4 96 33 25 35 0 0 0 0 0 0 0 0 10 22
6 86 5 5 1 0 0 0 0 0 0 0 0 0 0 18 32 78 66 66 18 10 0 0 0 0 0 0 0 0 0 0 0 2 15 39 12 11 93 80 29 9 0 78 82 100 100 24 28
5 3 4 2 2 0 0 0 0 0 0 0 0 0 0 0 1 4 30 3 26 16 0 0 0 0 0 0 0 0 0 0 0 0 0 2 17 27 48 82 1 1 33 8 41 100 10 100 63
5 5 5 4 2 4 0 4 5 5 5 2 0 0 0 0 2 6 19 20 10 1 0 0 0 0 0 0 0 0 0 0 0 0 0 4 30 15 32 21 28 10 26 88 55 19 62 5 100
5 5 5 4 0 1 0 0 0 5 5 5 4 0 0 0 0 0 0 0 0 0 0 0 0 0 0 0 0 0 0 0 0 0 0 0 0 0 36 21 55 84 72 100 18 7 57 0 50
5 5 4 5 5 5 0 1 5 5 5 5 5 3 0 0 0 0 0 0 0 0 0 0 0 0 0 0 0 0 0 0 0 0 0 0 0 0 100 34 50 60 34 0 3 2 35 100 25
0 0 0 5 1 5 0 37 6 5 5 5 5 4 0 0 0 0 0 0 0 0 0 0 0 0 0 0 0 0 0 0 0 0 0 0 0 0 2 0 0 29 23 0 58 6 6 7 46
0 0 0 5 2 5 3 12 5 5 5 6 5 5 0 0 0 0 0 0 0 0 0 0 0 0 0 0 0 0 0 0 0 0 0 0 0 0 0 56 83 6 63 29 8 62 3 5 17
0 0 2 3 5 6 40 5 5 5 5 5 5 5 2 0 0 0 0 0 0 1 0 0 0 0 1 1 1 0 0 0 0 0 0 0 0 0 0 15 1 0 66 95 57 2 0 2 6
0 0 0 0 5 27 85 5 5 20 5 5 0 5 5 0 0 0 0 0 0 0 0 0 1 0 0 0 0 0 0 0 0 0 0 0 0 0 0 5 0 5 22 8 6 15 1 0 19
0 0 0 0 5 5 25 6 5 5 5 5 5 5 5 7 2 0 0 0 0 0 0 0 0 0 2 0 0 0 0 0 0 0 0 0 0 0 0 30 13 4 40 0 10 0 2 0 0
0 0 0 0 2 0 0 0 5 7 5 5 0 0 3 1 10 0 0 0 0 0 0 0 0 0 3 0 0 0 0 0 0 0 0 0 0 0 0 4 0 8 0 52 4 5 0 0 0
0 0 0 0 0 1 0 0 5 26 5 0 0 5 1 5 0 0 0 0 0 0 0 0 0 0 10 0 0 0 0 0 0 0 0 0 0 0 0 0 0 0 0 18 1 22 0 0 0
0 0 0 0 0 0 0 0 0 0 0 0 4 5 1 0 0 0 0 0 5 0 0 0 0 0 0 0 0 0 0 0 0 0 0 0 0 0 0 0 0 0 0 4 2 5 0 0 0
0 0 0 0 0 0 0 0 0 0 0 0 5 5 0 0 0 0 0 0 0 0 0 0 0 0 0 0 0 0 0 0 0 0 0 0 0 0 0 0 0 0 0 0 32 34 0 0 0
0 0 0 0 0 0 0 0 0 0 0 1 5 5 4 5 0 0 0 0 0 0 0 0 0 0 0 0 0 0 0 0 0 0 0 0 0 0 0 0 0 0 0 0 5 41 2 0 0
0 0 0 0 0 0 0 0 0 0 0 5 5 5 1 2 0 0 0 0 0 0 0 0 0 0 0 0 0 0 0 0 0 0 0 0 0 0 0 0 0 0 0 0 1 7 0 0 0
0 0 0 0 0 0 0 0 0 0 0 5 5 0 0 0 0 0 0 0 0 0 0 0 0 0 0 0 0 0 0 0 0 0 0 0 0 0 0 0 0 0 0 0 0 0 0 0 0
0 0 0 0 0 0 0 0 0 0 0 3 2 0 0 0 0 0 0 0 0 0 0 0 0 0 0 0 0 0 0 0 0 0 0 0 0 0 0 0 0 0 0 0 0 0 0 0 0
0 0 0 0 0 0 0 0 0 0 0 0 0 0 0 0 0 0 0 0 0 0 0 0 0 0 0 0 0 0 0 0 0 0 0 5 76 87 0 0 0 0 0 0 0 0 0 0 0
0 0 0 0 0 0 0 0 0 0 0 0 0 0 0 0 4 4 0 0 0 0 0 0 5 0 0 0 0 0 0 0 0 5 5 30 100 99 13 0 4 5 5 5 2 0 0 0 0

GFSSGP_prec_cloud_033.txt.gz
Cloud_Cover
12 43 54 100 90 100 99 100 100 100 100 100 100 91 89 24 97 89 97 100 100 100 100 98 34 2 0 4 3 0 0 0 0 0 0 0 3 0 0 1 1 2 2 2 5 5 5 5 5
100 93 64 92 100 98 98 99 100 100 100 93 91 78 60 13 99 89 53 96 100 77 74 16 4 0 0 0 0 0 0 0 0 0 0 7 6 0 0 2 0 4 1 4 5 0 7 81 96
36 92 99 76 76 100 70 77 100 38 96 97 65 94 37 98 100 79 32 34 100 92 91 4 0 0 0 0 0 0 0 0 0 0 0 0 0 0 0 1 3 0 2 4 12 41 77 45 100
88 57 82 100 100 100 78 87 93 56 100 85 83 44 44 100 100 40 9 69 62 75 99 5 0 1 0 0 0 0 0 0 0 0 0 0 0 0 0 0 0 0 0 0 5 33 6 84 100
99 50 100 100 93 100 100 100 100 68 100 100 100 100 100 100 100 93 100 96 86 84 86 15 0 0 0 0 0 0 0 0 0 0 2 7 7 0 3 0 0 0 0 0 2 0 3 23 92
100 87 97 100 62 97 100 100 48 98 61 29 86 80 81 100 100 97 89 44 100 7 32 6 1 0 0 0 0 0 0 0 0 1 3 4 0 0 2 1 0 0 0 0 0 0 0 0 0
34 100 100 50 92 89 100 100 100 55 28 56 47 88 85 100 100 100 99 65 75 54 0 2 0 0 0 0 0 0 0 0 0 7 0 0 0 0 0 0 0 0 0 0 0 0 0 0 0
78 100 44 30 100 94 20 89 17 88 15 5 8 9 92 98 100 100 100 100 96 98 0 0 0 0 0 0 0 0 0 0 0 0 0 0 0 0 0 0 0 0 0 0 0 0 0 0 0
0 81 100 82 84 82 50 49 15 5 3 3 2 0 12 47 100 100 87 100 89 84 0 0 0 0 0 0 0 0 0 1 0 0 0 81 83 21 0 0 0 0 0 0 0 0 0 0 0
3 100 82 93 57 92 66 86 50 1 0 0 6 6 18 52 100 100 41 92 34 76 10 0 0 0 0 0 0 0 0 0 6 49 0 98 5 45 93 0 0 0 0 0 0 71 0 94 22
30 100 100 42 4 87 65 89 5 25 5 0 0 0 5 20 61 100 99 83 11 43 22 15 1 0 0 24 0 0 0 21 52 94 49 9 54 15 96 13 5 42 4 97 99 91 34 35 37
5 100 99 84 2 5 56 82 97 77 12 0 0 5 0 7 17 68 76 36 100 25 8 0 0 0 0 21 0 3 47 56 45 6 0 15 72 25 99 79 68 23 40 73 100 100 7 72 55
4 80 88 30 2 5 22 88 100 80 3 0 0 0 0 1 17 78 59 40 94 20 5 0 0 0 0 6 2 59 32 17 51 1 0 98 94 15 47 35 100 55 99 45 66 48 32 0 65
22 5 54 5 5 4 3 60 38 57 1 0 0 0 0 0 5 28 28 31 36 6 0 0 0 0 0 0 8 6 0 26 7 8 3 0 54 9 100 69 100 96 83 100 20 3 36 99 27
78 10 5 5 0 2 0 5 5 61 3 2 0 0 0 0 0 0 0 0 9 0 0 0 0 0 0 0 0 0 0 0 0 0 1 1 2 0 10 70 64 95 98 4 34 45 59 46 94
4 6 4 3 5 3 0 57 6 34 5 4 5 0 0 0 0 0 0 0 0 0 0 0 0 0 0 0 0 0 0 0 0 0 0 0 1 0 10 19 43 97 59 23 100 38 8 94 56
0 3 1 35 5 3 0 55 100 7 5 5 5 3 0 0 0 0 0 0 0 0 1 0 1 1 0 0 0 0 0 0 0 0 0 0 0 0 7 34 91 32 29 95 35 97 40 4 8
0 0 5 16 90 5 5 17 99 83 85 5 0 0 2 0 0 0 0 0 0 0 4 1 0 0 0 0 0 0 0 0 0 0 0 0 0 0 0 56 9 0 83 89 51 12 0 19 1
0 0 3 25 94 63 5 86 6 94 25 37 3 0 0 0 0 0 0 0 0 0 2 0 0 0 0 0 0 0 0 0 0 0 0 0 0 0 0 67 40 0 4 1 0 0 8 87 0
0 0 3 5 72 89 100 99 99 100 94 16 5 0 0 0 0 0 0 0 0 0 0 0 0 0 0 0 0 0 0 0 0 0 0 0 2 1 35 1 61 14 90 0 0 0 99 2 0
0 0 0 3 5 12 81 96 100 100 99 7 6 0 0 0 0 0 0 0 0 0 0 0 0 0 0 0 0 0 0 0 0 0 0 0 0 0 100 16 0 28 0 24 9 0 1 97 0
0 0 0 0 5 5 5 72 5 14 53 36 5 0 0 0 0 0 0 0 0 0 0 0 0 0 0 0 0 0 0 0 0 0 0 0 0 0 8 0 1 0 0 55 2 0 0 0 0
0 0 0 0 0 5 10 62 76 76 5 14 5 3 0 0 0 0 0 0 0 0 0 0 0 0 2 0 0 0 0 0 0 0 0 0 3 0 0 27 0 0 0 1 0 4 0 0 0
0 0 0 0 0 0 0 0 0 23 42 100 6 4 0 0 0 0 0 0 0 0 0 0 0 0 0 0 0 0 0 0 0 0 0 0 0 0 0 0 4 0 0 5 6 5 9 0 0
0 0 0 0 0 0 0 0 0 4 5 5 5 14 5 0 0 0 0 0 0 0 0 0 0 0 0 0 0 0 0 0 0 0 0 0 0 0 0 0 0 0 0 0 0 0 2 2 0
0 0 0 0 0 0 0 0 0 0 4 5 5 5 5 0 0 0 0 0 0 0 0 0 0 0 0 5 0 0 0 0 0 0 0 0 0 0 1 0 0 0 0 0 0 0 4 0 0
0 0 0 0 0 0 0 0 0 0 0 0 1 1 5 5 0 0 0 0 0 0 0 0 0 0 1 5 1 0 0 0 0 0 0 0 0 0 0 0 0 0 0 0 0 0 0 0 0
0 0 0 0 0 0 0 0 0 0 0 0 0 0 0 3 0 0 0 0 0 0 0 0 0 0 5 5 0 0 0 0 0 0 0 0 0 0 0 43 0 0 0 0 0 2 3 0 0
0 0 0 0 0 0 0 0 0 0 0 0 0 0 0 0 0 0 0 0 0 0 0 0 0 0 0 0 0 0 0 0 0 0 0 0 0 0 90 100 85 9 0 0 0 4 2 0 0
0 0 0 0 0 0 0 0 0 0 0 0 0 0 0 0 0 0 0 0 0 0 0 0 0 0 0 0 0 0 0 0 0 0 0 0 4 99 100 8 0 2 77 95 38 5 0 0 1

GFSSGP_prec_cloud_036.txt.gz
Cloud_Cover
25 9 100 100 100 100 100 100 100 100 100 100 88 100 96 51 100 90 100 98 98 56 97 58 5 0 0 0 0 0 0 0 0 0 0 0 0 0 0 0 0 0 4 4 0 0 9 6 15
15 83 82 99 100 100 100 99 100 100 73 98 95 78 11 50 51 48 100 87 82 45 46 5 5 0 0 0 0 0 0 1 0 0 0 0 1 0 2 0 0 0 9 0 3 5 6 29 95
50 95 100 95 100 100 100 77 97 91 29 85 76 73 6 74 32 100 100 100 59 50 12 1 2 0 0 0 0 0 0 0 0 0 0 0 0 0 1 2 0 1 5 6 5 5 90 100 51
96 86 64 100 100 100 86 100 100 100 5 21 90 100 100 91 100 100 100 44 86 5 47 0 0 0 0 0 0 0 0 0 0 0 0 2 1 9 0 1 0 0 4 6 5 9 20 95 100
98 88 100 100 100 100 92 65 93 93 94 96 87 92 100 100 72 13 40 66 5 3 24 0 0 0 0 0 0 0 1 1 1 0 0 0 0 3 1 0 0 0 0 0 1 5 25 77 47
94 100 100 100 100 100 100 31 69 84 100 100 91 28 92 99 25 21 39 5 57 85 10 0 0 0 0 0 0 0 5 3 0 3 0 0 0 0 0 0 0 0 0 0 0 0 0 0 0
100 100 100 100 100 100 68 70 93 90 41 82 5 59 99 100 8 2 0 12 54 46 0 1 7 3 0 0 0 0 0 0 0 10 27 0 0 0 0 0 0 0 0 0 0 0 0 0 0
79 100 100 100 100 100 84 71 98 31 42 0 1 20 70 98 100 99 17 89 56 15 0 0 0 5 0 0 0 0 0 0 13 100 100 68 0 0 0 0 0 0 0 0 0 0 0 0 0
25 99 99 100 78 100 26 55 3 79 0 76 30 4 1 100 72 95 83 91 100 0 0 0 0 0 0 0 0 0 1 0 16 100 98 80 73 3 3 0 0 0 1 1 0 0 0 0 2
100 100 100 89 100 100 99 36 42 91 98 26 3 66 42 100 100 34 65 8 98 52 0 0 0 0 1 0 0 0 0 82 100 100 100 13 2 81 66 0 0 98 100 100 40 0 16 1 93
100 7 94 47 98 100 100 8 63 23 17 23 37 23 78 100 100 100 90 52 100 72 0 0 0 0 0 0 0 0 0 75 100 100 100 100 51 100 27 37 1 53 99 100 54 86 2 6 47
98 67 61 97 40 66 100 89 19 98 83 1 0 1 8 94 24 66 30 42 96 39 5 0 0 0 14 5 0 0 0 59 96 12 100 99 93 57 4 0 26 48 91 35 5 30 14 37 97
62 48 81 100 95 19 81 98 100 56 70 0 13 14 44 38 14 79 100 12 3 75 96 38 0 0 36 92 0 12 90 19 95 2 52 45 1 2 98 92 39 10 86 95 97 5 96 18 38
82 89 100 100 99 18 13 40 75 88 39 55 10 0 8 28 22 0 7 2 28 82 24 3 0 0 4 0 7 100 20 70 93 90 0 0 92 81 99 50 66 46 97 37 60 27 18 94 5
83 100 7 98 16 73 57 80 77 100 13 0 0 0 0 0 47 7 0 0 0 14 9 0 0 0 0 0 0 4 0 91 17 96 8 0 8 6 98 14 28 47 5 3 0 35 84 54 5
25 95 55 50 70 5 2 4 14 4 18 0 0 0 0 0 0 0 40 26 0 12 4 0 0 0 0 0 0 0 0 1 79 41 0 0 0 0 0 9 93 49 98 4 92 6 90 53 8
5 4 2 88 6 15 0 26 53 65 97 0 0 0 0 0 0 0 0 4 2 28 0 0 0 0 0 0 0 0 0 0 0 17 1 0 0 10 0 28 92 17 23 19 11 0 100 15 55
5 1 5 34 37 5 9 17 64 3 12 45 0 0 0 0 0 0 0 0 3 0 0 0 0 0 0 0 0 0 0 0 0 0 0 0 0 0 1 31 26 6 9 36 4 0 0 30 63
4 1 0 36 24 60 2 5 7 4 82 100 0 0 0 0 0 0 0 0 0 0 0 0 0 0 0 0 0 0 0 0 0 0 0 0 0 0 0 3 60 0 2 0 0 0 66 76 0
0 2 3 3 98 68 92 2 98 12 1 82 99 0 0 0 0 0 0 0 0 0 0 0 0 0 0 0 0 0 0 0 0 0 0 0 4 4 0 1 0 6 39 4 0 0 71 0 0
0 0 0 5 84 100 100 66 68 54 62 22 32 74 0 0 0 0 0 0 0 0 0 0 0 0 0 0 0 0 0 0 0 0 0 0 0 18 21 0 0 34 6 99 0 0 1 18 0
0 0 0 5 51 92 98 96 16 98 32 73 5 75 0 0 0 0 0 0 0 0 0 0 0 0 0 0 0 0 0 0 0 0 0 0 0 1 0 0 0 0 0 0 0 0 0 0 0
0 0 0 0 82 72 81 74 78 33 4 49 85 6 28 15 0 0 0 0 0 0 0 0 0 0 0 0 0 0 0 0 0 0 0 0 1 0 0 0 0 0 0 0 0 0 0 0 0
0 0 0 0 1 0 1 86 19 25 11 8 5 29 7 26 1 0 0 0 0 0 0 0 0 0 0 0 0 0 0 0 0 0 0 0 0 0 0 0 0 0 0 0 0 0 0 0 0
0 0 0 0 0 0 0 1 0 8 100 47 75 7 93 1 0 0 0 0 0 0 0 0 0 0 0 0 0 0 0 0 0 0 0 0 0 0 0 0 0 0 0 0 0 0 0 0 0
0 0 0 0 0 0 0 0 0 0 4 100 100 85 29 5 5 1 0 0 0 0 0 0 0 0 0 0 0 0 0 0 0 0 0 0 0 0 0 0 0 0 0 0 0 0 0 5 0
0 0 0 0 0 0 0 0 0 0 0 3 96 94 54 5 42 10 0 0 0 0 0 0 0 0 0 0 5 1 0 0 0 0 0 0 0 0 0 0 0 0 0 0 0 0 0 0 0
0 0 0 0 0 0 0 0 0 0 0 0 0 27 77 5 5 5 0 0 0 0 0 0 0 0 0 0 3 5 3 0 0 0 0 0 0 0 0 0 100 80 3 4 1 2 4 5 0
0 0 0 0 0 0 4 5 0 0 0 0 0 0 5 6 5 5 0 0 0 0 0 0 0 0 0 0 0 5 5 0 0 0 0 0 0 0 0 12 98 17 0 0 5 26 4 5 0
0 0 0 0 0 0 6 76 0 0 0 0 0 0 2 11 88 5 2 0 0 0 0 0 0 0 0 0 5 5 1 0 0 0 0 0 0 0 0 17 87 2 0 0 0 0 5 0 0

GFSSGP_prec_cloud_042.txt.gz
Cloud_Cover
51 38 65 72 99 100 100 100 100 100 100 100 96 100 72 62 87 100 100 100 99 12 0 0 0 0 0 0 0 0 0 0 0 0 0 0 0 0 0 4 2 5 4 1 11 100 99 89 66
5 48 78 95 84 100 100 100 100 100 100 77 100 86 49 61 100 100 100 64 5 10 6 0 0 0 0 0 0 0 0 12 0 2 0 0 0 0 0 0 3 5 5 0 2 60 13 72 44
12 90 100 100 100 100 100 100 100 50 62 100 17 68 5 93 100 99 58 6 0 3 0 0 0 0 0 0 0 0 2 2 0 0 0 1 0 0 0 0 3 6 5 2 4 4 5 5 5
47 94 96 100 100 100 100 100 100 98 100 100 42 34 8 16 78 73 6 5 0 0 0 0 0 0 0 0 0 0 34 94 5 0 0 0 0 0 5 10 0 5 5 5 5 4 14 5 5
94 48 96 81 100 95 100 100 100 98 99 100 100 43 35 11 5 5 5 0 0 1 0 0 0 0 0 0 0 1 100 90 0 0 0 0 0 0 0 4 5 5 5 5 1 0 0 0 2
50 5 96 100 100 100 100 100 100 99 92 73 95 2 8 5 5 3 5 0 0 0 1 1 0 0 0 0 0 47 100 5 3 10 1 0 0 0 0 0 0 0 0 0 0 0 0 0 0
5 69 96 99 100 100 100 100 100 100 100 100 98 0 4 3 0 5 2 0 0 0 8 1 0 0 0 0 4 96 12 5 97 0 0 0 0 3 2 3 0 0 0 0 0 0 2 5 4
5 72 100 100 100 100 100 100 98 100 99 99 100 5 7 5 0 3 4 0 0 0 7 0 0 1 0 0 5 81 5 100 100 8 0 1 22 50 8 100 17 0 0 0 0 0 0 0 4
5 58 100 100 100 100 100 87 94 87 100 100 58 5 4 4 4 0 5 0 2 8 11 0 0 0 0 0 4 6 5 82 97 88 2 1 55 80 72 97 81 6 0 0 5 0 0 2 45
6 97 95 98 59 100 100 85 100 100 100 18 1 5 0 0 2 0 16 17 20 28 27 0 0 0 0 0 15 79 63 39 6 44 47 1 5 0 0 1 9 4 0 0 1 0 0 95 6
13 8 45 73 100 100 100 96 88 97 5 0 4 14 4 0 0 0 16 0 1 0 0 0 0 0 0 0 10 6 96 33 9 73 10 1 5 4 4 1 0 2 11 1 5 5 0 2 80
4 0 27 88 74 100 100 94 97 9 1 0 0 0 0 0 0 4 0 0 0 0 0 0 0 0 0 0 12 64 93 16 70 5 3 0 4 5 5 0 25 4 7 4 5 5 5 5 5
0 0 0 4 5 6 47 60 24 5 2 0 0 0 0 0 3 0 0 0 0 0 0 0 0 0 0 0 5 82 25 22 5 0 0 0 5 5 0 7 2 5 57 13 3 24 16 6 2
0 5 31 83 30 12 65 81 6 5 4 0 0 0 0 0 0 0 0 0 0 0 0 0 0 0 0 5 5 66 59 2 0 0 0 2 5 4 0 0 0 0 0 0 0 18 33 2 12
4 10 94 16 94 79 91 6 0 5 5 5 3 4 1 0 0 0 0 0 0 0 0 0 0 0 0 0 0 6 0 0 5 0 0 5 9 0 0 0 4 0 0 0 0 2 0 0 0
4 14 91 3 79 64 99 5 0 1 5 5 34 10 40 5 0 0 0 0 0 0 0 0 0 0 0 0 0 0 0 0 0 0 41 5 1 0 0 4 1 0 0 0 8 2 0 3 2
3 0 7 28 62 100 100 77 0 2 1 3 5 85 90 10 100 0 0 0 0 0 0 0 0 0 0 0 0 0 0 0 0 0 87 4 0 0 0 4 25 0 2 0 16 78 0 14 92
0 0 4 6 37 86 100 100 6 1 0 5 5 29 100 100 98 38 0 0 0 0 0 0 0 0 0 0 0 0 0 0 0 5 16 0 0 4 0 0 0 0 0 1 3 17 52 80 30
0 0 4 0 3 98 79 10 7 3 0 0 60 7 45 100 20 74 2 0 0 0 0 0 0 0 0 0 0 0 0 0 0 2 0 5 5 5 15 0 12 1 16 20 0 0 0 0 0
0 0 2 0 5 36 19 100 35 23 0 0 0 55 100 94 63 12 94 0 0 0 0 0 0 0 0 0 0 0 0 0 0 0 0 0 3 2 5 5 5 5 0 0 0 0 0 0 0
0 0 0 0 1 6 75 96 85 32 12 5 0 96 97 97 100 50 49 6 0 0 0 0 0 0 0 0 0 0 0 0 0 0 0 0 1 5 0 0 0 0 0 0 0 0 0 0 0
0 0 0 0 1 5 67 56 100 22 5 0 0 8 100 100 98 100 32 63 0 0 0 0 0 0 0 0 0 0 0 0 0 0 0 1 5 5 0 0 0 0 0 0 0 0 0 0 0
0 0 0 0 5 5 64 13 7 6 5 0 0 2 16 62 100 100 100 35 0 0 0 0 0 0 0 0 0 0 0 0 0 0 0 0 6 4 0 0 0 0 0 0 0 0 0 0 0
0 0 0 0 4 4 17 27 0 4 4 1 0 4 1 4 93 98 100 69 0 0 0 0 0 0 0 0 0 0 0 0 0 0 0 0 0 0 0 0 0 0 0 0 0 0 0 0 0
0 0 0 0 0 0 0 5 0 3 1 2 1 5 2 36 97 67 29 2 0 0 0 0 0 0 0 0 0 0 0 0 0 0 0 0 0 0 0 0 0 0 0 0 0 0 0 0 3
0 0 0 0 0 0 0 0 0 0 35 5 5 4 5 3 8 5 36 2 0 0 0 0 0 0 0 0 0 0 0 0 0 0 0 0 0 0 0 0 0 0 0 0 0 0 0 0 0
0 0 0 0 0 0 0 0 0 0 0 3 0 47 4 5 5 0 5 0 0 0 0 0 0 0 0 0 0 0 0 0 0 0 0 0 0 0 0 0 0 0 0 0 0 0 0 0 0
0 0 0 0 0 0 0 0 0 0 0 0 0 0 0 0 5 2 0 0 0 0 0 0 0 0 0 0 0 0 0 0 0 0 0 0 0 0 0 0 0 0 4 22 3 5 0 0 4
0 0 0 0 0 0 0 0 0 0 0 0 0 0 0 0 0 0 0 5 5 0 0 0 0 0 0 0 0 0 0 0 0 0 0 0 0 0 0 0 0 0 0 70 5 0 0 0 0
6 0 0 0 0 0 0 0 0 0 0 0 0 0 0 0 0 0 5 44 5 0 0 0 0 0 0 0 0 0 0 0 0 0 0 0 0 0 0 0 0 0 0 0 1 0 0 0 0

GFSSGP_prec_cloud_045.txt.gz
Cloud_Cover
98 74 73 100 100 100 100 97 100 100 93 100 100 100 86 97 46 50 84 100 48 1 0 0 0 2 4 0 0 1 4 0 0 0 1 0 0 0 5 1 5 20 9 7 5 6 5 5 48
100 93 100 100 92 100 100 100 100 100 100 94 100 100 100 95 93 93 66 6 5 2 1 0 0 0 0 0 0 3 5 7 4 0 0 0 0 0 6 1 4 5 5 44 48 100 3 5 23
40 22 100 100 100 100 100 100 100 95 100 100 100 100 100 96 100 50 10 24 29 13 0 0 0 0 0 0 1 17 38 5 11 0 0 0 0 0 1 4 12 14 5 10 4 18 4 5 5
19 86 100 100 100 100 100 100 99 100 97 100 100 100 100 97 68 5 21 32 40 13 0 0 0 0 0 0 2 8 28 0 0 0 0 0 0 0 49 16 5 6 5 6 0 5 45 13 9
90 87 100 100 100 92 96 100 100 100 100 100 100 100 100 100 62 7 45 14 28 4 0 0 0 0 0 0 1 85 5 1 0 0 0 2 43 94 18 6 8 5 5 0 24 20 6 23 5
99 18 71 72 72 88 100 100 100 100 100 92 100 100 100 100 99 34 6 1 2 11 2 0 0 0 0 0 5 69 40 4 0 0 0 0 5 13 13 6 2 0 0 0 5 5 5 5 4
34 5 96 96 78 100 100 100 100 100 100 100 96 100 100 100 94 6 2 0 28 19 0 0 0 0 0 1 5 82 100 27 0 0 5 14 93 84 3 0 0 0 0 0 4 3 3 0 3
82 96 62 100 100 100 100 100 100 100 100 100 100 100 100 100 1 0 0 1 31 27 0 11 0 0 0 1 16 52 69 100 52 5 3 27 100 100 76 0 0 0 0 0 0 91 6 5 1
88 43 59 92 100 100 100 100 100 100 100 100 100 98 94 1 0 2 37 36 61 61 24 8 1 2 0 1 9 5 50 75 56 0 3 0 3 23 6 5 0 0 0 0 0 1 3 0 0
48 18 45 90 100 100 100 100 100 100 98 97 100 94 1 0 0 48 92 83 58 99 72 15 12 15 1 1 6 4 78 28 51 1 0 0 0 0 0 0 0 0 1 0 4 3 13 5 6
4 8 60 95 99 100 100 100 100 99 91 80 15 1 0 0 0 31 86 74 15 76 72 15 10 7 0 1 62 98 100 79 62 0 2 4 0 5 0 0 0 0 0 5 5 5 5 18 48
5 64 51 100 91 100 91 99 93 59 100 59 0 0 0 0 0 2 44 35 20 52 32 0 0 3 0 1 75 20 5 28 16 0 0 0 0 0 7 4 2 0 0 4 5 5 5 3 30
4 64 17 65 98 12 79 100 100 100 75 1 0 0 0 0 0 0 0 0 0 11 2 0 0 0 0 5 100 15 4 2 0 0 0 0 0 8 82 0 0 0 0 0 3 0 0 2 3
61 6 4 4 6 77 82 5 25 14 0 5 0 0 0 0 0 0 0 0 0 0 0 0 0 0 0 5 88 44 1 0 0 0 0 0 0 0 0 0 0 0 0 0 0 0 0 0 2
7 3 5 5 5 4 5 4 0 3 5 5 5 0 0 5 1 0 0 0 0 0 0 0 0 0 0 9 15 48 0 0 0 0 1 0 0 0 0 0 0 0 0 0 0 0 0 0 1
0 4 0 1 42 93 96 42 0 0 2 5 0 0 0 4 13 0 0 0 0 0 0 0 0 0 0 4 5 0 4 1 1 0 2 4 0 0 0 0 0 0 0 0 1 0 0 1 5
0 0 0 5 4 100 44 5 0 0 0 4 1 1 0 3 4 1 0 0 0 0 0 0 0 0 0 0 0 0 0 0 43 0 0 0 0 0 0 0 1 0 0 3 100 0 1 95 2
0 0 0 0 2 83 48 3 4 0 0 2 3 5 2 1 0 0 0 0 0 0 0 0 0 0 0 0 0 0 0 0 77 0 0 0 1 0 0 0 0 0 0 0 2 67 0 48 44
0 0 0 0 5 79 20 60 5 0 0 0 5 5 5 0 3 2 0 0 0 0 0 0 0 0 0 0 0 0 0 0 5 0 0 0 5 7 18 5 5 0 0 26 0 0 0 5 1
0 0 0 0 5 37 38 0 5 2 0 0 4 11 5 9 5 1 0 3 0 0 0 0 0 0 0 0 0 0 0 0 0 0 0 5 5 6 5 7 22 0 0 0 0 0 0 0 0
0 0 0 0 35 5 81 68 5 0 0 0 0 85 26 15 19 8 2 0 3 0 0 0 0 0 0 0 0 0 0 0 0 2 2 5 4 4 4 0 0 0 0 0 0 0 0 0 0
0 0 0 0 84 5 32 77 5 13 0 0 5 5 5 81 65 5 4 25 5 4 0 0 0 0 0 0 0 0 0 0 0 0 2 5 5 5 0 0 0 0 0 0 0 0 0 0 0
0 0 0 0 2 76 54 50 46 3 0 0 1 5 5 5 5 39 44 8 61 10 0 0 0 0 0 0 0 0 0 0 0 0 0 4 5 5 5 0 0 0 0 0 0 0 0 0 0
0 0 0 0 1 8 6 14 5 1 0 0 0 5 34 5 9 85 26 66 23 47 1 0 0 0 0 0 0 0 0 0 0 0 0 0 4 7 0 0 0 0 0 0 0 0 0 0 0
0 0 0 0 96 3 0 3 0 0 0 0 0 0 0 5 6 92 100 9 0 15 4 0 0 0 0 0 0 0 0 0 0 0 0 0 0 0 0 0 0 0 0 0 0 0 0 0 0
0 0 0 0 5 3 0 0 0 0 0 0 0 0 0 32 74 14 100 74 0 1 4 0 0 0 0 0 0 0 0 0 0 0 0 0 0 0 0 0 0 0 0 0 0 0 0 0 0
0 0 0 0 0 3 0 0 0 0 0 0 0 0 0 4 94 100 89 47 0 0 0 0 0 0 0 0 0 0 0 0 0 0 0 0 0 0 0 0 0 0 0 0 0 0 0 1 0
0 0 0 0 0 0 0 0 0 0 0 0 0 0 0 0 36 100 96 51 25 0 0 0 0 0 0 0 0 0 0 0 0 0 0 0 0 0 0 0 0 0 0 0 5 4 0 0 5
0 0 0 0 0 0 0 0 0 0 0 0 0 0 0 0 5 55 36 91 22 1 0 0 0 0 0 0 0 0 0 0 0 0 0 0 0 0 0 0 0 0 0 0 0 1 4 3 0
1 0 41 2 0 0 0 0 0 0 0 0 0 0 0 0 5 5 5 51 66 0 0 0 0 0 0 0 0 0 0 0 0 0 0 0 0 0 0 0 0 0 0 0 0 0 0 0 2

GFSSGP_prec_cloud_048.txt.gz
Cloud_Cover
98 100 46 73 95 75 94 98 100 100 61 98 100 96 100 100 100 100 32 33 2 3 0 0 0 0 4 0 0 0 3 2 1 7 1 0 66 78 0 5 5 20 15 25 36 96 26 13 27
83 82 100 97 98 85 98 100 100 100 98 94 100 100 100 100 100 100 81 14 0 6 0 0 0 0 0 0 7 5 0 0 2 0 11 14 51 8 0 1 2 99 100 100 100 100 99 51 71
85 54 98 100 100 87 100 100 100 94 100 83 100 100 100 100 100 100 100 100 13 9 5 0 0 0 0 1 15 7 10 2 0 0 1 0 0 2 4 0 4 87 16 6 50 67 100 88 83
95 91 100 93 100 100 100 100 100 100 100 100 100 100 100 100 100 100 100 100 35 22 0 0 0 0 0 15 52 8 7 1 2 5 0 2 0 4 3 5 5 0 0 2 12 5 1 0 33
74 80 61 92 100 100 93 100 100 100 100 100 96 100 100 100 94 100 100 40 31 16 0 0 0 1 0 21 1 4 8 1 0 3 0 51 100 92 0 0 0 0 0 6 8 94 5 5 5
95 74 70 94 100 100 85 100 100 100 100 100 94 100 100 81 100 100 60 46 0 5 0 0 0 8 0 0 8 47 3 2 5 5 5 5 2 0 0 0 7 0 0 2 3 44 20 5 94
96 9 96 100 100 80 99 100 100 100 100 100 100 97 94 100 100 76 55 18 12 3 0 0 0 1 0 11 5 5 5 0 8 4 15 34 1 0 0 0 0 0 3 3 28 5 1 5 14
32 48 64 66 75 70 98 100 100 100 100 100 12 99 100 100 98 39 47 54 40 28 14 18 0 0 0 0 4 100 6 2 1 1 6 14 62 4 4 3 0 5 5 3 0 0 0 4 5
81 37 81 97 100 100 100 100 100 100 100 100 93 82 59 100 54 59 83 80 66 50 33 22 1 0 2 0 2 24 7 5 2 0 0 0 2 0 0 0 0 46 0 0 0 2 1 4 5
68 20 47 99 100 100 100 100 100 100 93 14 99 100 86 78 47 82 100 100 100 37 69 27 16 13 1 0 6 9 3 4 0 0 0 0 0 0 0 0 0 0 4 3 5 4 4 5 5
22 59 37 78 98 98 100 100 98 93 30 78 96 88 49 12 48 88 100 100 83 73 82 35 26 16 9 1 5 6 4 5 8 0 0 0 0 0 0 0 0 5 0 0 5 2 0 80 17
28 5 10 100 46 100 99 99 51 94 73 100 85 53 8 1 43 45 81 69 66 98 99 39 18 24 14 7 13 4 9 8 9 0 0 0 0 1 5 0 16 5 0 0 5 0 0 0 2
8 100 40 69 42 77 100 78 85 100 99 29 99 100 58 0 30 44 43 51 43 81 82 44 11 14 20 6 20 10 5 0 0 0 0 0 0 41 66 0 0 26 0 0 1 0 2 0 1
8 100 98 24 13 5 18 64 100 36 5 4 12 14 0 0 9 67 62 57 52 29 45 20 4 0 14 7 7 3 0 0 0 0 0 0 0 13 5 2 0 0 0 0 0 3 3 5 0
5 29 6 5 39 77 5 5 5 1 4 0 0 0 0 0 0 2 5 9 0 0 0 1 0 0 5 4 0 0 0 0 0 0 0 4 0 0 0 0 0 0 0 0 0 0 2 5 5
1 37 5 5 3 17 8 1 0 0 54 0 0 0 0 0 0 2 0 0 0 0 0 0 0 0 3 14 3 0 0 0 0 0 5 2 0 0 0 29 0 0 0 0 0 4 5 5 13
4 1 4 6 5 4 10 12 0 32 43 0 1 1 0 0 0 3 0 0 0 0 0 0 0 0 3 5 0 0 0 0 0 0 0 0 0 0 0 0 23 0 0 23 14 0 18 4 5
0 0 0 5 5 5 18 91 42 4 0 3 5 3 2 0 2 0 0 0 0 0 0 0 0 0 0 1 0 0 0 0 0 0 0 0 0 0 0 1 0 0 0 4 4 0 55 27 3
0 0 0 5 4 4 0 4 16 5 1 0 0 0 1 0 1 0 0 0 0 0 0 0 0 0 0 0 0 0 5 2 0 0 0 0 5 5 3 4 0 0 0 0 0 3 0 50 9
0 0 0 2 11 6 0 1 5 0 0 0 4 5 2 5 5 1 0 0 0 0 0 0 0 0 0 0 0 0 3 4 0 0 0 0 5 2 3 0 0 0 0 0 0 0 0 46 0
0 0 0 0 2 47 5 5 5 0 0 0 0 1 2 5 5 5 0 0 4 4 0 0 0 0 0 0 0 0 0 1 0 0 0 0 0 4 0 0 0 0 0 0 1 0 0 0 0
0 0 0 0 0 4 29 4 5 0 0 0 0 0 4 4 7 5 0 0 0 1 1 0 0 0 0 0 0 0 0 0 0 0 0 0 0 1 0 0 0 0 10 0 0 0 0 0 0
0 0 0 0 0 0 11 50 0 0 42 0 0 1 1 5 5 74 2 0 0 0 5 0 0 0 0 0 0 0 0 0 0 0 0 0 0 0 5 0 0 0 0 0 0 0 0 0 0
0 0 0 0 0 0 0 48 8 0 0 0 0 1 5 5 6 83 8 2 13 1 3 4 0 0 0 0 0 0 0 0 0 0 0 0 0 0 4 0 0 0 0 0 0 0 0 0 0
0 0 0 0 0 0 0 43 5 0 0 0 0 2 4 5 6 5 68 59 0 0 0 1 39 0 0 0 0 0 0 0 0 0 0 0 0 0 0 0 0 0 0 0 0 0 0 0 0
0 0 0 0 0 0 0 3 11 0 0 0 0 5 5 5 5 5 83 99 4 0 0 0 1 2 0 0 0 0 0 0 0 0 0 0 0 0 0 0 0 0 0 0 0 0 0 0 0
0 0 0 0 0 0 0 0 0 0 0 0 5 5 0 0 5 46 28 69 74 0 0 0 0 1 0 0 0 0 0 0 0 0 0 0 0 0 0 0 0 0 0 0 0 0 0 4 5
0 0 0 0 0 0 0 0 0 0 0 0 2 3 1 0 3 8 68 70 74 2 0 0 0 0 0 0 0 0 0 0 0 0 0 0 0 0 0 0 0 0 0 0 0 0 4 27 12
0 1 0 0 0 0 0 0 0 0 0 0 0 0 0 0 4 5 5 42 92 30 0 0 0 0 0 0 0 0 0 0 0 0 0 0 0 0 0 0 0 0 0 0 0 0 0 3 1
46 5 2 0 0 0 0 0 0 0 0 0 0 5 3 2 4 83 40 16 6 5 1 0 0 4 0 0 0 0 0 0 0 0 0 0 0 0 0 0 0 0 0 0 0 0 0 0 0

GFSSGP_prec_cloud_051.txt.gz
Cloud_Cover
98 100 52 81 89 60 82 93 81 36 91 99 44 99 100 100 100 100 79 100 100 31 0 20 0 0 9 3 5 3 0 0 0 3 0 3 25 2 3 2 93 50 5 17 32 71 14 1 44
69 100 100 97 68 56 84 52 100 77 87 48 84 44 100 97 83 100 100 100 70 1 0 14 0 0 0 5 5 1 0 4 7 3 97 75 4 10 0 97 100 98 100 92 93 70 37 6 7
57 70 93 100 100 54 93 96 100 100 98 97 64 71 100 100 100 100 100 100 0 3 0 0 0 0 10 6 5 4 4 1 0 3 18 35 2 0 21 95 87 29 16 4 5 5 2 7 91
33 48 88 90 100 99 100 96 100 86 100 100 64 87 100 81 100 100 100 48 0 0 0 0 0 0 4 4 9 0 0 0 5 5 4 3 0 0 5 4 0 0 4 5 5 5 5 10 72
60 67 56 92 98 86 100 100 100 98 100 100 8 50 100 100 100 83 58 0 0 0 7 3 0 7 17 34 6 8 4 0 0 2 0 0 0 0 0 2 6 4 2 5 0 0 25 85 84
74 94 65 98 100 84 89 96 100 100 100 100 99 83 97 96 91 79 6 0 0 0 2 18 0 1 12 5 56 6 0 0 4 4 0 0 0 8 1 0 0 2 0 0 0 0 13 63 82
88 18 100 70 90 100 100 94 100 96 100 100 84 71 80 48 99 89 5 1 0 0 14 4 20 0 5 5 5 13 6 3 0 0 2 0 0 0 0 5 6 6 0 2 4 5 5 5 4
55 7 27 67 100 86 99 100 100 100 100 100 29 28 93 83 100 96 17 4 20 0 26 2 43 0 0 0 2 3 2 8 3 5 5 2 1 5 5 5 4 0 0 0 3 3 5 5 5
98 54 41 60 47 100 93 85 79 72 100 98 5 9 100 76 100 73 26 15 44 1 21 0 24 0 14 8 92 80 0 8 3 0 0 0 0 4 5 2 1 3 2 0 6 4 3 0 4
82 39 22 97 100 88 100 83 51 95 100 30 5 98 44 83 76 72 1 0 0 0 12 0 0 6 1 0 61 44 22 1 1 0 0 0 0 0 4 1 0 0 0 1 2 0 0 5 1
45 81 25 100 100 100 100 96 41 36 44 13 92 79 90 61 94 14 0 0 0 0 4 0 0 27 1 6 18 12 8 0 1 0 0 0 0 0 0 0 0 0 0 0 0 4 1 5 1
36 64 55 94 68 73 100 100 100 91 100 100 100 100 53 23 3 2 0 0 0 0 5 9 0 5 5 2 0 0 0 0 0 0 0 0 0 0 0 0 2 0 0 0 0 2 2 0 0
5 32 34 100 57 79 62 96 99 73 69 87 59 23 5 2 0 0 0 0 0 0 2 8 0 0 4 10 0 0 0 0 0 0 0 0 0 0 0 0 0 9 0 0 0 0 0 0 0
5 57 27 100 94 64 100 99 83 44 84 99 3 0 0 0 0 0 0 0 0 0 0 0 0 0 0 0 0 0 0 0 0 0 0 0 0 0 0 0 0 0 0 0 0 0 0 0 0
8 13 93 100 78 71 67 41 5 2 0 0 0 0 0 0 0 0 0 0 0 0 0 0 0 0 0 0 0 0 0 0 0 0 0 0 0 0 0 0 0 0 0 0 0 0 0 5 5
5 3 5 61 63 74 13 6 5 4 0 0 3 1 0 0 0 0 0 0 0 0 0 0 0 5 0 0 0 0 0 0 0 0 0 0 0 0 30 57 0 0 0 0 0 0 0 5 42
4 0 2 49 5 8 11 21 0 1 0 3 4 1 0 0 0 0 0 0 0 0 0 0 0 5 2 0 0 0 0 0 0 0 0 0 0 0 2 7 0 0 0 20 0 0 0 0 0
0 0 0 26 5 2 5 82 0 1 4 5 0 0 0 0 0 0 0 0 0 0 0 0 0 5 5 0 0 0 0 0 0 0 0 0 0 0 0 3 0 0 0 0 0 0 31 0 0
0 0 0 41 11 5 26 68 29 5 5 2 0 0 0 0 0 0 0 0 0 0 0 0 0 0 0 0 0 0 0 0 0 0 0 0 0 0 0 0 0 1 0 2 0 0 1 0 0
0 0 0 20 51 5 84 8 5 5 23 4 2 0 0 0 0 0 0 0 0 0 0 0 0 0 0 0 0 0 0 0 0 0 0 0 0 0 0 0 0 7 0 0 0 0 0 3 22
0 0 0 4 96 5 5 5 5 5 3 0 0 1 0 5 0 0 1 0 0 0 0 0 0 0 0 0 0 0 4 0 0 0 0 0 0 0 0 0 0 9 0 0 0 0 0 3 0
0 0 0 1 5 31 34 0 0 2 0 0 0 0 2 5 5 0 0 0 0 0 0 0 0 0 0 0 0 0 4 3 0 0 0 2 0 0 0 0 0 0 0 2 0 0 0 0 0
0 0 0 0 2 5 5 8 0 0 0 0 0 0 0 5 4 4 0 0 0 0 0 0 0 0 0 0 0 0 0 0 0 0 0 4 0 0 0 0 0 0 0 1 0 1 0 0 0
0 0 0 0 0 3 0 2 0 0 4 18 0 0 4 1 5 5 2 0 0 0 0 0 0 0 0 0 0 0 0 0 0 0 0 0 0 0 0 0 0 0 0 0 0 0 0 0 0
0 0 0 0 0 1 0 0 0 0 5 4 4 2 2 5 9 5 3 0 0 0 0 0 1 0 0 0 0 0 0 0 0 0 0 0 0 0 0 0 0 0 0 0 0 0 0 0 0
0 0 0 0 0 0 0 0 0 0 0 0 0 5 4 0 5 5 5 5 0 0 0 0 0 0 0 0 0 0 0 0 0 0 0 0 0 0 0 0 0 0 0 0 0 0 0 4 5
0 0 0 0 0 0 0 0 0 0 0 0 0 1 5 13 5 3 5 5 1 0 0 0 0 0 0 0 0 0 0 0 0 0 0 0 0 0 0 0 0 0 0 0 0 0 0 16 5
0 0 0 0 0 0 0 0 0 0 0 0 0 1 5 78 86 4 5 5 5 0 0 0 0 0 0 0 0 0 0 0 0 0 0 0 0 0 0 0 0 0 0 0 0 0 0 0 0
0 0 0 0 0 0 0 0 0 0 0 0 0 1 5 9 100 5 5 5 17 11 0 0 0 0 0 0 0 0 0 0 0 0 0 0 0 0 0 0 0 0 0 0 0 0 0 0 0
0 5 1 34 0 0 0 0 0 0 0 0 0 4 5 36 100 22 5 5 5 19 0 0 0 0 0 0 0 0 0 0 0 0 0 0 0 0 0 0 0 0 0 0 0 0 0 0 0

GFSSGP_prec_cloud_054.txt.gz
Cloud_Cover
14 44 6 32 100 34 69 89 83 90 90 72 91 86 90 100 97 100 100 99 44 2 0 0 0 0 4 5 4 0 0 6 0 0 0 15 4 10 36 100 85 1 4 22 40 74 6 6 9
87 100 94 93 88 86 100 88 77 82 90 100 99 93 100 91 65 100 100 70 4 0 1 0 0 1 5 5 1 0 4 17 13 10 28 3 5 46 100 15 100 77 7 3 40 18 5 4 6
5 23 65 100 99 91 98 54 99 92 93 88 100 96 28 55 85 100 54 20 9 9 11 0 0 2 2 3 11 1 5 8 10 9 3 2 45 100 91 9 5 0 0 0 0 0 26 98 100
13 37 100 100 99 94 100 37 91 100 100 100 100 99 15 97 51 60 14 11 0 6 2 2 0 9 5 1 6 5 6 2 1 0 1 0 2 4 0 0 0 2 0 2 3 90 46 5 54
100 89 96 89 60 100 63 86 100 100 100 98 66 64 95 100 97 41 10 7 0 0 0 0 0 0 5 16 0 2 3 3 2 0 1 2 5 0 1 2 1 0 4 0 0 5 5 30 96
83 24 35 68 67 29 74 100 100 100 100 100 100 64 88 50 100 40 55 5 0 0 0 0 6 12 0 7 8 1 11 0 0 0 4 3 0 1 2 5 5 2 0 0 0 5 6 96 100
64 57 41 79 59 45 41 98 100 99 99 100 36 62 76 92 98 58 86 3 0 4 1 0 4 4 2 5 5 0 3 0 0 2 2 3 0 0 2 0 3 4 4 0 5 5 4 0 0
58 53 48 53 47 77 99 96 100 98 100 97 100 52 96 98 94 92 52 7 0 10 0 0 1 25 3 5 87 0 2 0 0 0 0 1 0 0 0 0 2 0 0 0 4 3 2 5 3
67 18 52 82 87 36 79 89 100 100 100 98 100 36 22 88 46 92 24 18 0 10 1 10 0 1 18 8 20 3 4 4 0 0 0 0 20 1 28 0 0 0 0 0 0 0 0 0 0
50 53 65 48 57 100 78 98 78 81 100 85 38 7 93 99 36 8 2 12 0 0 0 0 0 0 14 14 19 26 15 6 16 0 2 10 12 14 2 0 0 0 0 0 0 0 1 64 20
87 65 21 95 100 100 100 97 90 99 98 10 8 31 100 48 8 0 0 0 0 0 0 0 0 3 9 29 18 32 47 32 14 6 6 1 1 0 93 26 56 13 1 36 6 7 95 95 100
9 7 73 100 85 97 100 100 69 89 76 26 85 74 41 15 0 0 0 0 0 0 0 0 0 27 16 46 39 46 37 23 0 0 0 0 6 1 12 97 20 37 40 0 55 78 3 20 42
5 63 99 67 81 72 76 100 96 99 69 52 30 85 16 6 16 1 0 0 0 0 0 0 0 18 27 40 44 28 13 1 0 0 0 0 44 40 27 2 90 42 18 0 1 1 14 5 4
5 15 84 86 99 43 15 33 67 86 81 46 100 100 6 0 2 0 0 0 0 0 0 0 0 0 19 42 24 27 49 33 1 0 0 0 7 3 57 0 34 100 50 0 4 0 1 5 15
2 5 5 30 58 76 97 5 7 7 30 99 77 3 20 10 0 2 0 0 0 0 0 0 0 0 4 25 22 11 22 4 40 15 0 0 1 0 3 53 25 83 7 0 0 0 2 2 26
0 3 73 42 86 100 100 98 5 56 42 5 0 9 32 18 0 0 0 0 0 0 0 0 0 0 0 1 1 0 0 8 12 0 0 0 7 29 0 4 31 7 5 14 41 84 62 72 34
0 0 1 99 97 92 100 100 41 71 5 0 0 0 5 28 15 0 0 0 0 0 0 0 0 0 0 0 0 0 0 14 46 36 73 0 98 20 0 28 3 12 7 49 73 73 85 43 36
0 0 0 6 28 55 76 90 4 6 0 0 0 0 0 0 0 0 0 0 0 0 0 0 0 0 0 0 0 0 0 0 1 6 38 0 15 40 0 49 0 0 93 12 99 7 23 85 65
0 0 0 4 100 70 97 84 42 2 0 0 0 0 0 0 0 0 0 0 0 0 0 0 0 0 0 0 0 0 0 0 0 0 0 0 0 57 0 7 0 0 52 90 0 0 33 10 0
0 0 0 48 60 53 92 100 19 0 0 0 0 0 0 0 0 0 0 0 0 0 0 0 0 0 0 0 0 0 0 0 2 0 0 0 0 0 0 60 9 0 6 0 0 0 50 42 0
0 0 0 5 11 14 78 63 71 5 3 0 0 0 0 0 0 0 0 0 0 0 0 0 0 0 0 0 0 0 0 0 0 0 0 0 0 0 0 9 22 0 43 28 0 0 1 48 0
0 0 0 3 2 23 8 100 9 5 5 0 3 0 0 0 0 0 0 0 0 0 0 0 0 0 0 0 0 0 0 0 0 0 0 0 0 0 0 7 5 5 28 5 7 1 14 8 9
0 0 0 0 5 5 84 55 99 20 5 5 0 0 0 0 0 0 0 0 0 0 0 0 0 0 0 0 0 0 0 0 0 0 0 0 0 0 0 0 0 4 56 1 6 5 0 0 36
0 0 0 0 0 36 4 32 5 96 54 5 3 0 0 0 0 0 0 0 0 0 0 0 0 0 0 0 0 0 0 0 0 0 0 0 0 0 0 0 0 2 0 0 0 6 0 0 0
0 0 0 0 0 0 0 4 2 41 58 5 0 0 4 3 1 0 0 0 0 0 0 0 0 0 0 0 0 0 0 0 0 0 0 0 0 0 0 0 0 0 0 0 0 0 5 0 0
0 0 0 0 0 0 0 0 0 8 1 4 4 5 5 5 10 5 0 0 0 0 0 0 0 0 0 0 0 0 0 0 0 0 0 0 0 0 0 0 0 0 0 0 0 0 0 8 0
0 0 0 0 0 0 0 0 0 0 0 0 3 5 5 5 5 5 3 0 0 0 0 0 0 0 0 0 0 0 0 0 0 0 0 0 0 0 0 0 0 0 0 0 0 0 9 6 0
7 1 10 1 1 0 0 0 0 0 0 0 49 59 5 5 5 5 5 4 4 0 0 0 0 0 0 0 0 0 0 0 0 0 0 0 0 0 0 0 0 0 0 0 0 0 1 11 1
0 0 97 29 1 0 0 0 0 0 0 0 2 19 5 1 5 5 5 5 5 0 0 0 0 0 0 0 0 0 0 0 0 0 0 0 0 0 0 0 0 0 0 0 0 0 0 15 11
0 23 2 100 12 3 4 18 3 0 0 0 0 2 8 0 4 82 54 40 49 4 1 0 0 0 0 0 0 0 0 0 0 0 0 0 0 0 0 0 0 0 0 0 0 0 0 0 0

GFSSGP_prec_cloud_057.txt.gz
Cloud_Cover
1 6 66 45 99 71 100 83 100 100 100 100 100 100 82 100 68 91 64 43 100 8 7 10 2 23 1 0 0 1 2 18 2 0 5 0 9 77 100 72 10 3 5 5 39 39 100 6 95
5 34 52 95 88 100 92 25 100 100 99 48 92 100 100 42 7 43 66 96 23 0 4 4 5 5 0 0 1 2 0 5 5 3 1 6 53 98 97 77 100 46 2 3 5 1 5 2 16
6 20 93 100 88 96 100 99 100 98 100 100 100 100 74 32 93 25 98 72 48 0 0 3 3 4 0 0 0 54 2 3 4 9 9 100 100 100 5 3 0 12 0 0 1 4 78 100 97
63 81 90 99 100 100 97 100 99 100 100 100 84 13 14 100 83 100 81 74 88 18 0 0 0 3 16 9 0 0 1 4 1 2 49 26 11 1 0 1 3 0 0 2 4 72 70 26 22
100 52 68 76 98 84 63 100 98 100 100 100 100 61 85 98 100 100 95 73 100 26 0 0 1 6 7 13 8 3 5 0 0 0 2 0 3 1 0 14 0 0 3 4 5 5 53 17 56
98 61 60 99 77 76 85 100 100 100 100 100 84 99 84 80 100 97 91 61 100 2 0 0 0 2 5 0 4 2 0 7 0 5 14 4 2 2 2 0 1 0 0 4 4 84 100 100 100
62 94 45 90 57 100 49 99 100 96 100 100 100 88 94 69 100 57 88 52 97 28 0 2 18 0 10 9 1 0 1 0 11 15 1 10 0 0 0 1 0 0 2 1 0 3 2 0 0
100 74 89 100 83 100 100 100 100 100 100 74 98 88 47 54 100 68 99 77 100 82 0 1 12 10 4 7 2 0 8 0 6 0 0 0 0 0 0 0 0 0 0 5 0 3 0 0 0
100 31 100 100 100 100 12 54 97 100 67 98 91 94 5 36 92 92 96 69 100 44 0 0 2 1 0 23 5 1 0 4 0 0 0 32 23 12 0 0 0 0 0 0 0 0 0 0 4
98 95 99 62 100 89 40 38 100 97 78 88 41 90 20 83 100 77 56 40 92 48 25 0 1 0 0 14 7 13 6 1 12 1 32 100 100 40 0 0 0 0 0 0 0 0 28 55 33
51 46 100 35 10 69 100 78 96 70 92 71 74 85 26 94 62 80 40 28 57 30 9 0 2 1 20 0 57 21 10 99 38 7 96 10 12 17 0 4 78 0 68 0 0 22 100 66 41
17 62 87 98 57 72 100 98 100 91 80 25 14 46 30 52 44 31 52 32 24 17 1 4 0 0 95 0 50 87 99 100 1 10 4 0 87 100 90 82 2 89 47 28 46 80 70 89 100
3 92 48 99 100 100 100 100 100 100 83 3 5 30 60 47 54 34 79 27 3 5 0 0 0 0 37 27 93 96 84 36 20 0 2 100 38 53 86 30 100 33 100 29 83 37 73 15 54
4 6 25 54 46 100 100 81 89 100 5 5 5 29 72 35 22 18 27 7 2 0 0 0 0 0 0 100 98 51 63 99 3 5 0 0 100 71 76 7 70 2 94 98 32 94 79 100 40
0 4 23 80 20 95 94 100 100 97 100 26 16 28 56 54 50 12 4 4 0 0 0 0 0 0 2 100 10 74 90 56 94 40 0 0 35 3 53 2 84 35 78 0 19 0 7 51 79
0 0 84 26 6 31 5 98 52 5 12 16 20 9 33 81 60 12 2 0 0 0 0 0 0 0 1 28 84 84 59 83 100 40 2 9 12 0 24 67 63 44 14 98 98 42 97 42 76
0 0 3 78 33 5 7 87 100 53 3 4 12 10 19 33 94 6 1 2 0 0 0 0 0 0 0 1 28 97 94 100 86 76 86 0 16 0 81 25 40 66 52 90 59 50 100 36 41
0 0 3 46 96 30 71 96 100 74 7 4 0 0 9 25 45 0 1 1 0 0 0 0 0 4 0 16 18 89 30 100 99 99 65 82 4 2 9 87 0 45 4 27 69 22 51 8 100
0 0 0 39 75 95 33 100 100 100 20 5 0 0 5 19 17 4 0 0 1 0 0 0 0 0 0 0 16 27 100 100 100 92 79 52 76 4 5 88 0 62 100 96 1 0 2 13 98
0 0 0 12 56 100 42 82 100 40 0 0 0 0 0 24 21 8 0 0 0 0 0 0 0 0 0 0 0 26 50 34 97 76 0 1 2 5 100 88 13 20 70 16 0 81 98 61 58
0 0 0 5 21 96 62 85 46 99 0 0 0 0 0 0 0 2 0 0 0 3 0 0 0 0 0 0 0 8 2 84 10 85 0 2 11 1 79 6 85 4 56 20 0 0 10 95 19
0 0 0 1 94 59 28 82 36 69 55 0 0 0 0 0 0 0 0 0 0 0 1 0 0 0 0 0 0 0 0 3 12 55 20 22 3 1 6 66 3 11 100 16 48 49 15 98 48
0 0 0 0 0 24 64 84 99 92 70 7 0 0 0 0 0 0 0 0 0 0 0 0 0 0 0 0 0 0 0 0 0 25 52 5 0 13 15 8 5 38 93 0 91 52 0 2 93
0 0 0 0 0 0 1 34 28 16 59 100 5 1 0 0 0 0 0 0 0 0 4 1 0 0 0 0 0 0 0 0 0 0 18 0 2 1 10 11 17 2 12 0 3 2 0 6 15
0 0 0 0 0 0 0 3 5 66 100 88 75 4 0 0 0 0 0 0 0 0 0 0 0 0 0 0 0 0 0 0 0 0 0 8 4 14 0 0 1 2 0 29 2 0 62 0 0
0 0 0 0 0 0 0 0 0 19 44 50 100 91 0 0 0 0 0 0 0 0 0 0 0 0 0 0 0 0 0 0 0 0 0 0 0 0 43 0 0 0 16 3 4 0 0 0 0
0 1 0 1 0 0 0 0 0 0 63 78 82 100 92 8 0 0 0 0 0 0 0 0 0 0 0 0 0 0 0 0 0 0 0 0 0 0 0 0 0 0 0 0 0 1 0 44 0
1 12 1 0 3 0 3 0 0 0 0 28 43 69 3 100 6 0 0 0 0 0 0 0 0 0 0 0 0 0 0 0 0 0 0 0 0 0 30 0 0 0 0 0 0 7 0 0 0
0 0 57 85 2 0 4 0 3 3 0 0 4 4 7 90 23 0 2 0 0 1 0 0 0 0 0 0 0 0 0 0 0 0 0 0 0 0 0 0 0 0 0 0 0 0 32 0 0
0 2 0 83 90 3 16 5 45 68 2 0 2 5 5 4 57 5 5 2 5 5 4 0 0 0 0 0 0 0 0 0 0 0 0 0 0 0 0 0 0 0 0 0 0 0 0 8 0

GFSSGP_prec_cloud_060.txt.gz
Cloud_Cover
5 5 60 100 55 60 96 100 100 100 96 90 95 100 100 86 100 100 84 98 63 34 14 17 5 5 6 0 1 0 0 0 1 4 4 2 26 100 70 10 12 49 5 4 16 13 97 3 96
5 16 89 96 91 100 100 100 100 86 90 74 57 100 100 36 13 16 7 97 2 7 13 15 2 0 5 2 5 1 0 5 3 0 5 7 4 33 11 100 58 1 0 1 3 15 15 0 16
32 12 99 80 98 100 100 100 86 74 99 100 100 83 38 83 61 87 19 20 0 0 1 0 0 1 3 14 0 5 0 0 1 5 77 99 91 7 8 1 7 0 0 2 0 23 4 5 64
23 89 65 97 100 100 100 89 100 87 73 100 100 100 100 67 80 100 8 1 0 0 0 0 2 4 0 0 0 1 4 0 12 100 92 53 2 0 0 0 0 0 4 5 5 5 17 18 5
100 89 92 82 100 96 23 28 74 88 77 100 100 99 100 100 88 5 7 38 12 0 0 0 0 6 0 1 0 0 0 0 0 0 0 0 0 0 9 8 0 2 0 2 4 3 5 5 18
69 22 58 60 100 99 49 41 96 100 96 100 100 96 94 94 76 29 40 55 0 0 0 1 4 8 3 0 0 0 0 6 0 0 0 0 1 0 1 0 0 0 0 5 5 5 3 0 0
13 53 62 100 100 35 100 97 100 100 100 100 99 40 89 100 48 5 95 100 32 0 0 5 0 0 6 0 0 0 0 2 0 0 0 0 0 0 0 0 1 0 0 0 0 0 0 0 0
73 91 28 74 100 100 100 100 100 100 100 100 87 7 100 99 7 22 100 70 12 0 0 2 0 6 4 9 4 0 0 0 0 0 0 0 0 0 0 0 0 0 0 0 0 0 0 0 0
99 65 95 100 99 100 100 100 100 100 100 98 99 26 7 5 39 94 98 35 20 4 0 0 1 32 2 0 22 3 0 0 0 0 0 29 3 0 0 0 0 0 0 0 0 0 4 5 0
44 92 95 100 96 100 96 82 79 100 99 100 99 35 12 9 45 100 50 58 1 1 16 0 0 0 6 0 0 0 0 0 0 41 4 48 77 1 0 0 0 0 0 0 2 0 83 50 80
40 59 98 84 100 42 99 100 100 100 100 99 68 5 34 20 59 21 66 0 67 13 13 90 15 0 66 0 0 0 9 0 0 40 4 85 10 22 6 8 0 43 4 100 10 21 47 97 78
95 84 99 100 25 49 51 100 100 100 100 100 100 6 38 62 84 24 32 63 56 40 100 0 0 49 14 0 18 11 65 97 0 16 0 0 35 49 100 5 5 100 0 44 84 0 100 98 81
14 92 82 84 99 63 68 99 100 100 100 100 100 26 96 46 0 48 18 35 100 8 100 0 0 18 4 0 61 26 77 12 0 0 12 83 89 100 87 53 91 61 99 45 8 98 1 70 90
28 31 100 9 62 35 89 100 100 96 90 100 24 11 100 19 24 87 30 0 94 0 100 0 0 45 60 52 59 59 18 100 0 0 2 98 6 2 15 83 38 52 34 97 3 52 82 100 20
0 19 37 9 67 85 79 100 88 100 100 41 5 27 85 82 62 3 32 0 6 4 2 0 0 0 0 34 24 28 0 36 0 0 0 5 71 7 3 88 85 1 97 82 38 0 97 22 99
0 0 3 20 47 5 79 100 86 97 100 100 56 76 43 49 22 4 100 0 0 19 0 0 0 0 1 22 0 0 1 2 0 0 0 0 10 1 61 33 100 70 46 94 88 3 90 100 42
0 0 0 76 79 41 5 52 19 96 58 97 42 49 63 92 60 0 47 0 0 16 0 0 19 0 5 86 0 100 4 46 96 83 0 0 0 1 96 100 10 1 31 0 100 4 4 98 78
0 0 0 4 63 29 96 66 88 100 100 100 100 97 100 63 63 1 30 0 19 0 0 0 75 0 0 0 0 68 4 46 1 4 60 8 0 0 13 13 0 47 98 9 82 95 69 100 100
0 0 0 0 77 4 100 24 100 15 100 100 100 100 90 92 45 28 25 0 70 0 0 0 33 0 0 0 0 0 0 100 39 86 100 5 18 0 2 0 0 73 100 11 0 39 1 100 78
0 0 0 3 86 20 72 42 100 97 100 100 100 60 35 26 11 21 13 0 33 0 0 0 0 0 0 0 0 67 4 4 92 7 4 0 24 2 0 7 0 49 61 0 0 100 45 0 84
0 0 0 0 98 45 38 68 5 100 100 100 100 100 8 0 0 0 0 0 0 0 0 0 0 0 0 0 0 13 100 44 82 31 6 0 8 88 7 0 0 0 3 4 0 82 46 0 7
0 0 0 0 12 93 46 0 100 3 100 100 93 1 0 0 17 0 0 0 0 0 0 0 0 0 0 0 0 0 8 100 0 1 24 0 0 8 37 0 8 7 37 5 0 0 17 100 1
0 0 0 0 0 6 13 100 14 6 21 95 100 100 100 3 0 0 0 0 0 0 0 0 0 0 0 0 0 0 0 6 100 4 23 1 0 0 31 3 0 97 5 0 0 0 0 0 100
0 0 0 0 0 0 0 32 5 73 25 96 100 100 19 0 0 0 0 0 0 0 0 0 0 0 0 0 0 0 0 0 72 46 73 62 0 0 26 4 8 2 0 2 2 0 2 0 1
0 0 0 0 0 0 0 0 0 59 1 100 100 100 81 2 0 0 0 0 0 0 0 0 0 0 0 0 0 0 0 0 1 18 91 10 0 4 0 0 0 0 0 0 0 0 0 0 0
0 0 0 0 0 0 0 0 0 0 79 100 100 100 100 2 0 0 0 0 0 0 0 0 0 0 0 0 0 0 0 0 0 0 0 98 0 31 0 2 0 0 0 0 0 0 0 0 0
0 14 0 0 0 0 0 0 0 0 6 100 92 94 82 60 32 46 0 0 0 0 0 0 0 0 0 0 0 0 0 0 0 0 0 0 0 43 31 0 0 0 0 0 0 0 0 0 0
0 0 37 0 0 0 0 0 0 0 0 36 5 41 80 100 100 100 4 0 0 0 0 0 0 0 0 0 0 0 0 0 0 0 0 0 0 1 18 5 0 0 0 0 0 0 0 0 0
4 0 2 85 42 0 1 0 0 3 0 0 1 32 100 100 100 100 100 9 0 0 0 0 0 0 0 0 0 0 0 0 0 0 0 0 0 0 7 2 0 0 0 0 0 0 3 1 0
5 1 0 52 5 15 1 0 0 73 97 5 0 28 100 100 100 100 100 100 4 0 0 0 0 0 0 0 0 0 0 0 0 0 0 0 0 0 0 0 0 0 0 0 0 0 0 0 0

GFSSGP_prec_cloud_063.txt.gz
Cloud_Cover
5 5 71 29 100 100 100 100 100 100 100 100 99 98 100 100 100 100 48 0 0 0 0 0 5 0 0 0 0 0 0 3 0 1 3 0 10 17 5 4 4 4 4 3 0 6 5 2 13
5 5 22 99 100 100 100 100 100 100 100 77 100 100 100 95 100 43 4 38 0 0 0 0 5 0 0 0 0 0 0 5 5 3 5 43 37 6 5 13 5 1 0 3 2 13 6 3 32
12 45 100 100 100 100 100 100 100 74 99 40 100 100 100 100 100 59 4 1 0 0 0 0 2 0 2 0 0 0 0 0 58 17 5 0 4 0 0 1 0 4 0 3 5 4 5 5 4
13 99 96 69 100 100 100 100 100 99 46 100 100 100 97 100 100 89 0 0 0 0 0 0 5 4 0 15 4 0 1 26 31 5 12 3 0 0 0 1 1 0 0 1 48 12 6 5 4
5 36 82 48 100 100 100 94 100 100 44 99 99 100 100 39 100 50 0 0 0 0 0 0 11 3 0 0 1 0 8 2 0 0 6 0 0 2 2 1 2 18 10 5 3 5 4 0 0
30 26 71 68 100 100 96 60 100 100 100 100 77 99 76 20 80 0 0 0 0 0 0 0 2 4 1 3 0 0 0 0 0 0 0 3 0 0 0 0 5 23 63 3 5 0 0 0 0
37 56 39 74 91 100 100 100 100 100 100 100 100 98 99 44 1 79 2 0 0 0 0 0 2 6 0 0 4 0 0 0 0 0 0 0 0 0 0 0 5 4 1 0 0 0 0 0 0
1 73 37 92 32 92 99 95 100 100 100 100 98 100 71 5 72 78 5 0 0 0 0 0 0 0 0 0 0 0 7 2 0 0 0 0 0 0 0 0 0 0 0 6 0 0 0 0 0
96 45 100 100 100 100 77 100 100 100 100 100 100 100 100 5 100 100 51 1 0 0 0 0 0 0 0 0 0 1 0 0 0 0 0 0 0 0 0 0 0 0 0 5 0 0 0 0 22
18 100 88 87 76 100 97 100 100 100 100 100 100 100 100 5 100 100 36 0 0 0 0 0 0 0 0 0 0 0 0 0 0 0 0 2 0 0 0 0 0 0 0 2 2 1 23 36 3
50 67 100 85 64 60 99 95 100 100 100 100 100 100 100 5 87 100 100 3 0 0 0 0 0 0 0 0 0 0 0 0 0 2 35 21 0 0 0 1 7 3 3 8 9 85 66 89 0
46 43 92 82 29 20 98 100 100 98 100 91 100 100 75 5 17 0 57 0 19 0 0 0 0 0 0 0 0 0 0 0 98 8 33 44 17 5 2 0 53 0 42 5 0 97 95 80 49
78 62 100 100 100 82 98 100 100 100 100 100 100 100 91 38 24 0 8 0 0 33 0 0 0 0 0 0 0 5 0 0 0 0 2 22 19 21 20 10 7 10 0 5 0 0 2 0 48
44 100 99 100 100 100 74 100 100 100 100 100 100 100 100 24 0 0 98 17 44 73 55 0 0 1 9 0 0 8 10 0 95 6 100 13 2 4 0 0 67 11 27 20 0 21 75 0 4
5 74 100 79 94 99 100 100 100 100 100 100 100 100 100 11 4 97 39 1 30 0 6 0 0 67 0 0 0 3 87 21 22 0 3 0 4 0 70 12 0 11 0 25 0 8 77 3 42
0 4 4 71 94 100 9 38 100 100 100 93 100 100 74 1 0 100 55 0 100 0 0 0 0 0 0 0 0 17 92 19 4 0 0 0 2 7 5 2 30 7 0 5 9 100 51 1 0
0 0 0 3 4 100 41 24 13 65 97 70 84 100 92 31 13 96 96 0 0 0 0 0 0 0 0 0 0 0 0 0 0 0 0 1 6 98 2 13 4 24 0 6 38 54 100 14 7
0 0 0 0 3 61 100 29 7 89 100 100 99 61 100 18 100 40 59 71 0 0 0 0 0 0 0 0 0 0 70 0 0 0 0 0 5 2 0 0 2 44 13 17 10 0 60 32 98
0 0 0 0 21 3 18 12 65 37 100 100 100 100 92 100 100 37 100 88 0 0 0 0 0 0 0 0 1 13 0 0 0 0 0 0 0 0 0 0 0 73 25 0 57 2 27 99 98
0 0 0 0 11 0 3 72 62 70 100 100 100 100 100 88 100 63 0 16 0 0 0 0 0 0 0 0 0 0 0 0 0 0 3 0 0 0 0 0 0 16 26 0 2 16 38 8 100
0 0 0 0 4 56 5 62 91 78 98 100 100 98 100 87 100 85 68 0 0 0 0 0 0 0 0 0 0 0 0 0 0 0 0 3 0 0 0 0 2 4 3 0 0 88 15 0 0
0 0 0 0 1 81 78 76 5 5 66 100 55 97 100 100 100 43 18 0 0 0 0 0 0 0 0 0 0 0 0 0 0 0 0 0 22 6 0 0 6 32 1 0 0 11 0 0 0
0 0 0 0 0 0 5 99 47 91 70 99 100 100 100 95 100 99 14 0 0 0 0 0 0 0 0 0 0 0 0 34 0 0 0 0 0 2 5 0 11 42 0 0 0 0 96 38 0
0 0 0 0 0 0 1 13 5 13 20 9 100 100 100 80 100 96 2 0 0 0 0 0 0 0 0 0 0 0 0 0 3 0 0 4 0 0 1 1 0 2 0 2 2 0 0 0 0
0 0 0 0 0 0 0 2 0 0 1 63 72 100 100 100 94 4 5 0 0 0 0 0 0 0 0 0 0 0 0 0 5 75 0 41 6 0 0 0 2 2 0 0 0 0 0 0 0
0 0 0 0 0 0 0 0 0 0 0 5 5 100 100 100 100 2 0 0 0 0 0 0 0 0 0 0 0 0 0 0 0 0 0 0 4 0 0 0 0 0 0 0 0 0 0 0 0
0 0 0 0 0 0 0 0 0 0 0 3 2 5 85 97 98 50 44 4 0 0 0 0 0 0 0 0 0 0 0 0 0 0 0 0 11 0 0 0 0 0 0 0 0 0 0 0 0
0 0 0 0 0 0 0 0 0 0 0 3 2 1 24 96 100 100 53 56 0 0 0 0 0 0 0 0 0 0 0 0 0 0 0 0 0 0 0 0 0 0 0 0 0 0 0 0 0
0 0 0 0 0 0 0 0 0 47 3 94 100 58 100 78 100 100 100 100 16 0 0 0 0 0 0 0 0 0 0 0 0 0 0 0 0 0 0 0 0 0 0 0 0 0 0 0 0
0 0 0 3 0 1 1 0 0 62 82 98 30 100 94 87 100 100 100 100 45 14 0 0 0 0 0 0 0 0 0 0 0 0 0 0 0 0 0 0 0 0 0 0 0 0 0 0 0

GFSSGP_prec_cloud_066.txt.gz
Cloud_Cover
5 20 98 31 100 100 100 100 100 100 100 100 100 100 53 100 100 100 58 0 0 0 0 0 0 0 0 0 0 0 0 0 2 0 0 0 3 3 4 5 4 8 4 4 0 6 22 0 27
4 5 82 100 100 100 100 100 100 100 100 88 100 100 89 100 74 100 24 0 0 0 0 0 0 0 0 0 0 0 0 0 0 0 10 3 9 5 4 7 7 6 4 2 2 7 5 5 5
4 18 100 100 100 100 100 100 100 100 92 100 99 100 100 100 99 45 4 0 0 0 0 1 0 0 1 0 0 0 5 5 1 2 1 0 0 1 0 0 2 2 6 2 4 0 4 4 10
27 78 63 70 100 100 99 100 100 100 74 100 100 75 100 100 35 14 0 0 0 0 0 5 0 0 0 0 0 2 5 2 0 0 5 0 0 7 0 0 0 0 1 10 2 0 1 0 4
12 12 95 98 100 100 100 90 100 100 100 100 100 100 100 100 58 5 0 0 0 2 0 0 0 0 2 0 0 2 0 0 2 4 2 0 13 0 2 13 4 1 0 0 0 0 3 0 5
48 59 71 100 100 100 100 100 100 100 97 100 100 100 100 100 10 2 0 0 0 1 0 0 2 0 0 1 0 9 1 0 1 0 0 11 8 3 9 8 6 3 0 0 0 0 0 0 0
4 33 90 100 100 100 100 100 100 96 100 100 100 100 100 98 12 0 0 0 0 0 0 0 2 0 0 0 0 0 0 0 0 0 7 0 0 5 5 5 2 0 0 0 0 0 0 0 0
1 71 40 99 100 100 100 100 100 100 100 100 100 100 100 100 0 0 0 0 0 0 0 0 0 0 0 0 10 1 0 0 0 0 0 0 4 0 0 8 2 0 0 2 0 0 0 0 0
83 80 52 68 39 100 71 100 98 100 100 100 100 100 100 100 0 0 0 0 0 8 0 0 0 0 0 0 8 4 0 0 0 0 0 0 0 0 4 0 0 0 0 46 7 0 0 0 0
96 100 100 91 100 85 46 100 100 100 100 100 100 100 50 100 0 0 0 0 0 0 0 0 0 0 0 0 0 0 0 2 0 0 0 0 0 0 0 0 0 4 0 0 4 4 0 0 0
1 98 100 97 100 99 100 100 100 97 100 100 100 100 99 100 43 37 14 0 0 0 0 0 0 0 0 0 0 0 0 0 0 0 0 0 2 0 0 0 0 0 0 16 1 0 3 0 0
0 52 69 85 80 100 100 100 100 100 100 100 100 100 100 100 97 65 1 0 0 0 0 0 0 0 0 0 0 3 0 0 2 5 2 0 4 0 0 0 0 0 0 11 5 15 10 8 1
0 12 14 100 100 100 100 100 100 100 100 100 100 100 100 100 100 52 0 0 0 0 0 0 0 0 0 0 0 0 0 1 3 0 2 0 5 5 1 9 0 1 0 0 0 0 0 0 10
4 52 8 6 55 95 100 100 100 100 100 100 100 100 100 100 100 0 17 0 0 0 0 0 0 0 0 0 0 0 0 0 3 0 4 0 0 0 0 2 70 0 0 0 3 0 0 0 4
0 6 12 5 6 59 100 73 100 100 100 100 100 100 100 100 100 21 0 0 0 0 0 0 0 0 0 0 0 0 0 4 1 0 0 0 1 0 0 0 0 0 0 0 8 1 0 0 19
0 0 6 5 5 35 80 100 100 100 100 100 100 100 100 100 100 58 38 0 0 0 0 0 0 0 0 0 0 63 0 1 0 0 0 0 2 0 0 0 0 0 0 9 1 45 0 21 0
0 0 0 25 44 46 27 74 49 69 100 100 100 100 100 99 100 87 100 0 0 0 0 0 0 0 0 0 0 78 91 0 0 0 0 5 9 0 2 0 0 0 0 0 83 46 10 0 0
0 0 0 40 84 5 5 86 7 77 91 100 100 100 100 100 81 100 56 13 0 0 0 0 0 0 0 0 0 0 0 0 0 0 1 5 4 0 0 1 0 0 0 0 1 0 2 10 0
0 0 0 3 31 3 0 26 9 100 24 99 100 100 100 100 100 100 100 17 0 0 0 0 0 0 0 0 0 0 0 0 0 0 0 0 0 0 0 0 0 0 0 0 0 0 0 27 0
0 0 0 0 0 0 0 5 1 8 6 95 100 100 97 100 100 100 100 2 16 7 0 0 0 0 0 0 0 0 0 0 0 1 0 0 0 0 0 0 0 0 0 0 0 0 0 4 0
0 0 0 0 0 3 0 58 88 59 6 52 100 100 98 100 100 100 74 100 73 3 0 0 0 0 0 0 0 0 0 0 0 0 0 0 0 0 0 2 3 0 0 0 0 0 0 0 0
0 0 0 0 0 2 57 98 67 82 12 11 100 100 100 100 100 100 100 100 54 0 0 0 0 0 0 0 0 0 0 0 0 0 0 0 0 4 0 1 9 32 0 0 0 4 0 0 0
0 0 0 0 0 37 6 95 99 39 5 63 100 100 100 100 100 100 97 100 0 0 0 0 0 0 0 0 0 0 0 0 0 0 0 0 5 5 5 1 73 1 0 1 0 0 0 0 0
0 0 0 0 0 0 2 6 78 55 28 6 13 100 100 100 100 100 94 65 5 0 0 0 0 0 0 0 0 0 0 0 0 0 0 0 0 0 29 61 5 2 0 0 0 0 0 0 0
0 0 0 0 0 0 1 4 0 1 4 4 5 96 69 100 98 100 40 24 5 1 0 0 0 0 0 0 0 0 0 0 0 0 0 0 0 0 0 1 0 4 0 0 0 0 0 0 0
0 0 0 0 0 0 0 2 3 1 79 99 34 2 100 100 64 100 5 2 2 3 0 0 0 0 0 0 0 0 0 0 0 0 0 0 3 0 0 0 0 0 0 0 0 0 0 0 0
0 0 0 0 0 0 0 0 0 46 56 0 2 4 100 100 100 46 45 4 4 1 0 0 0 0 0 0 0 0 0 0 0 0 0 0 0 0 0 0 0 0 0 0 0 0 0 0 0
0 0 0 0 0 0 0 0 0 0 0 0 0 0 80 54 100 87 52 1 5 0 0 0 0 0 0 0 0 0 0 0 0 0 0 0 0 0 0 0 0 0 0 0 0 0 0 0 0
0 0 0 0 0 0 0 0 0 0 0 0 0 0 1 2 86 100 89 5 14 13 4 0 0 0 0 0 0 0 0 0 0 0 0 0 0 0 0 0 0 0 0 0 0 0 0 0 0
0 0 0 0 0 0 0 0 0 0 5 0 0 0 0 0 1 59 10 82 81 87 36 0 0 0 0 0 0 0 0 0 0 0 0 0 0 0 0 0 0 0 0 0 0 0 0 0 0

GFSSGP_prec_cloud_069.txt.gz
Cloud_Cover
100 96 100 100 92 100 100 100 100 100 100 100 100 91 81 95 96 100 7 0 0 0 4 0 0 0 1 0 0 0 0 1 1 8 0 4 7 0 13 0 3 9 6 1 0 11 4 14 17
99 91 81 99 100 100 100 100 100 100 100 100 100 100 66 100 99 89 55 2 0 0 4 0 0 0 9 8 40 52 5 6 2 6 6 11 5 5 7 5 1 2 23 5 0 66 6 2 5
69 74 95 99 100 100 100 100 100 100 100 100 99 100 100 100 100 4 1 0 0 0 0 0 0 0 8 0 9 12 7 5 2 14 1 0 0 5 12 2 1 0 0 2 2 3 4 5 89
24 57 100 100 100 100 100 100 100 100 100 96 100 100 100 100 74 5 0 0 1 0 0 0 0 1 2 8 18 15 5 2 0 13 1 3 6 0 9 0 5 6 0 8 3 6 46 5 16
8 96 100 100 100 100 100 100 100 100 100 100 95 100 100 100 23 6 0 0 2 0 0 0 0 0 0 0 2 0 5 12 1 1 2 6 14 4 5 1 0 0 3 1 0 4 16 4 5
47 76 100 100 100 100 100 100 100 96 100 100 85 100 100 100 22 32 0 0 0 0 0 1 3 0 0 0 1 2 5 2 0 1 6 6 2 11 11 0 0 1 0 0 4 23 15 1 5
12 82 100 96 100 100 100 100 100 100 100 99 100 100 100 100 14 9 0 0 6 7 7 0 1 1 1 0 2 0 0 2 2 4 7 6 5 4 0 0 0 16 0 5 3 0 0 0 0
7 86 100 78 100 100 100 100 100 100 100 99 100 100 100 100 53 21 6 23 38 22 0 2 0 0 0 9 1 0 1 4 0 7 5 3 8 4 0 0 4 91 3 1 0 0 0 0 0
68 87 100 100 100 100 100 85 100 100 100 100 64 97 100 100 100 67 92 95 93 41 16 8 7 2 0 0 18 72 0 0 0 4 1 0 4 0 0 0 0 0 1 0 0 0 0 0 0
100 92 55 53 100 89 100 100 100 100 100 100 100 100 100 100 100 100 61 100 100 96 55 19 10 5 0 0 0 4 0 0 0 0 0 0 0 0 0 0 0 2 0 2 0 0 0 0 0
94 76 8 13 87 83 97 100 100 100 100 100 100 100 100 100 100 100 1 6 18 61 61 15 7 0 0 3 13 11 1 2 0 0 0 0 0 0 0 0 0 5 0 4 0 0 0 0 0
95 29 42 96 93 100 100 100 100 100 100 100 100 100 87 52 100 98 0 0 0 17 1 0 0 0 0 15 19 2 7 2 0 0 3 0 0 0 0 0 1 0 0 0 0 0 0 0 0
97 69 5 5 8 81 98 100 100 100 100 100 100 66 98 100 73 100 21 0 0 0 0 0 0 0 0 5 8 4 4 0 0 0 1 0 0 5 0 0 0 0 0 12 72 0 1 0 6
23 7 5 5 5 26 95 100 100 100 100 100 100 99 100 97 100 100 100 10 0 0 0 0 0 0 0 6 0 2 0 0 0 5 1 3 1 0 4 3 0 0 0 0 0 0 0 0 0
0 0 0 0 5 59 100 100 100 100 100 100 100 100 86 100 100 100 49 65 0 0 0 0 0 0 0 0 0 0 3 0 0 1 0 1 0 0 0 0 0 0 0 0 0 0 0 0 0
0 0 0 0 5 5 54 98 71 100 100 100 99 100 97 99 100 100 61 0 0 0 0 0 0 0 0 0 0 0 1 0 0 4 1 4 0 1 0 0 0 0 0 0 0 0 0 0 0
0 0 0 0 5 5 9 93 100 89 78 98 100 69 91 89 100 98 66 0 0 0 0 0 0 0 0 0 0 4 5 0 0 0 4 5 0 1 4 1 0 0 0 0 0 0 0 0 0
0 0 0 5 22 55 21 46 58 9 85 78 98 100 99 96 92 57 39 2 10 0 0 0 5 0 0 0 0 67 54 0 0 0 8 4 0 0 0 4 0 0 0 1 0 0 0 0 0
0 0 4 5 5 3 2 4 5 97 21 36 83 95 100 96 73 100 87 12 28 0 0 0 0 0 0 0 0 0 6 0 0 0 1 5 0 1 0 4 2 0 0 0 0 0 0 0 0
0 0 5 77 43 0 0 42 5 66 99 98 95 99 99 100 96 100 100 87 100 1 0 0 0 0 0 0 0 0 0 0 0 1 1 7 0 0 0 2 0 0 0 0 0 0 0 0 0
0 0 69 51 5 0 0 98 90 7 30 60 57 78 98 100 100 92 100 73 79 24 7 0 0 0 0 0 0 0 0 0 0 2 0 0 16 1 0 5 5 19 2 0 0 0 0 0 0
0 0 9 3 1 0 0 4 76 5 5 50 39 40 100 100 100 100 100 3 7 84 90 0 0 0 0 0 0 0 0 0 0 0 0 0 0 0 5 3 27 2 0 0 0 0 0 0 0
0 0 0 0 0 0 0 0 12 92 100 82 5 62 100 84 98 95 99 15 5 87 15 0 0 0 0 0 0 0 0 0 0 0 0 0 0 5 1 0 5 0 0 0 0 0 0 0 0
0 0 0 0 0 0 0 0 0 100 100 100 26 98 74 61 60 67 94 81 100 91 0 0 0 0 0 0 0 0 0 0 0 0 0 0 0 0 5 4 5 5 2 0 0 0 0 0 0
0 0 0 0 0 0 0 0 0 100 84 95 62 10 95 21 98 91 84 87 100 67 5 0 0 0 0 0 0 0 0 0 0 0 0 0 0 0 0 0 3 1 0 0 0 0 0 0 0
0 0 0 0 0 0 0 0 0 0 59 10 45 40 74 86 95 47 62 90 93 5 4 0 2 0 0 0 0 0 0 0 0 0 0 0 0 2 0 0 0 0 0 0 0 0 0 0 0
0 0 0 0 0 0 0 0 0 2 0 0 0 0 3 4 4 93 0 54 5 48 0 0 0 0 0 0 0 0 0 0 0 0 0 0 0 18 0 0 0 0 0 0 0 0 0 0 0
0 0 0 0 0 0 0 0 0 0 0 0 0 0 0 0 6 57 3 2 0 10 10 1 1 0 0 0 0 0 0 0 0 0 0 0 0 0 0 0 0 0 0 0 0 0 0 0 0
0 0 0 0 0 0 0 0 0 0 0 0 0 0 0 0 0 26 8 3 0 5 5 4 0 0 0 0 0 0 0 0 0 0 0 0 0 0 0 0 0 0 0 0 0 0 0 0 0
0 0 0 0 0 0 0 0 0 0 0 0 0 0 0 0 0 1 94 8 14 79 40 4 5 0 0 0 0 0 0 0 0 0 0 0 0 0 0 0 0 0 0 0 0 0 0 0 0

GFSSGP_prec_cloud_072.txt.gz
Cloud_Cover
100 100 89 100 100 100 100 100 100 100 100 100 44 93 98 98 64 2 14 0 0 2 0 0 0 0 5 2 0 0 16 5 2 5 5 5 4 7 12 0 5 3 1 0 0 3 5 89 12
100 70 89 100 100 100 100 85 100 100 100 100 71 97 100 100 10 97 50 0 2 1 0 0 0 0 6 5 2 0 2 0 0 0 4 1 0 2 15 4 0 7 4 2 44 44 6 12 98
98 36 100 99 100 100 100 100 100 100 100 100 78 100 84 100 89 8 2 0 0 0 0 0 0 2 5 5 7 0 13 0 7 6 3 10 8 9 12 5 0 0 6 68 100 62 27 41 99
93 56 100 100 100 99 100 100 100 95 100 98 92 100 84 100 93 56 1 0 1 2 0 0 0 0 2 7 1 0 20 3 0 2 2 1 3 10 0 6 5 20 5 9 100 100 98 40 5
6 100 100 100 100 100 100 100 100 91 100 100 74 98 100 100 100 72 1 0 7 9 0 0 0 1 5 4 8 6 13 12 15 2 3 6 6 8 1 1 6 4 13 5 32 0 31 6 30
33 100 100 100 100 100 100 100 100 100 100 95 100 90 100 100 100 100 3 0 0 0 0 0 0 2 13 6 8 5 10 10 1 2 7 4 12 5 3 0 0 0 0 0 0 2 5 4 0
99 100 100 94 100 100 100 100 100 100 99 89 100 85 100 100 100 100 8 3 5 4 2 0 0 0 5 0 0 16 8 10 3 12 0 0 5 3 5 0 0 30 1 0 0 0 3 3 2
53 100 100 100 100 100 100 100 100 100 100 97 99 85 100 100 100 100 49 52 49 30 14 2 0 0 0 0 10 0 3 3 0 0 3 0 0 3 0 0 0 2 0 0 0 0 0 0 0
5 86 100 98 100 100 100 100 100 100 100 100 67 100 100 96 79 100 100 64 93 55 30 6 3 2 0 0 0 0 13 0 0 5 4 0 0 0 0 2 0 0 0 0 0 0 0 0 0
89 39 100 100 100 100 100 100 100 100 98 50 99 100 100 100 98 100 100 100 100 100 76 22 17 8 0 0 0 7 0 0 0 0 0 0 0 0 0 5 0 0 0 0 0 0 0 0 0
100 14 86 100 100 100 100 100 100 100 100 100 91 99 100 100 100 100 100 0 83 100 96 34 21 9 0 12 13 3 0 0 0 0 0 0 0 0 0 16 1 0 2 0 0 0 0 0 0
89 25 51 6 52 100 95 86 95 100 100 100 100 43 100 100 100 100 100 58 94 100 91 28 13 16 0 23 20 7 2 0 0 0 0 2 0 0 5 0 0 0 0 0 0 0 0 0 0
90 5 6 5 5 99 30 100 98 100 100 100 100 96 35 100 97 57 100 14 60 100 61 26 16 17 15 21 26 10 0 0 0 0 0 1 1 0 0 0 0 0 4 1 0 0 0 1 0
27 4 15 5 5 44 9 52 100 100 100 100 99 99 99 98 88 35 100 1 8 37 10 3 10 2 14 22 8 8 0 0 5 3 0 2 0 4 2 1 0 0 2 51 0 0 0 0 0
0 1 3 5 5 5 72 84 13 100 69 100 100 100 98 94 97 100 100 6 0 0 0 1 4 0 3 5 2 0 0 0 0 4 0 0 0 0 0 0 0 0 1 0 0 0 0 0 0
0 1 4 5 5 5 49 99 100 100 100 100 95 94 76 100 100 11 99 64 0 0 0 0 0 0 0 0 0 0 0 0 0 5 0 0 19 0 0 0 0 0 0 0 0 0 9 0 0
0 0 0 0 5 5 23 34 44 100 100 100 100 76 97 98 86 70 79 18 0 0 0 0 0 0 0 0 0 0 0 0 0 4 3 0 0 0 0 0 0 0 0 0 0 0 0 0 0
0 0 0 0 2 5 5 6 14 94 99 78 93 92 51 99 62 5 5 3 6 0 0 0 0 0 0 0 0 0 0 0 0 5 2 0 0 0 4 1 0 0 0 0 0 0 0 0 0
0 0 0 0 5 5 5 5 5 100 100 100 99 100 45 87 100 28 16 5 11 5 0 0 0 0 0 0 0 0 0 0 0 0 3 0 0 0 0 0 0 0 0 0 0 0 0 0 0
0 0 1 5 5 5 0 27 0 50 100 100 89 8 23 98 92 75 36 4 35 3 10 6 0 0 0 0 0 0 0 0 0 1 1 0 0 2 0 0 0 0 0 0 0 0 0 0 0
0 0 3 25 5 3 0 0 14 6 42 78 97 66 38 83 49 89 5 4 4 4 23 13 0 0 0 0 0 0 0 0 0 1 2 0 0 0 0 0 0 0 0 0 0 0 0 0 0
0 0 2 99 6 4 0 0 0 38 9 8 73 100 72 90 8 6 23 5 5 0 4 87 0 0 0 0 0 0 0 0 0 0 0 0 0 1 5 0 0 0 29 0 0 0 0 0 0
0 0 11 87 65 5 0 0 0 2 3 68 100 72 8 5 4 100 100 5 5 4 94 9 0 0 0 0 0 0 0 0 0 0 0 0 0 0 4 1 0 0 0 0 0 0 0 0 0
0 0 4 24 80 3 0 0 0 16 80 96 100 100 58 5 4 5 95 34 5 56 6 36 0 0 0 0 0 0 0 0 0 0 0 0 0 0 0 0 2 0 0 0 0 0 0 0 0
0 0 0 15 6 0 0 0 0 22 99 97 100 94 37 5 5 5 5 33 55 13 12 100 2 0 0 0 0 0 0 0 0 0 0 0 0 0 0 0 0 6 0 0 0 0 0 0 0
0 0 0 0 0 0 0 0 0 3 97 100 100 94 38 9 5 1 5 5 20 62 90 100 5 0 0 0 0 0 0 0 0 0 0 0 0 0 0 0 0 0 0 0 0 0 0 0 0
0 0 0 0 0 0 0 0 0 0 100 18 92 96 85 6 5 5 5 26 97 5 9 35 5 0 1 0 0 0 0 0 0 0 0 0 0 0 98 0 0 0 2 0 0 0 0 6 0
0 0 0 0 0 0 0 0 0 0 1 70 56 47 92 42 6 5 5 4 5 3 9 42 99 5 0 0 0 0 0 0 0 0 0 0 0 0 0 0 0 0 0 0 0 0 0 0 0
0 0 0 0 0 0 0 0 0 4 66 100 100 100 78 9 93 5 52 72 35 4 1 12 22 80 21 62 4 0 0 0 0 0 0 0 0 0 0 0 0 0 0 0 0 0 0 0 0
0 0 0 0 0 0 0 0 0 88 95 100 100 100 100 34 5 5 2 4 80 35 15 0 18 63 14 100 98 35 0 0 0 0 0 0 0 0 0 0 0 0 0 0 0 0 0 0 0

GFSSGP_prec_cloud_075.txt.gz
Cloud_Cover
100 100 100 100 100 100 90 99 100 100 100 100 100 100 100 100 100 29 0 0 0 0 0 0 0 0 0 0 0 7 1 0 1 1 0 1 23 1 0 6 3 5 0 0 3 4 66 5 84
100 40 100 100 90 100 98 81 100 84 100 100 88 99 100 100 100 45 0 0 0 0 0 0 0 0 0 0 0 3 1 5 2 12 6 1 1 4 5 2 4 3 4 9 5 8 5 83 100
100 96 100 99 98 100 100 99 100 49 100 100 100 100 100 100 100 43 0 0 0 0 0 0 0 1 1 2 0 13 0 1 4 2 41 4 4 5 4 2 5 5 32 100 87 35 100 100 100
98 95 43 84 80 100 100 100 100 100 97 100 100 88 92 100 100 2 0 0 0 0 0 0 0 3 8 13 1 8 0 8 7 0 2 1 0 4 4 2 5 5 8 39 10 68 44 99 93
100 88 50 99 94 100 100 95 100 100 100 79 82 63 85 100 100 31 0 0 0 0 0 0 0 6 0 0 2 4 2 1 0 0 0 2 10 10 2 2 0 5 11 5 30 8 52 68 19
100 100 97 100 100 100 100 99 96 100 90 61 70 43 100 89 96 99 35 0 0 0 0 0 1 7 6 2 5 5 11 2 0 5 1 3 5 0 0 0 2 1 0 3 5 23 10 5 2
100 100 98 100 100 100 100 98 100 96 100 100 67 98 100 97 100 100 26 0 0 1 0 1 11 7 8 13 2 13 14 0 5 4 0 0 0 15 3 0 0 0 0 0 5 33 4 0 1
49 100 100 100 100 100 100 93 100 100 99 100 73 100 100 94 100 100 0 0 9 20 0 0 0 24 17 9 2 6 8 5 0 0 0 0 4 0 5 0 0 0 0 3 0 1 0 1 0
16 100 100 100 84 100 88 100 100 100 61 97 100 100 92 82 100 100 52 60 46 26 9 26 18 25 27 28 12 5 12 0 0 1 0 0 5 0 1 0 0 0 0 0 0 0 0 0 2
58 56 100 93 42 100 100 100 100 100 65 55 100 60 79 98 95 100 100 97 45 30 28 30 28 32 18 33 25 25 0 11 17 3 0 0 0 0 0 0 0 0 0 0 0 0 0 0 3
55 14 55 100 100 100 100 100 90 90 70 7 94 100 100 98 46 100 67 2 3 35 21 18 25 27 18 19 5 0 16 6 2 0 0 0 0 2 0 0 4 0 0 0 0 0 0 0 0
30 5 8 58 70 100 100 100 100 100 99 84 100 100 100 89 15 100 95 0 0 72 36 31 33 23 29 3 0 0 0 0 0 0 0 0 0 1 0 0 4 0 0 0 0 0 0 0 0
48 5 5 30 59 100 100 97 100 100 99 96 100 100 100 100 100 57 57 0 0 84 22 16 42 41 32 2 0 0 0 0 0 0 0 0 0 0 0 0 1 5 0 0 0 0 0 0 0
5 1 5 4 5 31 24 18 91 100 97 99 96 96 96 68 24 49 80 1 0 0 8 0 3 26 13 0 0 0 0 3 0 0 1 0 4 1 0 0 0 4 0 0 0 0 0 0 0
14 2 5 5 5 5 9 18 27 74 52 48 18 92 68 5 18 20 96 1 0 0 0 0 6 4 1 0 0 0 0 0 1 0 0 0 0 0 0 0 0 0 0 0 0 0 2 0 0
0 1 4 5 5 6 60 75 95 100 92 100 70 84 98 99 40 68 6 1 0 0 0 0 0 0 0 0 0 0 0 0 0 0 0 0 0 0 0 0 0 0 0 0 0 0 15 0 0
5 4 4 9 5 60 20 16 100 100 100 100 100 100 99 99 100 41 5 3 0 0 0 0 0 0 0 0 0 0 0 0 0 0 2 0 0 0 0 0 0 0 0 0 0 20 11 0 0
0 0 2 5 3 77 51 5 85 44 100 100 100 99 100 52 100 25 27 4 4 0 0 0 0 0 0 0 0 0 0 0 0 0 0 0 0 0 0 0 0 0 0 0 0 0 0 0 0
0 0 0 4 2 50 5 5 67 85 96 100 100 70 64 77 100 83 50 5 5 0 0 0 0 0 0 0 0 0 0 0 0 0 0 0 0 0 5 0 9 30 0 0 0 0 0 0 0
0 0 0 4 5 7 76 5 5 50 97 98 100 96 16 97 100 75 5 5 4 4 0 0 0 0 0 0 0 0 0 0 0 0 0 0 0 0 0 0 0 0 0 0 0 0 0 0 0
0 0 3 3 2 5 6 5 23 37 97 99 46 64 40 78 90 38 10 6 5 5 4 9 7 0 0 0 0 0 0 0 0 0 0 0 0 0 0 0 0 0 0 0 0 0 0 0 0
0 0 3 2 3 5 0 0 5 17 39 68 85 68 29 6 100 96 6 5 5 1 17 6 51 0 0 0 0 0 0 0 0 0 0 0 0 0 0 2 0 0 5 0 0 0 0 0 0
0 0 1 5 5 3 0 0 0 76 54 100 100 81 25 6 96 88 91 5 5 5 1 100 34 0 0 0 0 0 0 0 0 0 0 0 0 0 0 0 0 0 0 0 0 0 0 0 0
0 0 0 2 3 0 0 0 0 1 5 27 75 61 14 32 5 71 12 6 33 5 2 73 94 0 0 0 0 0 0 0 0 0 0 0 0 0 0 0 0 1 0 0 0 0 0 0 0
0 0 0 2 0 2 0 0 0 0 5 37 100 91 17 26 3 4 3 5 58 77 4 54 99 28 0 0 0 0 0 0 0 0 0 0 0 0 0 0 3 5 0 0 0 0 0 0 0
0 0 0 0 0 0 0 0 0 0 8 99 100 80 33 5 0 0 0 0 5 38 72 74 15 9 3 0 2 0 0 0 0 0 0 0 0 0 0 0 0 0 2 0 0 0 0 0 0
0 0 0 0 0 0 0 0 0 0 0 41 93 100 59 7 5 4 5 2 5 7 1 4 26 25 6 4 1 3 0 0 0 0 0 0 0 0 0 0 0 0 0 0 0 0 0 0 0
0 0 0 0 0 0 0 0 0 17 87 100 100 100 100 95 38 5 5 75 43 20 5 6 16 62 92 66 26 5 0 0 0 0 0 0 0 0 0 0 0 0 0 0 0 0 0 0 0
0 0 0 0 0 0 0 0 12 100 100 100 100 100 100 100 100 99 8 88 44 14 4 8 29 66 70 54 30 18 0 0 0 0 0 0 0 0 0 0 0 0 0 0 0 0 0 0 0
0 0 0 0 0 0 0 0 32 88 100 100 100 100 100 100 100 99 96 89 20 5 5 5 58 100 100 100 98 30 99 14 0 0 0 0 0 0 0 0 0 0 0 0 0 0 0 1 0

GFSSGP_prec_cloud_078.txt.gz
Cloud_Cover
100 98 99 91 98 100 100 100 100 92 100 100 100 100 100 100 92 23 0 0 1 24 1 1 0 16 0 0 3 1 36 0 0 0 7 21 0 0 3 2 1 0 0 1 1 6 61 96 97
100 100 62 80 60 100 100 72 69 100 100 100 100 89 100 51 94 0 0 0 1 14 3 0 0 0 0 0 7 0 3 2 6 8 0 3 9 5 3 23 5 17 75 5 5 19 100 100 100
100 84 71 99 75 100 91 98 100 100 100 100 89 100 98 70 43 0 0 0 22 19 11 0 2 0 0 0 0 2 12 2 0 5 5 4 3 5 0 2 5 4 16 36 5 98 99 100 100
100 95 59 96 98 100 100 100 100 100 100 98 100 92 74 100 21 0 0 0 12 1 5 0 1 1 0 0 0 1 5 0 0 6 2 0 1 4 0 5 5 5 6 5 6 98 100 67 99
99 84 89 84 100 100 100 100 91 100 97 69 72 99 56 100 28 0 0 0 2 39 4 0 0 0 0 0 2 0 1 1 4 3 5 0 0 2 0 5 5 5 4 5 62 55 100 92 3
98 51 63 100 100 100 100 91 99 89 69 84 96 100 96 98 100 0 0 27 57 48 43 1 3 0 0 0 2 4 0 0 0 0 0 0 0 0 0 3 0 0 4 5 69 5 7 2 1
100 86 83 100 100 100 97 78 100 100 71 72 100 100 54 37 100 1 7 38 82 64 39 21 6 5 0 0 0 0 0 0 0 4 0 0 2 1 3 2 0 0 5 31 7 5 1 0 2
100 95 67 82 46 100 98 100 100 80 100 100 100 49 61 9 100 4 28 33 87 76 36 35 34 40 37 17 3 1 1 2 0 0 0 1 0 0 0 0 0 0 2 5 2 3 3 0 0
98 100 100 100 94 89 100 100 100 100 93 75 79 89 29 24 34 92 27 49 49 54 16 0 22 34 87 98 5 0 0 0 0 0 0 30 60 25 64 0 0 0 0 0 0 4 1 0 0
83 100 100 99 79 100 100 100 100 100 100 99 85 80 70 57 100 92 10 15 15 5 15 35 72 75 91 31 27 17 64 77 59 94 46 11 32 15 0 0 0 0 0 0 0 0 0 91 57
63 100 100 100 95 50 70 100 100 100 85 48 63 100 19 78 100 100 1 0 0 0 8 26 100 83 20 60 68 41 21 14 36 99 28 5 17 28 0 1 1 4 40 60 56 33 66 17 13
4 22 37 100 100 91 97 61 97 82 48 68 67 100 28 100 26 100 0 0 0 0 0 18 42 37 9 0 43 26 6 6 24 2 8 0 0 1 12 13 9 56 70 0 10 3 0 0 2
15 24 70 53 100 100 100 100 100 99 78 33 100 89 60 93 5 70 2 0 0 0 0 5 24 38 0 12 30 25 4 2 0 0 0 0 0 2 36 12 47 55 44 6 12 30 20 6 18
14 13 17 34 80 57 100 100 100 86 97 100 95 42 88 11 34 28 5 0 0 0 0 0 9 5 6 28 19 2 12 1 14 1 0 0 2 6 5 32 44 42 33 7 11 1 81 61 77
1 5 5 5 7 5 94 41 98 93 79 100 98 12 54 61 43 93 5 0 0 0 0 0 0 0 10 3 12 7 0 42 35 6 0 0 0 1 3 11 40 41 0 0 0 4 22 60 25
2 4 39 9 9 5 29 39 82 96 32 100 94 34 68 100 6 91 4 4 1 0 0 0 0 0 1 16 18 22 32 65 76 28 2 0 0 0 0 22 32 2 16 51 52 99 84 92 83
0 34 45 4 5 5 31 26 100 83 56 94 62 6 90 100 83 26 8 4 18 0 0 0 0 0 0 4 2 18 25 33 66 42 28 0 0 0 2 13 12 0 29 25 70 86 100 60 92
5 40 4 65 5 26 65 37 67 100 100 96 100 90 95 94 73 9 6 2 25 1 0 0 0 0 0 0 1 4 0 7 4 54 32 0 0 0 0 1 0 16 98 46 46 19 8 47 20
20 20 32 6 3 64 97 52 7 100 100 100 100 100 99 29 45 12 12 3 5 1 0 0 0 0 0 0 0 0 0 0 1 20 0 0 0 0 0 0 0 0 35 27 0 0 0 35 0
0 4 4 0 0 13 66 58 91 100 79 100 100 96 100 90 44 42 30 5 0 3 3 3 3 0 0 0 0 5 2 12 25 24 0 0 0 4 0 0 4 1 43 0 0 1 62 0 0
0 4 4 4 0 0 4 71 71 79 98 98 100 100 100 100 97 26 45 4 5 3 4 7 4 0 0 0 0 6 3 0 0 0 0 0 1 0 4 0 20 0 18 46 0 0 2 68 0
0 0 8 0 1 16 17 95 60 97 82 100 99 78 98 100 91 54 62 5 5 0 0 12 5 0 0 0 0 1 25 13 15 11 9 6 1 90 3 0 0 0 10 0 0 0 11 25 34
4 0 0 1 0 0 2 85 10 58 77 94 100 100 52 100 88 72 78 7 1 4 0 1 22 2 0 0 0 0 0 12 5 52 1 7 1 0 30 5 0 1 0 0 0 0 0 0 53
0 0 0 5 0 0 5 65 2 28 5 84 78 100 100 100 100 99 47 5 0 91 5 20 29 100 5 8 2 0 2 1 27 5 11 22 24 2 0 5 98 2 0 0 0 0 0 3 0
0 0 0 1 0 0 3 4 4 2 10 86 100 64 100 96 100 100 100 10 7 8 99 5 5 78 94 29 6 1 0 0 0 0 1 90 70 33 1 0 71 0 0 0 0 4 0 0 0
0 0 0 3 0 0 0 2 0 4 24 65 61 56 96 100 74 100 94 100 33 4 10 17 5 100 100 46 19 4 0 0 0 0 24 11 58 74 4 0 0 1 2 0 0 2 0 13 0
0 0 17 5 5 4 0 0 0 0 7 88 100 94 90 84 71 70 82 98 50 2 3 3 97 62 79 98 5 4 0 0 0 0 0 1 0 46 0 0 0 3 0 0 0 2 0 1 0
0 0 0 0 2 4 3 0 0 0 28 100 100 100 90 50 76 100 100 37 4 0 5 1 22 5 91 100 98 6 0 0 0 0 0 0 12 0 13 0 1 0 0 0 1 0 0 0 0
0 0 0 0 0 1 5 12 0 35 100 100 100 100 100 98 22 48 100 100 16 7 2 92 96 91 18 40 100 76 30 0 0 0 0 0 0 0 0 0 1 98 54 1 0 0 9 9 2
0 0 0 0 0 0 51 2 11 18 100 100 100 100 100 100 100 100 90 100 97 36 21 79 95 88 75 39 72 100 99 78 6 0 0 0 0 0 0 0 4 2 3 4 5 0 0 2 0

GFSSGP_prec_cloud_081.txt.gz
Cloud_Cover
18 100 73 87 86 100 100 96 100 100 100 94 99 100 100 52 53 44 0 71 98 9 0 0 0 0 0 3 4 89 0 0 0 3 2 0 3 2 0 0 0 0 2 14 7 77 70 99 100
96 99 14 82 80 100 99 100 100 100 100 78 64 100 100 94 0 6 14 76 70 25 2 0 0 0 0 0 0 4 3 7 7 6 1 5 2 8 56 30 10 98 87 77 32 7 100 100 100
100 95 100 100 96 100 100 100 100 100 87 82 100 100 78 94 20 3 7 60 88 92 3 0 0 0 0 1 1 6 1 3 9 5 2 4 5 1 2 5 5 6 14 12 99 100 99 100 100
100 99 97 99 100 100 100 85 100 97 62 96 80 98 9 83 24 3 12 95 100 100 5 0 0 0 1 0 2 1 0 0 3 5 6 5 5 15 5 5 5 5 7 8 87 98 84 100 75
100 100 95 100 100 100 100 98 100 100 61 82 73 17 54 88 19 7 37 100 99 95 0 0 0 3 2 1 2 2 0 1 0 1 2 5 0 1 3 3 5 5 15 10 90 100 96 1 5
100 99 100 95 100 100 100 100 100 100 100 88 7 13 31 91 3 32 99 100 100 48 75 0 0 0 8 5 2 0 1 0 0 2 1 6 0 0 0 3 0 5 17 34 5 40 1 0 1
100 49 75 100 99 100 99 96 100 100 97 100 95 5 96 73 13 36 100 100 100 93 30 25 16 0 9 1 4 0 0 0 2 0 0 0 0 0 0 6 3 5 5 79 52 4 0 0 5
100 47 87 100 98 96 98 95 100 100 98 48 33 5 26 5 2 30 100 39 51 85 65 98 24 27 28 12 0 0 0 0 0 0 0 0 0 0 0 0 0 0 5 30 2 0 0 0 0
91 62 98 82 60 97 83 100 100 93 100 80 77 31 34 58 0 44 89 17 30 83 100 100 45 100 100 77 2 0 0 0 0 0 5 79 25 29 2 0 0 0 0 0 0 0 6 0 0
98 40 90 100 72 80 99 100 100 100 99 100 66 95 74 8 4 30 95 100 78 80 89 100 70 76 42 51 7 2 19 75 89 91 52 93 91 0 0 0 0 0 0 0 0 0 0 81 26
100 78 100 100 86 95 90 100 100 99 98 62 33 93 83 12 5 12 48 56 78 75 100 6 99 41 97 59 24 48 62 94 98 78 51 6 40 0 0 0 0 0 1 51 61 99 65 81 94
98 70 100 100 41 85 69 100 100 100 96 100 58 44 81 5 5 0 26 50 37 52 77 100 97 54 72 23 98 95 80 46 58 7 12 8 42 75 100 96 36 99 20 20 100 19 6 54 34
88 100 21 100 99 91 96 33 100 100 88 100 60 52 32 13 82 0 13 28 12 29 48 99 21 28 1 100 39 49 16 71 2 22 97 95 100 100 100 100 100 66 57 47 32 44 75 79 62
89 74 92 33 100 100 99 100 100 100 98 100 40 53 93 7 23 26 0 2 0 6 36 32 15 0 4 95 26 80 94 25 68 29 3 47 100 85 96 92 60 100 43 85 4 73 34 99 49
69 38 33 27 36 100 100 100 100 100 100 100 100 45 100 16 5 46 0 0 0 0 28 28 15 0 94 0 5 95 93 84 71 0 2 1 9 90 92 18 100 48 1 4 0 94 100 92 73
10 72 97 32 41 68 81 100 100 95 98 100 100 86 80 93 4 9 5 0 0 0 0 0 39 0 6 94 89 99 100 96 59 34 2 1 0 0 74 96 95 29 55 46 89 15 100 44 36
1 69 92 37 34 18 94 88 100 99 86 51 100 99 96 85 39 5 1 0 0 0 0 0 4 2 8 64 37 100 82 100 39 100 100 86 22 0 95 100 37 2 56 82 93 74 18 28 100
5 56 82 74 32 8 100 80 62 93 40 60 98 100 99 45 25 5 14 0 0 0 2 0 0 0 16 2 3 100 1 86 99 96 100 1 91 25 48 38 1 92 45 27 100 52 93 73 91
97 16 100 90 31 97 70 100 5 100 100 100 100 100 93 48 90 81 67 22 0 0 0 1 0 0 0 0 93 8 54 79 100 100 0 0 50 31 0 84 0 98 56 96 0 0 57 55 1
0 100 88 44 100 76 100 97 10 19 100 100 94 98 90 100 94 81 100 76 3 4 4 0 0 4 1 0 53 50 89 46 100 100 0 76 80 8 31 55 43 5 80 0 0 100 11 1 87
3 100 94 2 4 3 32 60 100 33 85 100 100 100 97 43 100 99 54 100 20 4 0 0 1 0 0 15 8 23 7 90 9 88 32 7 46 89 36 0 77 8 55 50 0 0 98 82 0
5 5 100 39 5 5 4 62 92 20 58 67 100 91 87 100 100 99 62 100 15 2 1 5 2 5 2 4 4 43 10 50 46 53 100 88 73 50 100 6 5 0 55 95 0 0 71 14 78
4 12 58 96 0 100 69 65 81 99 89 42 100 90 46 26 98 78 90 89 40 2 0 0 4 6 5 0 69 20 44 98 78 100 28 99 17 5 87 77 41 0 9 2 49 0 0 100 14
4 58 14 48 3 5 24 23 88 100 97 14 96 77 84 99 74 94 98 98 56 5 16 0 2 24 10 5 4 6 23 28 100 57 44 26 37 0 4 88 43 0 27 20 5 0 0 0 2
8 82 55 16 1 4 3 100 6 100 15 90 51 100 100 24 100 95 87 84 93 7 6 98 14 0 20 23 30 5 2 0 10 70 30 100 100 77 3 2 19 1 0 1 5 0 0 0 0
5 3 5 4 4 4 77 96 42 11 47 20 62 78 100 100 100 100 30 81 97 22 5 5 97 6 4 74 4 13 10 0 0 0 21 11 100 89 17 0 0 1 0 1 4 1 0 26 0
9 2 2 75 20 7 46 5 7 29 43 81 78 19 90 100 100 34 18 100 42 98 4 0 6 95 6 72 6 18 5 2 0 28 19 10 38 96 95 0 10 6 5 6 79 15 39 0 0
22 3 7 22 98 93 88 1 18 1 41 100 100 100 66 33 100 75 96 42 100 51 70 0 0 0 4 5 7 88 90 5 0 0 0 0 18 3 100 20 64 40 45 36 1 78 26 3 14
0 0 10 79 94 100 100 74 0 0 70 98 100 100 100 100 100 54 100 100 100 99 100 24 0 0 0 0 5 22 92 59 6 0 0 0 0 0 0 22 72 100 100 69 97 7 85 48 39
4 5 5 6 6 94 100 95 73 5 32 91 100 100 100 100 100 98 95 55 50 100 98 35 29 1 0 29 6 0 62 41 98 5 0 0 0 0 0 0 2 8 18 93 14 1 1 1 15

GFSSGP_prec_cloud_084.txt.gz
Cloud_Cover
100 95 91 92 100 100 100 100 100 100 100 100 85 80 41 64 59 27 50 14 16 11 4 0 0 0 1 100 100 1 0 0 2 0 0 3 0 1 0 0 1 1 4 7 6 60 5 48 33
100 65 50 95 90 100 95 100 100 100 100 27 8 5 98 3 41 45 10 16 16 0 0 0 0 4 1 6 6 1 7 1 4 0 0 1 11 69 5 6 8 48 84 84 16 37 23 88 100
100 99 100 98 100 100 100 100 100 98 22 38 38 20 57 7 17 7 0 0 0 8 0 0 0 5 0 1 0 8 0 2 4 1 0 1 1 2 5 1 3 6 66 84 59 73 35 99 99
84 100 93 100 100 100 100 93 100 52 100 85 0 84 17 35 24 9 12 36 76 0 0 0 0 1 1 0 2 4 0 12 2 0 1 5 1 5 3 4 5 5 56 100 87 92 58 48 12
100 100 100 100 100 100 100 83 100 45 97 98 0 98 37 91 2 53 97 23 0 1 1 2 0 0 0 0 2 5 5 6 0 0 0 2 0 0 0 3 5 6 100 98 99 89 0 0 2
100 85 94 100 100 100 100 92 100 100 78 100 1 96 13 1 1 86 83 70 70 2 0 9 1 14 0 0 3 0 0 1 0 0 0 0 0 0 0 2 5 36 99 8 5 0 0 0 1
100 98 97 99 100 100 100 67 100 100 93 100 3 35 16 19 21 96 38 87 55 0 0 0 10 2 3 3 1 0 0 1 1 0 0 0 0 3 10 1 5 5 5 4 0 0 0 0 0
100 100 100 96 100 100 54 100 97 100 91 100 28 1 22 0 57 95 97 99 57 44 0 0 0 0 0 0 4 1 0 0 0 0 0 0 0 0 0 0 5 5 0 2 0 0 0 0 5
100 100 100 100 77 81 54 100 87 100 100 100 75 0 6 0 41 100 0 41 47 68 61 11 4 63 0 0 3 0 0 0 0 0 11 36 0 0 0 0 0 0 0 0 0 91 100 9 0
100 100 100 100 68 100 66 97 100 100 100 99 22 4 54 1 29 33 42 6 92 50 40 89 0 0 0 0 0 90 0 0 37 76 2 57 0 0 0 0 0 0 0 0 21 98 100 90 61
97 100 96 100 26 96 100 99 100 100 99 100 12 5 4 91 84 0 4 24 29 65 0 5 77 23 50 0 1 19 5 0 82 23 3 0 0 0 0 0 2 20 71 62 100 10 0 100 99
100 97 96 99 21 100 80 100 100 100 100 100 27 24 4 11 18 16 4 98 27 100 41 0 10 98 17 0 72 65 5 2 8 1 79 0 22 55 100 75 100 24 100 100 10 65 82 71 41
99 93 76 5 20 58 68 79 100 100 100 89 97 56 7 5 5 67 54 76 65 7 1 0 12 18 79 24 99 16 73 44 0 98 50 80 54 71 100 88 68 34 99 95 57 78 41 76 100
100 48 96 29 96 88 48 96 100 100 100 90 100 74 5 5 4 98 46 60 7 12 84 2 4 0 0 69 0 75 100 0 1 48 84 2 33 28 100 41 72 54 50 65 57 0 32 44 39
100 77 94 78 51 75 100 98 95 99 86 98 100 48 17 16 5 43 44 44 0 89 1 0 0 0 0 1 100 70 4 100 1 0 37 83 28 19 72 27 46 16 1 40 14 1 2 92 7
84 89 100 99 22 100 100 100 100 100 81 87 100 39 23 33 4 6 0 1 0 100 46 0 0 0 7 6 77 100 100 72 6 0 0 0 0 16 89 7 30 77 79 68 15 6 0 42 19
98 77 20 79 22 18 72 100 100 100 99 86 98 94 59 15 24 38 3 0 0 70 0 90 34 0 73 4 90 60 8 34 100 14 49 0 0 3 6 8 30 9 54 54 2 1 0 59 84
5 22 99 61 34 91 52 30 100 100 100 84 100 94 94 44 90 5 5 7 0 10 0 100 47 0 96 0 78 12 97 45 99 51 47 4 10 0 31 40 8 53 23 36 88 36 38 1 100
7 3 100 86 64 23 38 4 95 100 100 100 87 97 68 45 62 10 24 25 5 0 0 51 34 0 17 0 65 12 50 59 76 54 5 3 73 14 0 7 0 100 3 73 6 0 0 91 0
6 100 99 5 98 100 8 81 96 51 86 100 84 95 44 70 98 13 30 37 0 4 0 0 2 0 0 0 0 77 100 6 46 98 4 97 95 3 0 84 34 50 41 0 11 66 20 83 0
1 82 48 83 100 16 100 13 99 100 96 89 100 100 100 66 98 73 26 47 10 3 5 0 0 0 0 0 0 4 58 39 18 88 0 2 40 4 75 1 85 24 2 0 0 50 1 33 14
0 10 92 98 100 78 100 85 100 100 99 8 100 100 100 100 57 93 96 63 49 0 1 5 4 0 0 33 0 0 78 24 0 3 9 15 68 28 5 0 0 84 45 53 0 88 35 0 0
4 98 72 100 100 33 100 98 100 98 91 58 100 100 100 100 100 100 21 38 100 1 0 0 0 0 0 0 21 7 0 51 96 33 19 2 0 79 22 19 0 4 100 38 74 0 3 61 87
0 64 83 81 7 5 47 100 98 17 15 100 26 100 100 100 100 100 100 25 100 14 0 0 0 0 2 10 28 2 0 80 69 85 92 15 0 0 0 63 0 4 45 7 2 0 2 51 1
2 15 52 29 18 5 25 98 78 11 10 65 47 97 100 100 100 100 100 98 53 76 0 0 0 1 0 3 80 2 2 3 57 35 96 82 97 4 10 2 0 1 0 29 5 0 0 0 0
4 4 13 23 17 17 3 99 0 47 100 100 83 79 100 100 100 100 100 100 97 89 0 0 0 0 5 0 13 1 0 1 0 94 84 75 70 97 80 32 0 0 0 0 27 0 0 0 0
6 0 58 100 20 13 34 4 97 49 100 100 96 94 96 100 100 100 95 61 87 100 10 0 0 0 0 5 4 9 0 3 5 5 1 0 42 78 47 49 90 4 0 5 5 1 34 4 4
96 2 4 12 100 100 22 0 0 3 100 100 100 100 100 99 100 46 99 84 75 91 24 0 0 0 0 0 5 2 0 5 65 5 7 0 91 84 100 100 100 100 5 5 82 16 74 100 11
3 30 2 3 99 100 100 33 99 12 21 100 100 100 100 100 100 89 100 100 100 100 100 100 19 44 0 0 2 0 0 0 1 98 7 5 0 11 72 100 100 100 9 34 97 26 61 84 3
85 60 5 5 0 45 70 100 24 28 100 100 100 100 100 100 92 100 100 100 100 100 100 100 100 98 38 0 0 0 0 0 0 0 99 69 5 0 0 1 31 0 10 5 100 84 5 5 10

GFSSGP_prec_cloud_087.txt.gz
Cloud_Cover
100 100 100 100 100 100 100 100 100 100 100 97 50 58 96 10 0 1 0 0 0 0 0 0 0 2 5 4 0 0 0 1 0 0 0 1 0 0 0 0 1 7 5 1 2 5 5 5 5
90 98 94 96 100 100 100 100 100 100 85 100 11 0 0 18 19 9 21 0 0 0 0 0 0 0 0 0 1 3 0 0 0 0 0 1 1 5 6 3 5 52 30 50 66 5 33 5 5
37 100 100 100 100 100 100 100 100 100 85 100 2 0 0 29 31 2 0 0 0 0 0 12 0 0 2 12 6 0 0 0 0 0 0 1 0 4 1 2 5 5 5 38 52 5 5 91 96
96 100 100 100 100 100 100 100 100 94 100 100 2 0 1 1 0 0 0 0 0 0 0 0 3 0 0 4 2 1 1 0 0 2 0 0 0 0 0 5 5 5 70 5 2 5 5 5 25
93 100 100 100 100 100 100 100 100 87 100 45 1 72 36 2 0 0 0 0 0 0 0 0 0 0 0 0 3 2 0 0 0 0 0 0 0 0 2 7 95 5 7 6 1 0 0 0 2
94 100 100 99 100 100 100 100 7 100 100 4 4 87 12 6 0 0 0 0 0 0 0 0 0 0 0 0 0 1 0 5 13 0 0 0 0 0 5 5 5 5 5 1 0 0 0 0 2
100 100 92 86 100 100 100 100 80 71 96 5 2 1 28 96 1 39 39 1 0 0 0 0 0 0 0 0 0 0 0 1 1 0 7 0 0 0 1 5 4 0 0 0 2 3 0 0 3
100 100 97 100 100 100 100 80 94 77 97 1 2 0 46 93 92 0 0 0 0 0 0 0 0 0 0 0 0 0 0 0 0 0 0 0 0 0 4 5 0 0 0 0 10 0 0 1 5
100 100 100 100 90 100 86 87 69 67 92 60 37 1 2 0 8 61 39 8 5 0 0 0 0 0 2 0 0 0 0 0 0 16 0 0 0 0 0 0 0 0 16 43 91 26 2 0 99
100 100 100 100 100 86 96 85 100 47 98 15 12 5 10 0 0 0 3 99 6 39 0 0 0 0 0 0 2 0 0 0 1 0 0 2 5 0 0 0 5 100 100 98 17 90 5 2 21
100 100 100 100 100 100 96 100 99 87 99 99 1 62 1 2 100 20 2 7 0 0 0 0 0 0 0 0 0 0 0 3 1 0 1 64 94 4 2 4 4 11 100 77 8 73 1 1 12
100 96 100 100 80 37 96 99 99 100 100 100 73 10 7 0 0 37 3 0 52 1 0 0 2 0 0 0 0 0 0 0 0 8 14 26 100 7 0 80 54 35 6 5 0 0 12 42 48
62 76 100 100 100 87 80 100 100 100 100 100 100 20 6 68 0 6 0 0 0 93 0 0 3 0 30 28 0 0 0 0 0 1 0 3 96 4 33 46 8 96 23 6 3 0 3 63 3
95 92 91 100 100 7 21 76 100 100 100 100 100 54 42 71 99 100 0 4 54 1 0 0 0 39 54 41 61 43 0 0 0 0 0 36 14 51 2 0 12 88 64 2 0 1 0 3 10
93 37 100 46 100 85 19 100 100 100 100 100 82 33 62 7 100 100 42 100 0 0 18 0 0 81 94 20 76 61 66 0 0 46 0 1 0 0 0 0 0 23 44 0 0 0 41 24 0
88 84 100 9 71 18 5 94 100 97 37 65 100 44 42 100 75 100 42 2 0 0 0 0 0 0 11 8 3 56 33 8 33 0 0 0 0 0 0 0 28 2 2 1 0 3 46 0 0
11 84 10 44 24 68 42 83 100 100 95 73 100 66 35 100 12 98 2 6 0 56 6 0 0 0 0 0 100 43 58 2 0 0 0 0 0 0 0 21 3 4 1 0 0 0 77 94 0
5 5 37 100 24 20 91 100 100 100 100 75 100 100 46 100 9 88 4 0 5 63 0 0 0 0 0 0 0 0 0 3 34 15 1 0 0 0 0 0 1 28 17 36 2 28 40 96 9
0 39 45 100 100 90 95 100 100 78 99 100 100 100 100 97 94 28 94 0 0 5 0 92 0 0 2 0 0 0 77 12 0 100 4 5 0 0 0 1 2 0 0 0 0 0 0 37 4
2 100 98 100 100 86 75 86 86 98 98 88 100 84 100 99 8 44 0 5 1 1 4 37 2 0 1 1 0 0 0 0 16 31 2 85 80 4 1 6 0 83 0 0 0 0 0 0 0
5 100 88 100 100 90 100 100 100 54 89 53 100 100 100 100 18 55 2 0 5 0 1 0 0 0 0 0 81 58 50 0 0 28 43 0 47 0 0 3 3 1 0 0 0 0 8 0 0
5 12 92 67 100 73 100 100 100 100 96 19 96 100 100 100 98 93 100 1 0 2 5 0 0 0 0 0 69 69 28 1 32 20 0 0 66 10 0 5 9 53 2 0 0 0 0 0 0
0 12 100 100 99 100 100 100 100 100 30 56 92 100 100 100 100 100 100 100 86 7 11 0 0 0 0 6 6 5 50 46 3 5 3 0 10 86 5 40 5 17 28 94 0 0 0 0 0
0 16 40 94 27 97 60 100 97 96 98 100 100 72 100 100 100 100 100 100 100 68 14 0 0 0 1 14 17 0 6 9 45 2 62 86 100 3 3 72 2 0 1 0 0 0 0 0 0
0 67 49 97 100 5 31 98 92 89 90 100 100 86 92 100 100 100 100 100 100 76 0 0 0 0 0 0 40 1 0 4 13 19 35 1 90 0 43 16 5 5 1 0 0 0 0 0 0
0 67 94 20 100 92 92 88 98 100 93 100 58 100 80 100 100 100 100 100 100 100 39 12 0 0 0 35 2 1 0 4 56 5 100 100 3 6 94 10 6 87 27 3 4 3 0 0 0
0 3 14 100 99 54 2 22 98 59 76 100 100 100 100 97 100 100 100 100 100 100 100 21 11 6 31 0 4 5 3 10 5 75 42 93 82 2 9 71 100 100 27 5 5 5 8 6 3
0 3 9 44 5 88 5 16 70 65 79 100 100 99 100 100 100 100 99 97 100 34 94 95 100 100 100 100 24 0 1 1 0 3 12 58 12 48 44 100 100 100 11 58 20 10 16 3 2
0 2 0 5 30 29 97 87 17 4 9 36 100 100 100 100 100 100 100 100 98 100 100 100 100 100 100 100 100 7 0 0 0 0 3 2 55 5 5 16 78 81 88 38 5 1 0 29 5
5 5 0 5 18 100 100 97 100 100 82 99 100 100 100 100 100 100 100 100 100 100 100 100 100 100 100 100 87 12 0 0 69 99 1 5 5 10 5 2 3 7 0 0 5 3 0 2 1

GFSSGP_prec_cloud_090.txt.gz
Cloud_Cover
99 77 98 98 100 100 100 100 100 100 100 100 4 19 3 3 3 1 0 0 0 0 0 0 2 3 2 0 0 0 0 33 25 8 0 0 0 0 0 4 5 11 5 8 2 5 7 5 5
89 73 72 92 99 100 100 97 100 100 100 100 44 8 37 9 0 43 26 0 0 0 0 0 0 0 1 0 0 12 1 0 0 0 0 0 2 1 0 5 30 30 25 6 5 5 5 5 5
100 100 94 100 100 100 100 100 100 92 99 50 27 100 2 38 0 4 0 0 0 3 0 0 0 0 13 10 1 1 0 0 0 2 4 1 0 0 5 10 5 5 76 5 4 3 5 4 42
100 100 100 100 100 100 100 100 99 72 46 98 64 0 0 7 0 0 0 0 0 0 0 0 4 0 6 0 0 0 0 0 1 0 0 0 0 0 5 5 5 5 6 5 1 0 1 5 85
100 100 100 100 100 100 91 100 45 98 0 0 0 0 0 0 0 0 0 0 0 0 1 0 0 0 0 0 1 0 0 6 11 6 0 1 0 5 5 5 1 4 4 0 0 0 0 5 20
100 100 100 100 100 100 100 100 72 100 0 0 0 0 0 0 0 0 0 0 0 0 11 0 0 0 0 0 1 0 0 1 1 6 2 0 3 7 2 4 5 5 0 0 0 0 0 4 20
100 100 100 100 100 100 100 100 100 78 5 0 0 0 0 0 0 0 0 0 0 0 0 0 0 5 0 6 2 0 2 1 0 0 0 2 3 5 10 0 0 0 4 0 0 0 0 0 0
100 100 100 100 100 100 95 100 100 16 5 0 0 16 38 0 0 0 0 0 0 0 0 0 0 0 0 4 0 0 0 0 0 1 1 3 0 2 0 0 2 96 6 2 0 0 0 2 5
100 100 100 100 100 100 98 89 100 51 38 3 0 0 0 0 0 0 0 0 0 0 0 0 0 0 0 4 1 0 0 0 5 4 5 0 0 1 0 16 5 26 78 0 0 0 2 31 100
100 100 100 100 100 99 100 100 56 81 100 5 5 20 4 2 4 2 0 0 0 0 0 0 0 0 0 0 0 0 0 0 4 3 5 4 0 4 0 5 18 100 18 0 5 2 5 51 70
95 100 100 100 100 100 100 100 100 97 100 40 5 0 0 0 1 9 2 0 0 0 0 0 0 0 0 0 0 0 0 0 0 2 5 4 4 0 10 76 74 46 0 0 0 0 94 100 31
95 100 100 100 100 99 100 100 100 100 63 100 5 4 4 1 0 0 0 0 0 0 0 0 0 0 0 0 0 0 0 0 0 0 4 0 4 2 5 74 84 4 0 0 2 0 2 5 89
97 100 100 100 94 100 100 100 100 100 100 68 72 5 5 1 5 0 0 0 2 0 0 0 0 0 5 0 0 0 0 0 0 0 58 0 4 5 21 5 5 1 0 0 0 2 1 1 12
80 100 100 100 95 100 100 100 100 89 100 92 98 75 5 5 1 4 0 0 21 52 0 4 0 35 47 4 0 0 0 0 0 0 0 1 0 0 0 74 2 0 0 0 0 0 3 0 0
100 100 100 100 100 100 100 98 79 100 100 100 100 100 66 52 36 1 0 0 0 4 0 0 0 49 33 29 0 0 0 0 0 0 0 0 0 0 0 6 12 0 0 0 0 0 0 0 55
100 100 100 100 93 91 38 89 100 100 100 94 100 100 35 46 84 43 8 0 0 0 0 0 0 0 0 0 0 0 0 0 0 0 0 0 0 0 0 0 0 3 0 0 0 0 0 0 0
77 99 100 100 100 87 48 100 100 100 100 100 100 100 89 24 5 94 53 0 0 0 0 0 0 0 0 0 0 0 1 0 5 0 0 0 0 0 0 0 1 0 0 0 0 66 0 0 17
25 28 38 71 100 93 88 100 100 100 100 98 36 100 100 100 86 16 2 0 0 0 0 0 0 0 0 3 69 0 4 0 3 0 0 0 0 0 0 0 0 0 0 0 0 4 0 0 0
4 7 100 100 100 100 100 77 97 100 100 100 100 100 90 97 3 5 44 3 0 0 0 0 0 0 0 0 0 0 1 32 48 0 1 5 0 0 0 0 1 0 0 0 0 0 33 0 0
4 49 99 95 100 100 100 100 99 100 100 100 100 91 46 100 100 13 0 4 0 0 0 0 0 0 0 0 0 15 10 2 24 1 0 0 5 18 0 0 0 0 0 0 0 0 0 12 0
1 100 74 86 99 100 100 100 100 100 100 100 98 100 98 55 83 2 23 0 0 2 0 0 0 0 0 0 0 16 2 9 97 8 0 1 57 8 5 0 4 0 0 0 0 0 0 0 0
0 75 95 19 76 100 100 100 100 100 100 100 100 100 100 100 100 47 13 94 3 0 9 0 0 0 0 3 13 28 0 5 5 11 4 6 55 0 5 5 4 0 0 0 4 0 0 0 0
0 100 100 100 61 99 100 100 100 100 100 100 96 95 100 100 100 100 100 47 100 100 5 5 0 0 0 0 19 73 41 4 2 5 5 100 34 86 4 29 81 54 26 5 6 16 0 0 0
1 100 100 99 100 82 100 100 100 100 100 100 94 88 80 100 100 100 94 100 100 100 98 58 5 0 0 0 3 0 0 5 2 4 46 100 32 5 3 3 25 51 64 8 97 92 8 5 0
0 96 80 21 5 100 99 86 100 99 100 97 79 7 77 98 100 100 100 98 100 100 100 73 53 4 2 5 5 0 1 50 4 42 62 5 5 4 5 2 44 81 51 18 80 29 42 27 4
0 89 60 24 2 36 99 12 100 100 100 100 99 69 100 62 99 100 100 97 100 100 100 87 100 100 100 100 100 23 1 29 24 74 36 5 22 4 67 54 38 69 97 5 96 25 4 33 96
0 38 54 12 6 99 5 22 44 100 96 100 100 100 100 100 99 100 100 100 100 100 100 100 82 96 100 100 100 97 80 38 0 12 71 70 63 58 2 17 9 98 100 21 69 7 5 14 26
0 7 79 5 44 96 20 13 5 100 100 100 100 92 99 100 100 100 100 100 100 100 100 99 100 100 100 100 100 100 100 43 2 1 100 100 32 11 5 25 71 91 99 100 7 27 1 3 5
0 0 8 3 52 94 67 40 44 58 100 100 100 88 95 98 100 100 100 100 100 98 54 96 100 100 100 100 100 100 100 98 62 100 100 100 97 61 99 48 77 4 68 98 0 5 0 1 5
0 0 0 5 64 99 100 98 99 26 100 100 99 100 100 100 100 100 100 100 100 94 100 99 100 100 99 100 100 100 100 100 100 100 100 100 100 100 18 5 9 6 8 5 0 1 5 4 4

GFSSGP_prec_cloud_093.txt.gz
Cloud_Cover
100 38 100 54 100 100 100 100 46 99 5 1 71 48 5 2 0 0 0 0 0 0 0 0 0 6 5 5 5 5 12 30 4 68 94 54 34 12 5 5 13 5 3 27 94 80 5 25 6
87 84 100 96 100 100 100 94 53 60 16 0 3 4 3 0 1 5 19 8 0 0 0 0 0 1 1 0 0 0 0 0 0 1 0 4 2 5 5 5 5 5 5 7 5 5 6 5 6
100 100 97 98 100 99 100 100 100 37 14 15 38 1 16 70 50 18 0 0 0 0 0 0 0 0 0 0 10 0 0 0 1 5 12 5 0 8 4 6 5 5 5 0 0 2 4 5 43
100 97 100 100 100 100 100 91 92 18 84 28 1 0 33 5 0 1 1 0 1 8 0 0 0 15 0 0 4 0 0 0 0 0 2 1 6 5 3 5 5 5 5 12 0 0 5 56 49
100 100 100 100 100 100 100 100 85 21 92 22 78 7 16 0 0 0 0 0 8 16 0 0 0 6 0 0 0 2 2 1 1 1 3 0 8 5 5 5 5 5 0 0 4 6 5 5 99
100 100 100 100 100 100 95 97 98 40 17 0 0 0 5 0 0 0 0 0 0 8 0 0 0 0 0 2 1 2 10 5 13 4 1 2 5 7 8 5 4 39 0 0 0 2 7 5 55
100 100 100 100 100 100 100 90 100 12 0 0 0 7 29 0 0 0 0 0 10 6 0 0 0 0 0 0 4 2 2 6 5 0 2 6 4 2 1 12 27 2 0 0 0 2 2 2 26
100 98 100 100 100 100 89 94 100 72 5 2 0 1 37 0 0 0 0 0 32 20 0 0 0 0 0 0 0 0 2 0 0 0 1 30 17 5 5 5 3 0 0 0 0 68 78 74 98
100 100 91 84 100 100 91 93 100 15 0 0 0 0 0 0 0 0 0 1 21 15 2 0 9 0 10 0 0 1 1 0 2 3 0 7 2 12 68 5 1 0 0 0 2 94 100 100 100
99 100 94 100 100 100 100 76 88 39 30 0 0 0 0 0 0 0 0 9 24 21 17 2 0 0 0 0 0 0 0 0 2 13 0 0 2 4 12 88 0 0 4 52 38 5 96 100 100
77 100 100 100 100 100 100 75 98 72 66 9 5 0 0 5 0 0 0 0 0 0 1 0 0 0 0 0 0 9 0 0 0 0 0 0 6 38 98 17 0 0 0 8 70 92 72 98 100
100 100 100 100 100 100 99 96 96 96 74 43 5 1 0 0 0 0 0 0 0 0 0 0 0 0 0 0 0 0 0 0 7 0 2 0 2 5 30 0 0 0 1 0 47 82 98 67 10
100 100 100 100 98 100 100 100 100 100 100 14 23 83 1 4 0 79 0 0 0 0 0 0 0 0 0 0 0 0 0 0 3 0 1 1 4 14 1 0 0 0 0 0 4 4 91 100 75
100 100 100 100 100 100 100 100 100 100 100 24 26 26 71 0 0 0 0 0 0 0 0 0 0 0 0 0 0 0 0 0 0 1 0 0 1 8 0 0 0 0 0 0 0 0 2 6 93
100 100 100 100 100 100 100 100 100 100 98 100 28 7 68 5 0 0 0 0 0 0 0 0 0 0 0 0 0 0 0 0 0 0 1 0 0 4 0 0 0 0 0 0 0 0 0 0 0
100 100 100 100 100 100 100 100 100 100 100 100 37 5 1 0 0 0 1 0 0 0 0 0 0 0 0 0 0 0 0 0 0 0 0 0 0 0 0 0 0 0 0 0 0 0 0 0 0
98 96 100 100 100 100 100 100 100 100 100 94 97 18 12 0 98 58 60 0 0 0 0 0 0 0 0 0 0 0 0 0 0 0 3 0 0 0 0 0 0 0 0 0 0 0 0 0 0
45 87 100 100 98 100 100 100 100 100 100 99 100 81 8 28 12 0 94 16 0 0 0 0 0 0 0 0 0 0 0 0 0 4 28 8 1 0 0 0 0 0 0 0 0 0 0 0 0
0 66 98 100 100 100 100 100 100 100 98 100 100 46 5 5 0 13 29 0 0 0 0 0 0 0 0 0 0 0 5 0 0 0 5 5 11 10 5 19 5 5 5 0 0 0 0 0 0
1 100 95 100 100 100 100 100 100 100 100 100 100 100 29 7 90 78 0 0 0 0 0 0 0 0 0 0 0 0 73 40 18 6 5 2 8 93 58 41 76 19 12 5 5 0 0 0 0
4 100 100 100 100 100 100 100 100 100 100 100 100 100 98 82 16 0 1 0 0 1 0 0 0 0 0 0 0 0 4 65 4 1 6 55 11 29 76 19 57 60 79 26 5 5 0 0 0
1 71 100 100 100 100 100 100 100 100 100 100 100 100 100 34 90 68 77 0 0 3 0 0 0 0 0 0 2 2 2 2 5 3 76 76 5 2 33 43 34 72 50 52 32 6 5 5 0
2 100 96 88 78 58 100 99 100 100 100 100 100 82 100 65 81 23 67 62 82 100 48 0 0 0 2 5 0 0 7 2 2 5 100 5 15 0 5 87 62 68 82 68 5 5 7 22 10
66 100 61 31 13 36 76 100 100 85 100 100 100 74 92 100 63 93 90 100 100 99 100 12 0 2 90 100 24 4 21 5 5 5 81 93 1 0 5 5 8 63 88 78 5 5 5 17 54
0 89 46 64 15 5 5 100 100 100 98 100 100 91 100 86 96 100 100 93 100 100 100 94 5 77 100 100 81 22 28 42 6 26 24 6 2 1 5 9 5 18 94 97 56 6 5 12 94
0 9 4 59 3 2 58 43 100 100 100 83 100 100 100 82 79 100 100 100 93 98 97 96 33 50 100 100 24 93 100 97 7 93 83 5 4 1 5 5 50 27 77 81 5 5 1 5 81
0 0 2 80 12 0 3 1 85 100 100 96 100 100 100 100 100 100 100 100 100 92 91 88 100 100 8 94 96 99 100 100 19 95 100 100 66 4 5 1 38 8 16 82 0 5 0 3 5
0 0 0 5 5 0 0 1 1 100 100 62 100 100 100 99 100 100 100 100 94 99 100 100 70 100 78 52 8 31 98 100 38 100 100 100 100 100 11 4 1 14 3 96 0 2 5 0 2
0 0 0 28 5 0 0 1 19 44 100 100 100 100 98 100 100 100 100 100 100 100 100 100 100 100 89 40 24 13 100 100 100 100 100 100 100 100 84 45 20 27 99 98 24 25 5 3 0
0 0 0 5 25 0 0 54 99 98 100 100 100 100 100 100 100 100 100 100 100 100 100 100 100 100 100 100 98 97 100 100 100 100 100 100 100 100 100 100 81 32 73 100 82 75 5 4 3

GFSSGP_prec_cloud_096.txt.gz
Cloud_Cover
67 100 100 100 100 88 100 92 0 14 1 5 5 5 1 0 0 0 0 0 1 36 80 2 5 20 10 5 64 88 97 99 98 88 98 54 7 12 5 60 100 6 6 100 18 5 5 5 3
75 100 100 100 100 93 100 96 5 7 1 5 5 5 1 11 0 1 8 14 0 0 0 0 0 2 3 0 0 11 4 1 0 4 0 0 4 5 44 84 11 14 8 5 7 5 5 5 6
100 100 100 100 100 98 100 72 0 1 0 4 0 0 0 64 12 12 2 1 0 9 0 0 0 0 0 3 5 0 13 13 0 6 8 12 13 12 7 25 7 5 12 5 4 7 7 48 32
100 100 100 100 100 100 82 52 4 0 3 20 2 12 4 13 0 51 24 0 7 18 0 0 2 11 16 17 2 0 0 2 0 5 4 14 5 5 5 5 14 11 4 4 1 5 5 9 74
98 100 100 100 100 100 94 85 6 7 14 0 1 73 39 45 2 25 18 3 26 11 0 0 7 10 6 17 8 5 4 4 5 0 2 8 4 5 5 11 4 0 1 0 2 5 54 100 100
100 100 100 100 100 100 100 98 5 3 0 0 0 1 68 84 30 54 13 8 12 21 2 1 3 0 0 0 1 5 2 1 2 1 8 5 5 4 0 6 3 18 4 0 1 4 52 100 100
100 100 100 100 100 100 95 17 5 2 0 0 0 21 100 81 45 6 8 24 24 1 0 0 3 0 0 0 0 0 8 2 0 21 17 3 4 25 11 4 2 0 2 100 100 5 70 95 100
100 100 100 100 100 100 33 97 14 2 0 0 0 44 100 67 1 0 13 51 38 5 0 0 0 0 0 1 0 5 0 0 5 5 62 88 23 9 0 0 0 0 3 5 31 31 38 100 100
100 100 100 100 100 100 98 70 89 37 10 0 0 0 0 3 0 2 53 80 56 31 19 7 3 0 0 0 0 0 0 0 0 2 5 4 3 4 0 0 0 4 5 8 77 100 86 100 100
100 100 100 100 100 100 100 79 100 93 100 0 0 0 4 0 0 0 29 95 77 71 48 22 6 0 0 0 0 0 0 0 0 1 1 5 33 9 0 0 0 4 8 43 75 99 92 95 83
100 96 78 100 100 93 100 24 100 100 93 2 1 23 7 0 0 0 0 6 19 31 33 29 10 0 0 0 10 17 0 0 0 0 0 1 7 5 2 4 0 4 89 95 95 100 100 60 64
100 100 100 100 95 98 100 96 100 100 49 18 8 0 3 0 0 0 0 0 2 9 6 10 1 2 0 3 0 0 5 0 0 0 0 0 0 0 0 0 0 3 6 96 81 20 100 100 100
100 100 100 100 100 100 100 100 100 84 98 5 4 4 0 0 0 0 0 0 0 0 0 0 0 0 0 0 0 0 2 0 0 0 0 0 0 0 0 0 0 0 0 16 86 5 5 39 89
100 100 100 100 100 100 100 100 100 74 100 8 5 0 0 0 0 0 0 0 0 0 0 0 0 0 0 0 0 0 0 0 0 0 0 0 0 0 0 0 0 0 0 0 0 36 5 5 36
100 98 100 100 100 100 100 100 100 100 88 48 8 1 0 0 0 0 0 0 0 0 0 0 0 0 0 0 0 0 0 0 0 3 0 0 0 0 0 0 0 0 0 0 0 0 0 4 0
99 83 100 100 100 100 100 100 100 100 100 99 38 5 1 0 0 0 0 0 0 0 0 0 0 0 0 0 0 0 0 0 0 0 2 5 4 4 0 0 0 0 0 0 0 0 0 0 0
69 100 100 100 100 100 96 100 100 100 100 100 95 6 5 0 0 0 0 0 0 0 0 0 0 0 0 0 0 0 0 3 5 14 9 5 5 5 34 1 2 0 0 0 0 0 0 0 0
5 100 100 100 100 100 100 47 94 99 100 99 100 5 6 5 77 33 32 9 0 0 0 0 0 0 0 0 0 0 0 0 2 5 5 5 5 5 5 17 4 0 0 0 0 0 0 0 0
0 86 100 100 100 100 100 100 100 98 78 91 37 54 5 19 12 45 53 84 0 0 0 0 0 0 0 0 0 1 2 0 3 5 5 5 5 5 62 5 12 5 2 0 0 0 0 0 0
16 73 100 100 100 100 100 100 100 100 100 98 100 85 78 29 0 0 0 0 0 0 0 0 0 0 0 0 8 0 4 3 22 97 32 24 34 9 5 47 50 10 5 5 2 0 0 0 0
1 69 100 100 100 98 100 100 100 100 100 96 100 90 30 20 4 12 0 0 0 0 0 0 0 0 0 0 0 0 0 0 40 91 36 6 46 51 61 10 96 12 17 5 5 3 0 0 0
99 77 84 100 59 55 87 100 100 100 100 84 97 99 61 18 76 9 0 2 0 0 0 0 0 0 2 0 0 0 0 0 3 83 28 1 5 9 12 71 19 5 6 5 5 5 4 0 0
6 61 99 91 100 100 100 100 99 100 100 100 100 97 98 100 8 14 29 4 6 94 74 2 0 2 5 5 0 0 0 5 5 20 27 0 5 3 4 34 6 59 5 5 5 5 5 4 0
0 99 53 90 72 100 100 100 100 100 100 100 100 100 67 75 87 20 100 100 28 100 53 100 3 84 8 5 1 5 2 4 37 80 4 4 0 0 5 5 46 97 24 4 5 4 5 5 3
0 98 87 93 50 100 58 100 100 100 100 100 100 100 100 100 100 86 100 62 93 91 78 39 22 100 99 5 5 56 31 5 5 82 26 3 1 0 0 42 98 100 100 5 5 0 3 5 5
0 5 14 7 40 52 5 100 100 100 100 100 100 100 100 94 93 100 100 74 97 100 99 94 95 100 100 42 18 94 58 56 14 55 97 97 70 0 0 10 91 69 59 16 13 5 2 5 3
0 0 32 92 35 2 4 78 100 100 100 100 100 100 100 100 84 53 100 100 100 100 95 100 94 85 96 94 50 79 100 86 34 100 26 100 83 7 5 45 70 100 8 43 19 46 11 7 3
0 0 0 3 28 11 3 8 100 100 100 99 100 100 100 100 98 100 100 100 100 100 75 100 100 93 60 99 8 71 100 100 69 100 100 100 100 100 98 12 81 42 9 72 91 84 90 52 98
0 0 0 0 0 0 2 0 12 100 100 100 92 100 100 100 100 100 100 100 100 100 100 100 100 100 66 20 5 5 96 100 100 100 99 100 69 100 100 100 100 77 100 49 13 84 100 93 82
0 0 0 0 0 0 0 0 69 57 100 100 100 100 100 100 100 100 100 100 100 100 100 100 100 99 100 39 5 5 5 95 100 100 100 99 98 100 100 100 100 100 100 96 6 49 98 78 76

GFSSGP_prec_cloud_099.txt.gz
Cloud_Cover
100 100 100 100 94 77 100 15 0 1 5 5 0 0 0 0 0 0 0 0 0 3 33 73 100 100 100 100 100 100 99 100 61 23 83 99 90 91 76 12 14 5 6 5 3 4 3 7 14
100 100 94 100 67 94 97 0 0 4 4 4 0 0 0 16 0 0 0 4 0 2 20 21 3 4 4 1 3 2 28 1 3 5 5 28 20 23 81 62 16 20 49 5 5 7 5 24 5
100 100 98 100 89 59 40 4 0 4 5 1 0 0 4 39 1 19 2 0 6 15 34 9 5 5 5 3 4 7 5 2 5 10 8 43 23 12 6 5 5 5 8 42 5 5 91 100 88
100 100 100 100 100 100 86 1 0 0 3 2 0 12 26 18 4 18 9 0 0 15 0 0 0 3 35 7 9 5 5 5 5 5 5 14 22 6 5 5 22 11 4 5 5 99 100 100 100
68 96 100 100 100 100 96 8 0 2 4 1 0 59 30 41 14 13 10 0 0 0 0 1 6 3 5 5 2 0 5 5 1 30 5 8 8 49 28 73 9 6 0 3 5 80 85 100 100
99 87 100 100 100 100 88 7 0 0 0 0 0 0 30 91 10 35 11 3 0 0 0 22 5 5 5 3 68 0 5 0 5 6 12 67 4 0 0 4 0 0 5 3 5 47 100 100 100
100 100 100 100 93 97 32 7 0 0 0 0 0 0 98 100 78 32 34 8 0 17 19 11 18 4 0 0 3 1 0 3 68 6 96 93 64 3 0 2 0 6 1 5 3 17 98 100 100
97 94 91 100 76 51 100 73 5 2 0 0 0 7 97 100 87 60 38 0 0 2 24 36 19 22 11 1 3 1 1 5 99 99 83 80 1 0 0 0 0 5 6 61 5 74 100 100 100
100 86 92 93 100 100 95 99 41 5 0 0 0 0 0 77 73 39 8 30 2 38 34 14 1 1 0 21 10 8 1 0 5 6 70 3 2 5 0 0 0 2 58 67 9 64 100 100 100
100 77 100 96 100 100 7 93 100 4 5 6 7 11 25 44 27 0 0 87 13 26 21 18 7 20 13 22 7 12 11 8 8 5 4 0 0 0 0 5 5 5 22 6 18 99 100 100 100
100 96 76 99 100 37 34 56 76 5 2 4 0 0 2 2 0 0 0 0 0 4 15 19 6 25 15 0 0 0 0 18 0 0 5 4 1 0 0 0 5 4 6 51 70 28 66 95 92
100 100 78 100 100 100 73 45 100 99 18 3 0 0 0 0 0 0 0 0 0 4 10 4 1 25 23 0 0 0 0 0 0 0 0 0 0 0 0 0 4 5 5 12 11 4 5 5 95
100 100 95 100 100 100 100 9 96 35 11 5 1 0 0 0 0 0 0 0 0 0 0 0 0 4 0 0 0 0 0 0 0 0 0 0 0 0 0 0 0 0 3 5 30 72 93 62 15
76 100 100 100 98 100 100 34 5 16 13 5 5 0 0 0 0 0 0 0 0 0 0 0 0 0 0 0 0 0 0 0 0 4 0 0 0 0 0 0 0 0 0 5 5 5 21 29 14
52 91 100 100 100 100 100 94 56 22 7 6 5 4 0 5 0 0 0 0 0 0 0 0 0 0 0 0 0 0 0 0 0 0 0 0 0 0 0 0 0 0 0 0 0 0 0 0 5
80 99 100 100 100 100 100 100 100 72 52 6 16 5 1 0 0 0 0 0 0 0 0 0 0 0 0 0 0 0 0 0 1 0 0 0 0 0 0 0 0 0 0 0 0 0 0 0 1
68 100 96 100 100 100 100 100 100 100 91 5 10 5 2 0 0 0 0 0 0 0 0 0 0 0 0 0 0 0 0 0 4 4 5 5 5 0 0 0 0 0 0 0 0 0 0 0 0
94 100 100 100 100 100 100 100 100 100 100 62 17 5 5 0 1 1 0 0 0 0 0 0 0 0 0 0 0 2 0 4 5 5 5 5 5 5 5 2 0 0 0 0 0 0 0 0 0
6 100 100 85 100 100 100 100 100 100 100 85 19 7 13 0 0 0 0 0 0 0 0 0 0 0 0 0 0 0 5 5 0 5 58 9 5 1 5 5 2 0 0 0 0 0 0 0 0
0 42 98 93 100 100 100 100 100 91 100 100 100 72 100 70 69 0 0 0 0 0 0 0 0 0 0 0 0 0 0 5 0 4 3 5 5 5 2 4 5 5 0 0 0 0 0 0 0
1 6 100 100 100 100 100 100 100 99 100 80 76 67 88 100 4 2 2 1 0 0 0 0 0 0 0 0 0 2 0 0 2 0 2 0 8 44 26 0 0 5 5 2 0 0 0 0 0
100 17 75 100 100 100 100 95 100 100 100 96 100 100 94 62 5 0 0 0 0 3 0 0 0 1 0 0 0 4 1 1 0 0 0 0 4 10 20 4 0 0 4 5 0 0 0 0 3
88 97 75 100 100 100 100 100 100 100 100 92 100 97 34 7 5 0 0 0 4 26 20 16 4 5 5 4 0 4 4 2 0 0 0 0 5 23 23 96 44 0 0 5 5 2 0 0 4
100 100 100 100 100 100 100 100 100 96 100 95 100 100 91 56 21 8 23 48 6 50 100 6 13 15 12 5 5 5 2 5 3 0 5 0 5 5 5 14 96 16 8 5 4 1 0 0 0
99 100 79 99 98 100 100 100 100 100 100 93 100 100 100 94 92 93 4 5 14 9 18 25 89 64 23 5 56 68 36 56 79 20 5 1 5 5 5 16 9 35 49 13 8 66 34 1 0
39 100 100 89 100 100 100 100 100 100 100 78 95 100 100 98 90 93 15 99 84 6 4 1 12 100 100 5 47 100 99 19 15 74 24 0 2 5 5 6 5 5 59 31 22 12 99 87 29
0 0 17 98 100 100 98 100 100 100 100 100 100 100 84 100 100 100 55 100 98 17 100 9 0 87 98 83 5 86 100 100 100 100 100 100 67 12 9 20 26 19 5 83 94 50 93 100 100
0 0 0 4 48 67 86 100 100 100 100 100 91 100 100 100 100 100 100 100 99 78 92 63 5 16 89 48 10 1 25 66 100 100 100 100 94 100 99 94 89 100 74 41 49 82 100 100 100
0 0 0 0 0 2 7 100 100 100 100 100 83 100 100 100 100 93 97 100 100 100 100 100 88 42 87 38 86 14 1 5 9 100 100 100 95 64 6 15 86 100 100 83 14 32 100 100 100
0 0 0 0 0 0 0 6 100 100 100 100 100 100 100 100 100 100 100 100 100 100 100 100 98 74 96 100 93 76 5 7 9 56 100 100 100 100 100 78 14 8 100 100 78 53 74 100 88

GFSSGP_prec_cloud_102.txt.gz
Cloud_Cover
100 100 74 98 64 96 15 11 0 0 0 0 0 0 0 0 0 1 0 4 5 54 100 100 100 100 100 90 100 100 100 61 86 100 100 100 100 94 100 94 87 30 16 5 5 5 5 3 5
96 100 93 100 100 16 8 0 0 4 0 0 0 0 35 23 0 0 0 0 4 38 75 45 73 73 33 64 64 93 86 79 70 62 51 52 94 94 66 22 5 5 9 5 14 5 5 4 5
88 97 100 100 100 46 5 3 5 2 0 0 0 0 31 0 0 0 0 5 60 81 63 4 5 35 61 46 37 5 1 39 3 58 98 12 38 80 68 6 5 5 5 19 32 73 20 98 16
100 63 98 100 100 65 9 0 0 0 0 0 0 0 0 0 0 0 0 40 100 94 77 0 5 7 11 10 44 5 6 5 43 18 44 5 43 28 4 3 9 8 5 5 6 99 100 12 11
82 90 100 100 100 100 14 3 0 0 24 10 78 4 0 8 0 9 55 80 45 9 0 0 3 4 4 5 5 26 5 8 69 100 7 68 21 59 89 96 75 58 26 5 9 54 11 81 93
100 80 100 100 100 31 28 5 0 4 52 19 4 0 7 7 30 41 23 6 0 0 34 14 0 0 5 5 5 5 6 7 69 97 100 100 70 6 5 61 67 12 5 5 32 51 82 70 99
100 100 85 100 35 98 85 36 3 5 0 11 0 0 8 52 62 33 31 0 1 29 66 83 25 1 3 0 0 4 50 45 100 100 100 91 9 1 4 0 4 31 5 5 5 64 100 100 100
100 97 87 100 61 96 100 97 60 68 94 2 1 0 33 70 46 38 2 0 44 85 63 95 100 50 58 21 1 3 65 100 69 52 8 4 0 0 0 0 4 86 22 4 5 100 100 100 100
100 96 94 88 53 96 69 99 44 50 7 1 0 0 0 6 31 3 0 0 2 46 99 100 44 67 84 39 4 0 1 5 5 4 23 10 20 0 0 0 4 5 5 38 100 100 100 100 100
95 99 98 73 99 56 57 17 96 89 38 1 0 0 0 1 1 0 0 0 12 43 75 71 67 79 85 43 98 43 24 72 27 57 3 0 0 0 0 0 5 4 7 100 100 100 100 100 99
93 81 99 99 100 74 11 5 5 80 2 0 0 0 0 0 0 0 0 2 35 40 26 36 50 30 32 17 6 2 26 12 37 2 5 0 6 4 0 0 6 1 3 54 83 100 94 100 89
100 62 98 99 100 100 47 56 88 57 0 0 0 0 0 0 0 0 0 29 8 15 14 8 1 21 21 2 0 0 25 28 13 0 1 11 22 15 31 9 2 6 0 5 96 77 15 69 100
100 61 85 78 85 85 51 5 3 8 0 0 0 0 0 0 0 0 0 0 0 0 0 0 1 45 32 38 0 0 2 77 1 0 14 24 8 10 19 0 16 5 12 16 13 16 13 99 100
100 91 66 100 100 91 97 17 4 4 0 4 0 0 0 0 0 0 0 0 19 0 0 0 7 24 20 12 5 17 43 23 0 0 0 1 21 9 0 0 0 0 3 6 5 5 51 98 99
100 100 100 100 100 53 91 54 68 0 2 5 0 0 0 0 0 0 0 0 0 0 0 0 10 30 5 16 6 24 2 19 0 0 0 0 6 0 2 1 10 5 0 0 1 4 6 5 5
100 100 100 100 100 100 100 92 39 10 2 2 5 5 0 4 0 0 0 0 0 0 0 0 4 0 5 1 14 29 24 33 19 0 0 0 0 0 9 22 15 0 0 31 3 8 0 0 0
100 100 100 100 100 100 100 100 100 21 51 66 57 15 4 6 28 0 0 0 0 0 0 0 2 0 4 5 5 12 2 46 5 0 12 3 0 0 8 40 2 0 3 23 14 0 0 0 0
100 81 100 100 96 100 100 100 100 97 100 100 100 82 9 6 5 1 1 0 0 0 0 0 0 0 16 1 5 28 0 46 15 31 39 5 0 0 0 8 0 0 15 1 0 0 0 0 0
36 90 100 100 100 100 100 100 100 100 100 92 95 97 56 37 33 8 76 16 1 0 0 0 1 2 0 0 18 34 53 55 43 32 1 0 1 0 0 15 0 0 4 3 0 0 0 0 0
95 99 100 100 100 100 100 100 100 100 100 100 100 100 58 58 76 93 66 28 18 0 0 0 6 0 1 3 70 87 13 44 27 4 4 1 0 0 0 2 10 13 18 0 0 0 0 0 0
29 98 100 100 100 100 100 100 100 100 100 100 72 100 90 43 11 8 12 25 32 0 0 4 1 1 2 28 17 0 5 13 20 10 5 1 0 0 0 0 9 0 28 33 0 0 0 0 0
91 82 90 100 100 100 100 100 100 100 100 100 100 100 98 78 84 5 0 5 15 2 0 5 0 5 1 5 14 4 0 35 94 36 13 21 13 4 5 5 8 4 1 0 6 0 0 1 0
54 66 100 100 100 100 100 100 100 100 100 100 100 100 80 69 100 94 0 0 21 4 4 17 27 2 15 6 31 2 31 19 1 40 5 1 6 5 14 5 6 25 5 5 5 2 1 0 0
5 66 100 100 100 100 100 100 100 100 100 100 100 99 100 97 95 10 70 95 83 11 6 16 5 98 5 24 25 24 9 53 22 19 12 10 70 99 100 5 5 16 86 98 38 37 42 7 0
94 30 68 100 100 100 100 100 100 100 100 100 98 100 96 99 100 79 94 100 71 21 5 8 13 98 38 7 100 53 74 74 5 5 29 100 52 27 33 5 5 7 57 24 85 100 100 100 79
1 4 100 96 100 100 100 100 100 100 100 100 74 100 100 100 98 100 42 6 0 0 0 1 1 50 100 30 12 17 93 77 100 89 100 18 13 13 26 68 5 41 86 81 10 37 86 97 100
0 59 34 96 88 100 100 100 100 100 100 100 48 100 100 100 100 96 63 12 1 5 1 1 5 3 100 100 13 5 77 85 85 100 63 88 50 69 9 17 72 100 6 12 68 100 99 91 46
0 0 4 43 77 100 100 100 100 100 100 100 58 100 100 100 100 100 74 54 37 20 9 13 0 5 74 99 77 5 5 30 5 66 88 96 100 98 32 6 98 100 98 4 5 27 100 100 100
0 0 0 2 4 100 91 100 100 100 100 100 99 100 100 100 100 100 100 95 100 86 5 63 12 13 13 100 45 6 26 5 44 11 30 100 100 100 97 100 89 85 100 37 9 5 30 100 100
4 0 0 0 0 6 76 100 100 100 100 100 100 100 98 100 100 100 100 100 100 36 86 100 100 100 63 16 90 10 50 12 39 98 92 100 100 100 100 100 98 95 52 100 68 5 8 32 100

GFSSGP_prec_cloud_105.txt.gz
Cloud_Cover
84 89 87 97 69 100 67 16 0 0 1 1 4 34 15 27 50 13 3 88 100 97 84 30 57 72 54 100 100 100 100 100 100 100 100 60 44 92 36 58 85 100 92 84 52 32 51 51 28
17 100 81 97 22 100 77 0 0 0 0 0 0 37 20 0 0 0 8 24 82 35 100 100 100 100 100 100 100 99 100 100 100 99 85 98 100 100 91 35 7 5 2 5 4 5 6 5 5
99 100 96 99 100 91 70 1 0 0 0 2 3 79 14 0 0 0 0 38 39 1 96 5 10 5 5 4 7 11 18 4 5 91 29 10 74 80 5 5 5 85 28 84 30 10 5 5 6
99 61 100 100 100 84 17 0 0 0 2 90 9 0 0 0 3 0 8 100 4 99 87 5 2 5 5 8 5 8 5 5 37 35 42 53 99 100 98 25 5 5 6 72 84 80 18 63 98
44 99 100 100 100 67 32 0 0 0 91 95 31 0 1 7 1 51 96 26 68 30 0 0 5 4 3 5 5 5 84 55 93 58 98 49 67 5 5 55 95 96 80 83 63 7 100 66 5
99 94 100 100 100 100 100 2 0 56 100 50 36 0 1 5 51 17 37 76 83 24 4 1 2 0 5 4 0 5 55 100 100 77 82 100 52 4 2 2 3 4 9 36 46 5 9 31 99
100 100 100 100 100 100 100 69 16 77 45 100 6 0 0 61 34 40 79 1 100 100 12 58 12 5 0 4 11 35 100 100 100 100 59 8 0 0 0 0 1 5 5 5 5 71 91 100 100
100 100 69 100 44 10 86 89 45 99 100 30 58 1 4 88 18 60 2 49 94 27 78 73 65 89 61 9 40 100 100 40 8 56 19 0 0 0 0 5 5 4 5 10 100 86 74 100 100
89 98 81 99 99 80 66 96 97 46 29 77 74 14 5 2 32 24 6 100 94 96 95 53 52 83 58 18 1 5 13 5 3 0 0 0 9 0 17 5 5 5 38 100 100 100 100 100 100
100 100 97 100 94 47 53 64 91 20 99 99 71 14 0 3 4 1 58 81 100 33 43 82 78 75 96 42 57 2 58 66 58 48 5 100 28 0 2 0 50 100 100 100 100 100 100 100 100
99 100 100 100 100 98 58 22 95 72 45 29 2 0 0 0 1 5 61 96 98 94 100 29 83 97 92 44 40 33 95 28 76 15 30 0 0 0 0 3 5 32 100 100 47 100 100 100 100
100 88 100 42 100 100 55 15 62 59 65 35 14 0 0 0 0 0 65 100 88 84 99 78 41 100 90 16 83 93 100 96 32 6 15 100 96 94 98 95 6 100 77 100 100 74 100 100 100
100 73 83 100 100 100 89 75 92 31 13 27 35 0 0 0 0 1 68 74 59 65 96 39 44 100 100 25 2 100 49 93 8 60 100 90 92 59 72 45 95 66 100 60 87 96 100 100 100
100 100 46 100 100 100 64 100 43 0 3 5 5 0 0 0 0 0 29 38 42 30 27 20 100 39 84 16 25 5 100 54 81 100 12 100 50 80 21 89 19 46 100 65 56 80 100 100 62
100 100 100 92 100 100 87 86 99 0 0 5 0 0 0 0 0 0 3 32 76 23 6 47 100 83 23 1 1 100 18 100 100 53 5 0 61 12 84 17 100 61 0 14 3 14 82 100 91
97 100 100 100 100 100 96 92 100 0 1 2 0 0 0 0 1 0 0 31 43 26 15 16 96 21 6 7 38 99 100 72 99 27 18 31 1 7 62 98 68 3 45 62 86 87 64 6 16
100 100 100 100 100 96 98 82 98 4 1 6 5 5 23 26 38 6 0 24 13 6 27 44 100 19 95 5 99 59 92 92 99 95 88 68 34 0 99 100 11 81 97 61 85 19 100 22 23
99 100 100 100 100 100 100 100 92 24 80 98 98 86 100 96 86 46 8 43 37 10 44 25 98 11 100 100 100 78 93 81 53 100 98 0 26 0 78 47 0 0 89 80 23 9 1 11 4
100 100 100 100 100 100 100 100 100 100 100 100 50 100 100 100 98 56 61 12 30 15 36 6 21 0 97 8 100 100 100 100 100 100 4 20 21 3 0 85 0 77 82 0 2 58 1 28 0
95 100 100 100 100 100 100 100 100 100 100 100 100 100 82 100 100 96 55 100 14 24 13 13 32 10 94 19 99 57 100 89 100 100 58 100 100 2 5 62 33 99 7 2 0 0 17 0 0
94 77 100 100 100 100 100 100 100 100 100 100 100 100 94 100 100 74 73 100 98 9 16 7 5 2 38 83 100 100 64 96 51 66 61 43 95 18 54 4 93 2 97 61 26 0 45 79 0
100 56 100 100 100 100 100 100 100 100 100 100 85 100 65 100 12 59 95 99 100 8 25 9 25 33 0 96 29 23 5 23 61 8 99 42 77 50 35 18 23 19 83 90 15 1 1 18 25
100 96 100 100 100 100 100 100 100 100 100 100 100 72 71 41 93 6 80 72 100 67 18 6 21 16 38 87 96 2 5 89 98 64 37 94 5 5 93 36 38 5 49 61 98 12 5 12 27
8 37 100 100 100 100 100 100 100 100 100 100 100 100 100 99 72 89 21 99 56 89 23 10 3 5 13 5 7 16 44 72 80 67 46 94 44 10 42 13 27 5 46 7 58 100 100 55 6
83 68 100 100 100 100 100 100 100 100 100 100 100 100 100 66 100 69 98 60 42 50 8 68 3 10 62 8 4 24 50 10 38 6 40 44 91 7 5 4 6 7 5 23 13 56 100 100 100
1 100 36 100 100 100 100 100 100 100 100 100 100 100 95 92 95 92 100 52 0 56 100 5 30 0 92 87 3 8 100 13 5 16 99 100 53 87 55 2 0 5 33 26 50 8 74 100 100
21 31 9 89 100 100 100 100 100 100 100 100 100 99 97 99 93 98 97 11 100 20 11 18 26 5 87 48 54 6 79 49 100 86 70 99 27 19 42 69 42 29 10 30 28 49 18 99 100
15 69 38 54 100 100 100 100 100 100 100 100 100 100 100 100 96 100 100 59 30 23 50 34 83 21 3 100 24 6 72 5 16 98 100 100 100 100 99 100 97 100 74 58 21 22 27 87 100
0 0 4 31 100 100 100 100 100 100 100 100 100 92 100 100 98 100 84 100 86 82 97 71 57 90 82 82 98 14 6 5 7 34 67 31 78 70 75 100 100 100 76 90 89 5 65 34 95
4 1 0 0 42 100 100 100 100 100 100 100 100 100 36 100 100 100 100 100 85 83 99 100 52 96 89 84 52 98 8 17 16 5 20 94 96 92 100 100 97 22 66 84 100 100 81 12 38

GFSSGP_prec_cloud_108.txt.gz
Cloud_Cover
65 100 78 100 100 100 68 82 5 60 56 96 42 15 3 56 88 3 6 100 10 45 32 5 30 100 100 100 100 100 100 100 100 88 96 100 100 100 100 100 100 80 96 97 100 100 100 100 95
100 77 100 100 98 69 65 17 30 15 2 0 10 54 2 0 3 11 32 48 42 87 100 61 60 65 56 74 100 100 100 100 100 100 100 100 100 97 98 100 99 100 95 58 6 5 5 5 5
100 100 100 100 100 99 17 31 11 0 0 56 72 29 0 2 8 18 48 91 88 25 6 20 63 95 100 80 32 36 100 100 100 100 88 37 14 98 18 8 40 7 5 5 5 26 33 5 35
98 95 100 100 100 90 1 26 0 0 94 20 2 2 0 21 2 3 0 71 52 14 5 0 0 2 5 5 5 1 0 0 10 10 5 11 89 99 89 94 78 9 10 48 80 5 7 70 22
89 95 100 100 100 77 68 6 0 94 4 51 0 1 30 71 37 0 97 4 0 1 0 0 0 0 5 8 0 4 3 5 5 20 31 20 87 27 5 4 5 38 90 100 91 100 48 97 61
89 100 95 100 93 100 68 0 24 1 33 41 4 0 26 26 0 3 1 0 16 0 0 1 0 2 0 0 1 59 33 85 87 6 10 50 54 3 1 0 0 0 5 13 74 100 100 100 43
100 99 85 98 100 100 99 15 80 42 73 44 11 0 10 1 0 98 48 2 64 19 0 5 10 1 5 5 5 70 82 72 11 4 5 5 1 1 0 0 0 4 5 20 5 5 62 99 92
100 100 64 93 100 8 4 68 100 31 48 3 3 4 32 4 100 71 60 33 60 61 10 12 6 3 0 2 41 42 28 0 0 0 0 0 0 0 0 0 0 5 5 5 5 5 6 70 100
94 98 100 80 40 23 15 93 67 23 64 48 25 21 0 48 77 3 19 9 15 0 78 0 18 95 2 1 0 0 0 0 0 0 0 0 0 0 5 0 4 36 72 100 88 86 100 100 99
100 100 99 64 38 23 12 12 100 35 86 96 61 3 0 24 61 0 99 25 74 3 84 40 28 100 64 0 0 3 0 0 0 86 100 2 0 0 5 25 98 71 74 95 73 100 100 100 100
100 100 100 100 71 100 91 86 5 34 40 99 0 0 8 6 22 98 80 0 60 80 81 100 18 79 58 0 0 67 14 28 0 94 55 0 0 0 89 9 4 95 100 100 96 50 100 100 100
100 100 100 100 55 68 78 19 86 94 67 3 3 0 0 21 0 7 52 100 0 32 95 4 100 0 100 21 99 27 29 30 10 0 3 64 34 82 100 100 13 100 100 100 78 100 100 100 85
100 100 100 100 71 47 98 27 99 88 19 0 0 0 0 3 2 98 53 63 0 25 90 58 36 100 13 82 100 26 25 68 100 87 100 61 46 79 100 92 48 41 84 83 100 100 100 100 100
100 86 92 100 100 100 100 8 51 23 99 2 0 0 2 0 7 50 72 82 68 29 5 0 0 2 48 31 70 35 0 37 79 100 100 100 40 5 8 18 100 61 52 31 99 100 100 96 94
100 100 80 99 55 100 100 71 73 7 18 18 16 0 24 12 32 10 87 0 92 4 0 74 14 7 100 0 6 91 13 72 6 66 100 10 14 6 100 66 9 0 70 0 31 94 45 8 6
100 100 98 100 100 100 83 100 100 19 5 3 0 4 13 31 13 13 0 27 0 24 0 21 53 41 0 4 37 2 64 21 89 0 1 43 0 0 1 69 4 0 0 5 0 98 98 74 2
82 100 100 100 85 100 96 100 86 12 16 5 13 14 2 65 26 4 5 98 30 0 2 95 50 5 0 3 1 100 80 26 25 29 65 0 0 0 78 0 0 4 86 26 40 0 5 54 39
100 100 100 100 100 100 100 100 100 30 21 13 4 21 30 37 15 6 3 56 0 0 11 93 98 100 7 100 75 33 98 46 97 0 98 0 0 0 22 60 100 29 63 89 0 100 0 47 51
100 72 100 100 100 100 100 100 100 100 100 100 60 30 81 44 2 14 97 53 0 0 46 25 63 47 28 17 58 28 69 54 50 100 48 19 13 0 0 21 100 82 7 0 0 0 0 0 47
100 100 100 100 100 100 100 100 100 100 99 100 100 100 47 95 18 5 100 0 0 0 29 23 99 48 16 70 31 74 66 30 31 10 5 96 91 5 17 7 4 93 32 0 0 0 6 0 0
33 100 100 100 100 100 100 100 100 100 100 100 100 99 88 55 100 93 0 5 0 0 0 0 53 4 7 90 100 6 100 52 25 64 1 75 89 5 62 17 27 4 28 0 0 0 46 0 0
100 100 100 100 100 100 100 100 100 100 100 100 100 11 7 30 11 24 4 97 47 0 0 0 17 4 5 2 5 88 61 100 86 69 93 44 23 87 0 3 5 39 92 19 3 0 98 8 0
98 100 99 100 100 100 100 100 100 100 100 100 100 100 100 100 66 99 49 0 100 8 2 0 5 38 92 78 4 1 84 96 13 99 100 13 0 79 100 1 7 5 18 43 52 45 0 81 2
71 100 100 100 100 100 100 100 100 100 100 100 100 100 38 68 100 100 74 89 57 1 1 5 4 1 4 2 10 12 79 55 77 100 36 33 25 1 75 85 40 5 6 76 98 96 75 0 7
100 75 100 100 100 100 100 100 100 100 100 100 100 99 97 60 9 54 81 53 5 86 49 3 66 49 8 2 0 6 97 62 100 96 100 100 43 99 17 5 0 0 0 5 8 89 100 65 1
9 100 100 100 100 100 100 100 100 100 100 100 100 100 100 100 90 100 52 82 100 47 60 4 5 8 100 3 1 50 41 86 70 100 100 100 99 100 100 72 39 4 25 5 5 10 100 100 10
40 52 86 92 100 100 100 100 100 100 100 100 100 100 96 92 89 5 85 100 100 9 4 37 5 5 57 100 22 5 12 8 12 54 99 100 100 100 100 100 92 51 5 33 13 20 23 44 76
72 100 16 13 100 100 100 96 100 100 100 100 100 100 100 52 5 37 73 55 100 20 100 76 73 3 3 86 60 5 12 96 5 5 100 100 100 100 100 100 60 69 76 73 100 64 13 4 4
0 5 22 38 100 100 100 100 100 100 100 100 100 100 100 98 38 73 99 71 92 93 97 1 42 2 0 0 18 4 63 32 51 19 0 93 100 90 100 100 88 40 47 64 87 100 99 98 1
0 0 5 2 59 100 100 100 100 31 100 100 94 100 100 100 100 100 88 71 100 80 79 90 22 58 30 0 0 7 10 6 5 5 5 5 6 93 22 96 100 45 26 6 79 93 100 83 44

GFSSGP_prec_cloud_111.txt.gz
Cloud_Cover
100 99 96 100 53 100 45 95 97 46 94 93 100 73 46 15 5 5 5 5 57 86 29 5 5 88 75 41 97 100 90 100 100 100 100 100 91 94 100 98 100 100 100 100 100 87 100 100 100
100 100 100 100 62 86 94 72 54 4 5 20 23 3 3 2 16 5 3 16 2 30 72 47 26 45 19 13 95 100 100 93 100 100 100 74 87 100 100 100 100 100 100 100 100 98 100 94 36
100 95 96 100 100 100 12 51 5 0 0 0 3 0 2 0 0 14 78 1 0 0 0 2 26 64 92 98 100 100 100 100 100 99 100 100 100 100 100 21 8 27 26 5 5 8 45 11 85
99 84 99 100 100 99 4 2 0 3 1 0 0 12 38 18 0 44 100 6 1 0 0 0 0 0 2 5 4 5 5 5 12 99 96 98 34 54 56 81 99 100 100 99 23 38 27 20 94
100 55 100 100 100 100 5 2 78 38 91 4 0 33 52 12 0 0 4 0 5 0 0 0 0 0 4 1 5 2 3 4 11 9 10 41 70 80 53 5 5 5 5 56 95 99 19 32 67
98 100 100 100 100 74 4 58 100 87 7 0 0 0 3 0 0 60 5 7 1 0 0 0 0 1 1 5 5 5 5 5 6 4 0 6 0 5 0 0 0 0 2 5 5 96 100 100 62
99 100 100 100 64 1 54 59 2 15 14 0 0 0 26 7 54 7 0 21 0 0 0 0 4 5 5 5 25 5 69 10 1 1 0 0 0 1 0 0 0 2 5 3 5 27 100 100 100
99 100 100 100 100 55 14 96 73 1 0 0 74 0 0 66 100 90 0 1 0 0 0 0 0 0 0 5 5 5 0 2 0 1 4 0 0 0 0 0 0 3 5 6 6 7 19 96 100
92 100 100 100 97 70 30 100 60 99 24 45 3 0 1 96 1 12 0 0 4 0 0 0 0 0 0 0 0 0 0 56 97 85 10 0 0 5 48 7 2 4 5 12 42 92 5 24 51
100 100 100 100 100 29 6 68 34 87 63 100 37 0 6 1 0 59 64 85 0 0 42 0 0 0 0 0 0 0 4 70 44 5 4 2 21 4 4 4 15 56 5 40 100 100 100 41 31
100 100 100 100 100 100 13 0 5 88 98 73 0 0 50 99 7 2 1 40 0 0 5 1 5 0 0 0 0 0 0 72 24 0 10 100 100 72 4 68 84 36 14 50 100 100 100 100 10
100 100 100 100 100 100 58 44 5 90 6 29 0 2 41 1 65 4 1 58 0 22 56 0 0 0 0 0 0 4 6 45 69 8 14 100 100 99 10 100 100 100 10 41 100 100 100 97 7
100 100 100 100 100 100 98 12 100 100 38 0 0 85 0 0 13 0 4 94 0 57 0 47 84 48 49 80 0 4 5 90 95 6 98 29 87 1 4 100 100 100 8 3 7 99 100 75 93
100 100 100 100 100 100 100 99 8 84 7 21 0 4 54 51 100 22 37 0 0 0 96 0 32 28 0 1 68 26 11 68 62 3 4 0 0 12 12 76 98 30 2 24 91 94 39 39 42
100 100 100 100 100 100 100 98 54 32 64 0 0 0 84 0 2 91 21 0 0 0 0 0 0 0 95 3 75 1 0 6 0 0 0 0 0 89 26 0 0 0 78 100 98 60 84 27 67
100 100 100 100 100 100 100 100 96 100 8 0 0 21 72 98 48 44 95 1 0 0 0 64 0 0 20 0 0 0 0 0 0 0 0 5 5 36 12 0 0 0 3 38 26 4 0 2 4
100 100 98 100 100 100 100 100 79 100 93 1 3 73 62 100 52 68 52 0 0 0 0 0 0 0 0 0 0 2 0 9 13 0 18 0 5 38 56 1 2 0 0 0 5 90 0 0 0
96 99 100 100 100 100 100 98 94 86 23 5 2 33 12 61 5 7 14 2 20 0 0 3 0 0 0 0 71 52 0 39 4 2 0 1 3 100 4 0 0 71 0 0 0 0 25 6 57
44 88 100 100 100 100 100 100 100 90 87 58 60 10 3 0 0 0 0 5 0 0 0 0 14 0 3 7 79 16 4 100 30 11 33 3 4 1 0 5 0 0 0 0 0 0 1 30 20
98 54 100 100 100 100 100 100 100 100 100 100 94 95 99 5 4 0 0 0 0 0 0 44 4 0 2 5 0 12 0 0 0 7 0 4 6 10 5 6 78 14 0 0 0 0 2 0 9
100 100 95 100 100 100 100 100 100 100 83 100 100 88 66 72 9 0 0 0 0 0 0 0 8 15 8 51 5 67 21 30 36 86 0 72 0 2 5 7 26 75 5 2 3 4 0 4 10
100 100 100 100 100 100 100 100 100 100 100 68 100 100 100 94 93 12 4 0 0 0 0 0 8 0 2 64 94 74 85 22 5 5 46 18 17 12 5 5 39 87 93 5 0 3 1 4 20
86 100 100 100 100 100 100 100 100 100 100 52 100 94 100 100 49 100 39 1 1 5 5 5 4 4 17 5 96 100 11 100 99 45 59 84 64 86 25 0 0 5 69 92 5 17 15 5 70
11 100 100 100 100 100 100 100 100 100 24 74 89 100 100 100 18 39 72 76 5 2 0 0 5 0 3 5 40 100 94 79 98 100 100 92 100 92 83 2 0 0 3 34 100 6 2 21 2
87 100 100 100 100 100 100 100 100 99 99 69 100 100 95 77 5 3 47 30 64 3 0 0 4 27 0 5 5 9 20 29 100 100 100 100 100 100 100 98 7 5 5 14 10 99 43 5 1
22 100 100 100 100 100 100 100 100 100 87 92 100 100 82 100 98 19 87 27 44 75 1 0 0 2 5 2 5 5 5 22 99 100 100 100 100 100 100 100 81 65 34 5 5 6 24 35 31
1 65 100 99 100 100 100 100 100 100 28 86 88 100 96 100 100 73 33 51 90 2 15 0 0 0 14 85 12 5 90 16 10 98 100 100 100 100 100 100 100 75 100 46 41 57 4 5 5
24 2 14 100 100 100 100 100 100 100 100 95 100 100 99 99 78 88 9 50 95 58 4 31 25 0 3 4 56 93 6 18 29 88 86 99 84 100 100 100 100 100 100 99 88 91 96 8 3
32 0 90 100 100 100 100 100 100 100 100 100 100 72 83 72 98 79 100 61 11 99 44 100 2 15 38 4 2 5 25 41 90 43 100 97 91 100 98 100 100 100 90 100 81 52 65 86 22
1 4 4 100 100 100 100 100 100 100 85 100 100 100 99 100 100 100 100 99 64 100 100 100 23 89 100 100 100 6 5 32 5 5 5 30 6 61 100 11 47 9 46 60 37 80 78 33 26

GFSSGP_prec_cloud_114.txt.gz
Cloud_Cover
8 84 99 100 100 11 81 1 15 83 65 93 22 76 9 1 5 4 5 29 95 43 5 2 34 78 87 30 50 99 100 100 100 100 100 100 90 56 98 63 79 100 100 99 100 100 100 100 100
97 100 98 100 94 4 65 33 3 0 9 50 21 30 4 5 4 1 1 0 0 2 2 3 5 28 81 50 61 46 78 100 100 100 95 100 76 13 87 80 90 100 100 100 100 100 100 100 100
60 100 100 100 8 27 29 100 5 0 0 3 0 9 1 6 96 4 0 0 0 0 0 0 0 3 23 8 5 63 82 100 100 100 77 55 84 100 98 98 100 100 94 70 73 46 84 100 53
100 71 100 100 6 67 58 6 5 2 0 0 0 0 0 0 0 2 0 0 0 0 0 0 0 0 0 1 5 6 29 7 6 5 5 5 69 100 82 35 59 94 99 99 67 97 10 5 53
100 96 100 95 29 31 67 6 0 4 1 0 0 0 0 0 0 3 5 0 0 0 0 1 0 0 0 0 0 4 5 6 5 5 16 36 10 7 30 19 20 5 5 100 100 100 62 96 94
67 64 89 75 87 98 47 1 60 6 4 0 0 0 0 0 0 0 4 0 0 0 0 2 2 2 5 5 5 6 17 15 8 5 31 3 0 3 2 3 0 5 5 79 98 100 100 100 100
100 100 100 100 100 25 6 0 24 1 7 0 0 0 16 5 0 0 0 0 0 0 0 0 12 22 97 98 58 59 100 48 3 5 3 3 2 0 0 0 6 5 5 5 29 100 100 100 100
96 86 96 100 100 5 0 26 9 2 0 0 0 0 12 6 0 0 4 19 0 0 0 0 0 2 72 26 7 5 5 25 5 57 5 0 0 0 4 38 5 5 5 9 100 75 100 100 100
100 100 100 100 100 89 19 89 17 81 0 7 0 0 21 29 2 0 1 5 0 0 0 0 0 0 0 2 1 81 88 69 12 4 5 22 16 26 5 2 5 11 18 22 5 41 100 96 100
100 100 100 100 100 100 86 100 97 57 48 100 0 12 0 0 0 0 2 0 0 0 0 0 0 0 0 0 9 63 5 4 5 46 97 34 29 100 96 41 49 76 92 5 16 44 95 100 100
100 100 100 100 100 100 100 72 9 13 100 51 0 0 0 0 0 0 0 0 0 0 0 0 0 0 0 0 9 10 4 0 13 78 17 60 21 100 100 100 82 35 89 82 76 86 86 100 100
100 100 100 100 100 100 100 100 40 53 8 1 0 0 0 64 0 0 0 0 0 0 0 0 0 0 0 18 98 9 1 5 72 73 65 34 12 100 100 100 100 12 81 98 81 97 88 100 100
100 100 100 100 100 100 100 100 5 32 39 0 0 0 0 0 0 7 24 0 0 0 0 0 0 0 0 5 8 0 0 0 4 90 84 5 22 66 10 46 100 5 77 60 94 52 93 100 100
100 100 100 100 100 66 100 100 25 58 59 34 0 0 0 0 0 1 5 0 0 0 0 0 3 0 0 0 0 0 29 1 1 5 3 1 3 2 0 6 2 5 22 98 100 76 81 100 100
100 100 97 99 100 100 100 100 95 74 100 42 0 0 0 66 32 43 98 0 0 0 0 0 0 0 0 13 0 0 4 0 0 0 5 5 1 11 0 2 98 85 19 6 2 85 100 11 65
100 98 100 100 100 100 100 100 99 100 34 100 41 0 0 26 75 1 0 0 0 0 0 0 0 0 1 87 0 0 0 0 1 5 4 5 43 0 0 12 5 99 9 0 0 0 0 39 10
100 100 100 100 100 100 100 100 100 58 8 75 0 0 0 14 14 0 1 0 0 0 0 0 0 0 0 0 0 0 0 5 5 9 14 10 0 0 0 0 2 54 57 32 0 0 0 0 6
100 100 100 100 100 100 100 100 92 35 8 0 0 0 1 9 14 0 5 0 2 55 0 0 0 0 0 0 0 0 0 5 20 33 5 15 3 0 0 1 0 0 0 0 0 0 1 5 12
100 100 100 100 100 100 100 100 100 100 98 5 0 1 94 2 6 0 0 0 5 4 0 0 0 0 0 0 28 0 0 0 5 42 50 68 69 2 2 5 20 10 0 2 0 0 94 76 99
96 100 100 100 100 100 100 100 100 84 87 22 10 8 52 0 0 0 0 0 0 5 5 5 5 3 0 0 2 0 0 18 0 34 22 92 100 100 18 2 0 2 21 5 5 90 70 56 78
97 100 100 100 100 100 100 100 100 100 99 29 100 76 43 15 2 0 0 4 3 2 83 5 9 5 4 0 0 0 2 5 4 1 7 38 77 100 100 30 2 2 5 24 6 5 6 77 100
100 99 100 100 100 100 100 100 100 100 100 100 99 100 100 100 77 5 0 5 5 4 6 13 4 2 5 5 3 3 5 5 67 36 4 5 44 100 99 100 8 5 0 1 1 1 4 9 41
93 100 88 100 100 100 76 79 100 100 100 100 97 56 100 86 100 13 0 0 5 5 5 5 4 2 4 5 5 5 5 100 74 100 29 6 5 96 100 100 50 18 6 0 0 0 5 6 92
3 100 99 100 100 100 100 100 100 77 98 100 98 66 84 87 87 63 4 0 0 4 0 5 5 5 17 5 8 34 5 6 64 100 100 100 96 83 30 94 75 8 36 92 3 0 0 32 44
3 100 66 100 100 100 100 100 100 86 90 72 100 100 31 100 13 79 74 4 0 1 0 0 5 4 4 5 5 22 5 75 33 59 84 82 100 100 100 19 100 100 57 63 6 5 5 3 0
1 45 100 100 100 100 100 100 100 100 82 8 90 100 99 99 100 70 10 5 0 0 4 0 0 0 5 5 2 4 16 92 100 29 79 96 97 100 100 99 96 100 71 100 98 21 5 5 5
8 100 66 100 100 100 100 100 100 100 98 69 58 100 100 97 93 45 5 4 13 5 0 0 0 5 6 30 12 38 5 54 94 96 93 98 88 94 96 100 100 100 75 26 99 93 10 5 5
0 13 10 51 100 100 100 100 100 94 99 30 86 100 100 38 5 56 90 11 29 17 4 4 5 10 4 5 5 6 5 43 82 98 90 99 100 43 100 100 100 100 100 16 47 57 34 7 3
12 3 3 95 100 100 100 100 88 100 100 100 99 100 100 100 100 100 100 100 5 43 5 7 4 63 19 94 100 96 82 94 14 5 78 6 29 24 100 100 94 100 100 76 100 88 92 67 98
97 0 6 28 100 100 99 100 100 100 100 96 100 100 100 100 100 100 100 100 22 18 80 4 0 43 31 100 100 100 100 100 83 23 5 2 4 8 95 65 80 76 98 100 89 96 36 7 6

GFSSGP_prec_cloud_117.txt.gz
Cloud_Cover
77 86 70 7 9 2 4 3 1 10 31 0 4 5 15 5 5 2 21 7 16 13 66 75 7 98 29 73 100 100 100 77 99 100 98 100 100 72 99 99 70 100 46 95 92 55 96 100 98
77 97 82 18 5 2 2 4 5 1 4 3 2 9 8 5 3 1 0 0 0 6 34 5 5 5 47 39 6 89 98 100 78 96 96 84 100 100 100 100 100 99 100 100 100 100 100 100 100
17 90 92 13 5 2 1 4 5 4 0 0 0 2 49 5 5 2 0 0 0 0 0 3 4 5 42 70 79 100 91 32 92 100 100 100 100 100 100 100 100 100 100 100 100 100 100 100 100
47 88 58 36 5 3 4 4 5 1 0 0 0 0 2 4 5 5 1 0 0 0 0 0 0 2 3 14 19 26 61 47 100 100 79 53 15 29 67 100 100 100 70 96 100 100 100 100 100
23 76 100 100 5 5 4 5 5 5 1 0 0 0 3 0 2 4 4 0 1 6 0 3 2 2 0 0 0 5 5 6 12 41 87 84 87 100 97 100 100 100 100 100 100 100 100 100 100
40 98 100 98 15 5 21 8 92 18 2 0 0 0 26 1 0 4 0 0 0 4 2 1 2 2 4 3 5 5 16 5 51 99 76 31 6 8 6 5 6 72 26 99 100 100 100 100 100
99 72 100 98 22 8 35 70 66 4 0 0 0 34 93 0 0 31 0 0 0 0 4 10 25 5 5 6 26 17 98 100 42 4 8 9 7 3 2 5 5 5 46 34 66 100 100 100 100
100 87 100 100 100 15 5 10 2 0 0 0 0 18 83 0 0 0 0 0 0 0 1 11 5 8 65 80 5 7 5 5 48 89 66 25 25 5 5 3 9 5 5 61 99 100 100 100 100
100 100 100 100 100 100 100 63 4 0 0 0 0 1 85 0 0 0 3 20 7 11 0 0 3 19 47 4 17 77 88 38 57 55 99 93 18 4 5 5 5 5 17 87 86 84 78 100 100
100 100 100 93 100 100 94 28 58 11 0 0 0 0 14 1 0 1 33 62 42 32 2 0 0 3 5 88 73 76 96 44 97 29 93 64 79 14 5 81 5 5 7 76 100 100 83 100 96
100 89 100 99 100 99 100 74 20 5 68 1 0 0 5 8 0 0 0 1 0 0 0 0 3 20 62 17 5 54 14 65 86 18 8 5 8 5 5 9 51 72 89 88 100 100 99 93 100
100 100 100 100 100 98 100 100 84 66 64 0 0 0 0 0 0 0 0 0 0 0 0 0 7 4 4 77 13 5 62 72 70 46 5 19 4 5 9 93 64 62 100 74 100 100 100 100 100
100 100 100 100 100 60 100 100 91 16 67 0 0 0 0 0 2 75 2 0 0 0 0 0 36 24 0 0 3 1 3 52 5 2 5 5 5 4 4 5 14 88 83 90 84 100 100 99 71
100 100 100 100 100 100 100 100 10 49 46 8 0 0 0 0 0 5 81 55 0 0 0 0 0 1 3 4 0 0 2 20 4 3 0 0 2 1 5 41 15 48 21 51 89 97 100 100 98
100 100 100 100 100 100 100 100 34 78 43 3 0 0 0 0 0 80 100 0 0 0 0 0 0 0 2 0 7 5 0 5 5 2 0 0 1 9 93 47 2 0 24 33 22 29 100 61 26
100 100 100 100 100 100 93 100 100 98 84 5 2 0 0 0 11 43 26 0 0 0 0 0 0 0 1 13 22 73 16 1 0 0 0 0 0 0 2 56 0 0 0 2 5 5 5 0 0
100 100 100 100 100 100 64 97 100 89 5 80 49 0 0 0 22 4 26 0 0 0 0 0 0 0 3 21 5 6 39 21 2 4 5 0 0 3 3 5 0 0 0 0 0 0 0 10 91
100 100 100 100 100 100 100 100 100 100 50 5 2 0 0 0 0 5 13 5 1 0 0 0 0 0 0 0 0 5 5 28 19 0 5 4 0 0 0 3 71 4 3 3 0 4 67 91 100
100 100 100 100 100 100 100 100 100 100 100 100 1 0 0 0 0 0 4 3 5 0 0 0 0 0 0 0 3 5 5 5 40 98 0 0 4 5 15 12 5 5 5 33 30 100 81 81 100
90 100 100 100 100 100 100 100 100 100 100 40 23 0 1 0 0 0 2 5 5 8 58 1 3 5 3 1 4 0 2 5 33 91 42 0 1 0 3 31 22 100 78 91 5 38 8 7 22
33 100 100 94 100 100 97 98 100 94 28 86 1 0 6 2 0 5 0 2 5 5 29 53 5 2 5 5 54 24 3 5 5 38 88 51 5 5 4 5 5 5 4 5 5 3 5 69 10
100 94 100 100 100 100 96 99 100 100 99 49 5 3 4 6 1 8 6 5 0 1 5 5 15 5 5 5 18 14 13 5 5 14 20 22 13 35 8 1 4 5 5 5 4 5 5 4 5
96 11 100 100 100 100 100 100 9 86 97 100 100 4 1 5 5 0 4 24 5 5 5 0 5 18 7 5 5 5 48 99 100 100 71 6 23 97 71 11 4 0 3 0 0 0 0 2 0
5 0 96 100 100 100 100 99 87 95 100 100 81 9 44 100 36 4 0 28 5 5 5 5 5 5 24 5 70 5 41 73 71 100 96 100 19 57 37 58 7 12 2 0 0 4 5 28 5
0 65 98 100 100 100 100 95 100 100 100 100 99 21 47 43 100 99 6 0 0 5 5 5 8 5 5 34 20 47 85 100 45 86 100 100 87 83 100 42 54 56 1 0 0 0 0 2 2
0 38 100 100 100 100 100 100 99 96 99 100 68 81 100 100 79 100 95 2 0 1 2 2 5 50 56 9 5 18 100 100 100 78 99 100 90 100 100 44 94 6 52 63 2 0 1 0 0
0 12 100 98 100 100 100 91 100 100 100 92 28 73 73 99 5 98 65 5 25 38 0 4 5 4 17 5 51 31 35 70 100 98 100 100 36 87 92 100 100 100 51 95 100 26 5 5 4
0 49 99 84 100 88 100 100 100 87 90 79 11 66 30 55 54 31 97 22 17 63 16 5 5 5 5 12 35 5 5 4 7 85 100 100 73 69 96 72 100 59 70 95 100 91 57 49 41
0 0 41 100 82 100 100 100 100 44 47 84 80 31 59 63 97 79 14 97 52 100 99 34 5 5 5 43 100 100 100 100 92 0 3 85 99 98 100 42 75 99 87 29 91 84 69 71 69
0 5 9 94 66 18 100 100 64 100 100 94 39 45 72 100 100 91 93 90 81 64 100 8 5 5 0 6 26 99 100 100 100 100 27 5 83 86 72 72 92 63 34 78 31 88 98 72 62

GFSSGP_prec_cloud_123.txt.gz
Cloud_Cover
47 68 4 0 0 0 2 5 4 0 0 0 0 0 1 31 30 59 47 55 92 100 99 100 100 100 100 100 100 99 100 99 87 99 24 40 64 100 100 93 96 82 92 65 93 100 100 100 100
100 72 69 0 0 0 0 2 3 0 0 0 0 0 0 0 0 2 0 7 5 12 51 98 100 100 100 100 100 96 100 83 79 35 5 64 100 85 45 98 98 94 100 100 100 100 100 100 99
36 97 85 25 2 3 3 4 5 0 0 0 0 0 1 4 1 0 0 0 2 4 27 78 100 100 99 100 100 75 63 46 56 24 32 62 22 88 81 100 100 91 100 100 100 100 100 100 100
68 52 64 97 70 2 3 4 0 0 0 0 0 0 2 4 3 2 0 0 0 1 28 0 6 100 81 12 5 6 5 5 5 36 100 81 99 100 100 100 100 100 100 100 100 100 100 100 100
45 72 95 100 69 4 5 7 50 0 0 0 0 0 0 0 5 0 0 0 0 0 0 16 5 22 9 79 10 19 19 88 12 66 64 95 100 100 100 100 100 100 88 67 95 100 100 100 100
100 98 100 100 63 5 5 52 7 0 0 0 0 0 9 34 0 0 0 0 0 0 0 20 0 2 6 5 5 44 36 100 99 100 100 100 100 77 84 92 96 87 100 100 100 100 100 100 100
6 69 91 100 89 97 5 80 0 0 0 0 0 0 35 36 0 0 0 0 5 82 32 17 3 5 4 5 7 38 95 100 100 100 100 100 100 99 73 6 5 0 5 10 88 100 100 100 100
95 96 90 92 100 99 4 0 0 0 0 0 1 0 4 7 4 0 0 0 1 5 5 8 10 68 39 86 100 100 100 100 81 100 74 83 22 5 4 5 5 5 5 5 39 94 100 100 66
99 95 52 95 100 100 72 5 3 0 0 0 0 0 0 0 1 0 0 7 23 14 50 19 16 100 100 98 99 81 29 99 95 100 100 87 4 5 4 5 5 5 8 33 100 100 100 100 46
84 99 85 100 100 100 97 39 82 10 1 0 0 0 0 0 0 0 0 1 0 3 14 32 21 9 50 76 86 48 98 88 57 63 17 4 4 2 0 5 5 5 31 75 100 100 100 100 100
100 91 100 100 99 98 100 98 91 30 0 0 0 0 4 0 0 7 0 0 0 0 10 5 100 100 68 12 19 5 5 5 5 2 5 0 0 3 0 5 5 5 89 98 100 100 52 89 100
100 81 80 100 96 31 100 100 91 91 2 0 0 45 0 0 0 0 0 0 3 0 1 0 5 73 88 1 5 1 1 0 0 0 4 5 5 5 0 0 5 5 88 72 21 47 91 64 94
100 84 64 100 100 82 100 100 66 34 82 1 0 28 0 0 0 0 5 5 0 0 0 0 2 0 0 0 0 0 0 0 0 0 0 0 4 5 4 2 5 6 100 100 56 45 9 23 19
100 100 100 100 100 99 42 100 80 6 97 3 0 0 0 0 0 0 0 1 0 0 0 5 0 2 0 0 0 0 0 0 0 0 0 3 4 5 5 5 5 5 5 66 35 22 14 5 5
8 100 97 100 100 100 56 100 100 89 32 32 0 0 0 19 0 0 0 0 0 0 0 0 0 0 0 0 1 2 0 0 0 0 0 0 0 0 0 0 5 0 3 11 5 5 4 4 1
46 100 81 75 100 100 71 89 100 5 3 7 0 0 0 0 0 0 0 0 0 5 5 0 0 0 0 0 0 0 1 6 0 0 0 0 0 0 0 0 2 4 3 2 5 1 1 4 6
5 100 30 70 100 100 93 60 100 63 82 44 3 0 0 0 0 0 0 0 0 0 2 5 3 0 0 0 0 0 5 5 3 0 0 0 0 0 0 0 0 0 0 0 2 5 3 5 5
2 100 100 100 99 100 82 99 100 100 97 100 3 0 0 0 0 0 0 0 0 0 5 5 5 0 0 0 0 0 2 5 4 0 0 0 0 0 0 0 0 0 0 0 3 0 1 8 7
5 100 100 100 100 100 100 99 62 100 87 58 30 0 0 0 0 0 0 0 0 1 5 5 5 5 4 0 0 0 0 4 0 0 0 5 0 0 0 0 0 0 0 0 0 2 28 10 9
5 74 100 100 100 100 100 84 85 68 99 81 8 2 0 0 0 0 0 5 0 0 4 5 5 5 5 5 5 1 0 0 0 4 0 0 0 0 0 0 2 5 2 4 5 14 92 82 97
5 30 100 100 100 100 100 100 99 95 95 34 4 5 4 0 3 1 0 0 0 0 0 60 95 82 29 40 5 5 5 1 0 0 0 0 0 0 0 0 2 5 5 5 5 5 37 25 5
5 26 100 100 100 100 100 100 68 100 100 100 12 7 5 5 0 5 4 5 0 0 1 5 58 15 21 22 87 95 5 1 0 0 0 0 0 0 0 0 0 0 2 5 5 5 5 5 5
10 50 92 100 99 100 100 100 100 100 100 77 84 3 12 5 2 2 0 0 0 0 3 3 14 5 5 5 5 80 14 2 5 5 0 0 0 0 0 0 0 1 5 5 5 3 5 3 5
21 96 54 100 100 100 100 100 100 96 100 100 100 10 5 57 5 4 0 1 4 1 4 5 20 5 5 5 5 5 5 49 14 4 5 5 4 2 0 0 0 0 0 0 0 0 0 0 1
4 8 10 100 100 100 100 99 100 100 83 100 100 100 35 7 71 5 5 5 2 3 5 5 5 18 7 60 5 40 33 5 6 68 32 5 12 20 13 50 5 5 5 5 4 4 3 5 8
0 0 0 100 100 100 100 97 100 100 100 100 77 100 72 24 53 26 5 5 0 0 5 5 5 5 5 5 5 33 6 5 5 12 39 42 75 5 5 14 96 23 5 5 9 5 6 9 45
0 0 3 96 100 100 100 92 99 100 100 100 84 100 100 54 99 8 5 39 5 5 0 2 5 5 5 7 6 5 5 36 5 5 5 52 49 35 6 5 5 35 94 94 97 95 89 74 33
0 0 5 98 100 100 100 100 99 100 100 100 100 100 100 98 98 69 52 6 5 5 7 5 1 5 5 45 72 48 73 9 43 47 5 5 13 24 41 21 5 5 11 31 47 79 77 56 6
2 5 9 68 75 100 100 100 100 100 100 100 100 100 100 100 100 100 100 100 51 13 5 5 5 0 3 9 2 14 100 100 100 87 6 5 5 5 5 6 35 54 6 29 52 45 5 6 15
55 41 84 100 100 100 100 100 100 100 100 100 100 100 100 100 99 90 100 99 60 35 61 5 5 0 0 3 85 100 100 100 100 100 100 98 20 7 5 5 5 5 5 4 6 15 6 5 22

GFSSGP_prec_cloud_126.txt.gz
Cloud_Cover
76 6 51 2 28 99 93 5 0 0 1 0 0 86 34 20 86 65 26 100 67 100 100 100 100 100 100 100 100 100 100 80 98 97 100 100 100 100 100 81 100 100 100 100 100 100 100 100 100
83 72 100 72 94 100 76 33 0 0 0 0 0 13 37 6 5 23 47 46 44 97 100 100 100 100 100 100 100 100 84 100 100 100 98 83 100 100 100 100 100 100 100 100 100 100 99 100 100
72 97 100 92 56 97 44 54 0 0 0 24 1 2 9 6 18 21 2 0 99 100 97 100 94 100 100 100 100 100 100 100 98 98 100 100 100 100 100 100 100 100 100 100 100 100 100 90 100
80 55 100 100 84 3 33 39 0 0 4 1 5 3 3 5 5 0 0 29 100 78 93 100 76 100 100 100 100 100 100 100 100 100 55 56 86 58 83 100 100 100 100 100 100 100 100 100 100
36 55 33 100 20 3 15 13 44 8 29 4 43 2 2 11 0 0 0 31 58 96 41 3 94 100 100 100 99 97 100 82 13 26 18 32 86 100 100 100 100 100 100 100 100 100 100 100 100
78 95 90 100 77 5 5 0 18 0 0 1 5 3 25 0 0 0 0 31 57 84 89 2 4 9 60 96 23 73 62 32 95 95 53 76 96 100 100 100 100 100 100 100 100 100 100 100 100
31 97 100 95 100 29 6 0 99 19 0 0 1 0 3 3 8 0 0 25 63 3 33 28 2 5 10 14 8 91 100 80 96 31 97 100 100 100 100 72 82 52 60 99 100 100 100 100 100
90 99 63 98 94 99 0 0 0 14 5 5 7 0 0 0 0 0 5 91 71 5 19 18 69 45 75 6 43 79 67 100 100 99 100 97 5 5 6 5 5 5 6 53 91 100 100 100 100
97 68 78 56 20 69 59 1 0 0 0 3 3 4 1 0 0 0 4 46 35 7 16 14 43 28 72 90 98 100 100 75 21 54 98 7 5 5 5 25 5 69 100 66 100 100 100 100 98
98 98 90 87 86 62 71 24 2 0 0 0 0 0 0 0 0 2 1 12 10 5 14 88 96 100 100 100 100 100 100 100 100 100 97 8 4 6 5 5 5 5 6 98 100 100 98 100 100
69 93 94 100 45 76 100 36 5 3 0 0 4 3 0 0 0 0 0 5 5 6 31 95 100 66 67 54 50 55 17 7 8 9 9 10 24 62 89 6 5 17 100 94 100 100 100 100 100
100 92 92 100 51 41 100 9 100 6 3 0 0 10 0 3 0 0 0 0 0 4 59 100 96 62 28 6 15 4 14 9 0 5 4 1 18 0 5 5 5 36 100 100 100 100 88 83 9
100 64 96 80 83 100 49 16 59 2 0 0 0 0 0 2 0 0 0 0 0 0 5 83 36 14 1 0 0 0 0 5 0 1 1 6 1 0 1 4 5 7 5 7 9 34 30 3 2
100 100 96 97 100 100 81 90 11 15 0 0 0 0 0 0 0 0 0 4 4 0 0 1 4 0 2 23 4 0 0 4 3 0 1 0 0 0 0 5 5 5 5 2 5 5 5 5 2
100 95 99 99 100 100 100 40 14 6 0 1 0 0 0 1 0 3 0 0 0 0 0 0 0 0 2 0 0 0 1 0 4 0 0 0 0 0 4 5 5 5 1 0 5 5 2 2 1
82 82 91 99 100 99 100 54 65 6 0 2 0 0 0 0 3 18 17 7 0 0 0 0 2 0 10 19 5 13 0 34 10 0 0 0 0 0 0 0 0 0 16 1 0 3 5 5 21
8 73 100 36 99 100 99 77 96 18 10 71 18 12 10 0 23 2 21 21 0 2 0 0 1 33 4 4 0 2 2 37 8 0 0 0 0 0 0 0 0 0 68 17 12 5 5 16 47
76 17 100 44 100 94 100 100 90 28 50 80 59 6 39 4 3 0 12 30 10 0 0 5 16 14 0 0 0 19 6 2 0 0 0 0 0 0 0 0 0 4 90 26 5 5 18 13 7
7 5 100 42 29 100 100 100 95 39 63 24 100 82 58 13 13 8 10 2 17 16 2 21 14 5 5 0 11 0 28 2 0 0 0 0 0 0 0 0 0 7 75 75 95 100 96 54 37
5 36 96 36 72 100 100 100 80 100 87 73 71 93 85 29 12 9 0 5 13 5 5 15 0 0 0 2 22 52 81 34 17 0 0 0 0 0 0 2 5 36 81 99 79 70 80 72 10
35 100 100 6 99 100 100 100 100 94 100 75 100 78 87 37 2 0 1 2 30 76 81 65 72 50 1 26 1 5 7 2 0 0 0 0 1 0 0 0 2 5 9 16 25 62 91 86 45
80 6 30 99 100 100 100 100 99 78 95 49 9 46 76 21 0 0 0 5 58 41 87 100 98 100 84 2 9 9 10 8 7 0 0 0 0 3 5 5 5 5 5 6 5 5 5 5 9
94 5 6 100 100 100 100 100 100 90 70 28 62 3 6 20 0 0 0 0 5 5 33 39 93 97 100 100 4 0 11 33 6 16 0 0 2 5 5 5 5 5 5 3 5 5 5 5 4
3 4 0 100 100 100 100 100 100 98 96 100 88 8 11 5 0 0 0 1 24 5 5 8 25 5 86 98 99 73 18 4 13 15 14 3 0 1 1 3 1 0 4 3 0 0 1 5 6
0 4 60 99 100 100 100 100 100 100 100 100 100 86 37 8 3 0 0 2 0 0 0 5 5 5 5 9 87 98 96 32 5 5 5 100 73 42 8 5 4 5 5 5 7 5 5 15 5
4 92 100 14 100 100 100 100 100 100 100 100 85 60 62 10 5 5 0 0 0 0 0 5 5 21 10 7 22 57 100 57 76 85 53 2 56 64 23 1 6 8 9 29 6 38 58 60 72
8 0 79 91 100 100 100 100 100 99 100 100 100 100 62 42 4 3 0 0 0 0 1 5 2 5 0 5 21 8 5 22 69 48 98 33 7 28 6 5 4 5 5 7 6 6 12 5 5
1 46 10 9 90 100 100 100 100 100 99 100 100 100 89 91 100 8 3 4 4 5 4 1 3 0 0 0 0 5 12 5 48 75 5 7 22 27 96 21 48 31 21 15 9 7 12 9 5
0 2 2 68 57 100 100 100 100 100 78 100 100 100 100 100 99 85 33 49 32 5 5 6 5 5 5 0 3 2 40 5 94 100 71 5 5 5 5 34 89 97 95 33 19 5 4 6 17
12 38 91 83 100 86 100 100 100 98 100 100 100 100 100 100 100 99 78 5 9 3 1 6 6 5 5 5 4 74 100 100 100 100 36 18 3 7 5 5 5 5 5 10 84 7 55 45 35